<?xml version="1.0" encoding="UTF-8" standalone="no" ?>
<gpx xmlns="http://www.topografix.com/GPX/1/1" xmlns:xsi="http://www.w3.org/2001/XMLSchema-instance" xsi:schemaLocation="http://www.topografix.com/GPX/1/1 http://www.topografix.com/GPX/1/1/gpx.xsd" version="1.1" creator="VisuGPX - https://www.visugpx.com">
  <metadata>
    <name>Rando Segré 2017</name>
    <desc><![CDATA[Rando Segré 17/09/2017 50kms..........................................]]></desc>
  </metadata>
  <trk>
    <name><![CDATA[2017-09-17 08:22]]></name>
    <desc><![CDATA[<p>Heure de départ: 09/17/2017 08:28</p><p>Heure d'arrivée: 09/17/2017 11:32</p><p>Distance: 47,4 km (03:03)</p><p>Temps déplacement: 02:45</p><p>Vitesse moyenne: 15,46 km/h</p><p>Vitesse moyenne mouv.: 17,2 km/h</p><p>Vitesse Max.: 38,41km/h</p><p>Altitude minimale: -51 m</p><p>Altitude maximale: 272 m</p><p>Vitesse de montée: 620,6 m/h</p><p>Vitesse de descente: -727,4 m/h</p><p>Gain d'altitude: 721 m</p><p>Perte d'altitude: -729 m</p><p>Temps de montée: 01:09</p><p>Temps de descente: 01:00</p><hr align="center" width="480" style="height: 2px; width: 517px"/>]]></desc>
    <trkseg>
      <trkpt lat="47.6882" lon="-0.86193">
        <ele>50.28</ele>
        <time>2017-09-17T06:28:52Z</time>
      </trkpt>
      <trkpt lat="47.68836" lon="-0.86174">
        <ele>65.89</ele>
        <time>2017-09-17T06:28:57Z</time>
      </trkpt>
      <trkpt lat="47.68848" lon="-0.86149">
        <ele>61.81</ele>
        <time>2017-09-17T06:29:02Z</time>
      </trkpt>
      <trkpt lat="47.68861" lon="-0.86125">
        <ele>60.41</ele>
        <time>2017-09-17T06:29:07Z</time>
      </trkpt>
      <trkpt lat="47.68879" lon="-0.86102">
        <ele>69.48</ele>
        <time>2017-09-17T06:29:12Z</time>
      </trkpt>
      <trkpt lat="47.68894" lon="-0.8608">
        <ele>74.62</ele>
        <time>2017-09-17T06:29:16Z</time>
      </trkpt>
      <trkpt lat="47.68904" lon="-0.86053">
        <ele>69.29</ele>
        <time>2017-09-17T06:29:20Z</time>
      </trkpt>
      <trkpt lat="47.68921" lon="-0.86034">
        <ele>62.77</ele>
        <time>2017-09-17T06:29:23Z</time>
      </trkpt>
      <trkpt lat="47.68936" lon="-0.86016">
        <ele>55.23</ele>
        <time>2017-09-17T06:29:26Z</time>
      </trkpt>
      <trkpt lat="47.6895" lon="-0.85999">
        <ele>48.69</ele>
        <time>2017-09-17T06:29:29Z</time>
      </trkpt>
      <trkpt lat="47.68966" lon="-0.85978">
        <ele>45.56</ele>
        <time>2017-09-17T06:29:33Z</time>
      </trkpt>
      <trkpt lat="47.68986" lon="-0.85964">
        <ele>46.59</ele>
        <time>2017-09-17T06:29:37Z</time>
      </trkpt>
      <trkpt lat="47.69006" lon="-0.85952">
        <ele>46.6</ele>
        <time>2017-09-17T06:29:41Z</time>
      </trkpt>
      <trkpt lat="47.69027" lon="-0.85945">
        <ele>46</ele>
        <time>2017-09-17T06:29:45Z</time>
      </trkpt>
      <trkpt lat="47.69048" lon="-0.85938">
        <ele>45.98</ele>
        <time>2017-09-17T06:29:49Z</time>
      </trkpt>
      <trkpt lat="47.69071" lon="-0.85929">
        <ele>46.24</ele>
        <time>2017-09-17T06:29:53Z</time>
      </trkpt>
      <trkpt lat="47.69088" lon="-0.85921">
        <ele>44.72</ele>
        <time>2017-09-17T06:29:56Z</time>
      </trkpt>
      <trkpt lat="47.69106" lon="-0.85913">
        <ele>42.75</ele>
        <time>2017-09-17T06:29:59Z</time>
      </trkpt>
      <trkpt lat="47.69126" lon="-0.85904">
        <ele>37.95</ele>
        <time>2017-09-17T06:30:02Z</time>
      </trkpt>
      <trkpt lat="47.69149" lon="-0.859">
        <ele>37.45</ele>
        <time>2017-09-17T06:30:06Z</time>
      </trkpt>
      <trkpt lat="47.6917" lon="-0.85901">
        <ele>37.52</ele>
        <time>2017-09-17T06:30:10Z</time>
      </trkpt>
      <trkpt lat="47.69191" lon="-0.85903">
        <ele>38.07</ele>
        <time>2017-09-17T06:30:15Z</time>
      </trkpt>
      <trkpt lat="47.6921" lon="-0.85899">
        <ele>40.21</ele>
        <time>2017-09-17T06:30:22Z</time>
      </trkpt>
      <trkpt lat="47.69232" lon="-0.859">
        <ele>40.11</ele>
        <time>2017-09-17T06:30:27Z</time>
      </trkpt>
      <trkpt lat="47.69254" lon="-0.85896">
        <ele>40.65</ele>
        <time>2017-09-17T06:30:31Z</time>
      </trkpt>
      <trkpt lat="47.69275" lon="-0.85892">
        <ele>41.06</ele>
        <time>2017-09-17T06:30:35Z</time>
      </trkpt>
      <trkpt lat="47.69294" lon="-0.85893">
        <ele>40.68</ele>
        <time>2017-09-17T06:30:39Z</time>
      </trkpt>
      <trkpt lat="47.69312" lon="-0.8589">
        <ele>42.07</ele>
        <time>2017-09-17T06:30:45Z</time>
      </trkpt>
      <trkpt lat="47.69332" lon="-0.85887">
        <ele>42.3</ele>
        <time>2017-09-17T06:30:51Z</time>
      </trkpt>
      <trkpt lat="47.69355" lon="-0.8589">
        <ele>43.11</ele>
        <time>2017-09-17T06:30:57Z</time>
      </trkpt>
      <trkpt lat="47.69377" lon="-0.8589">
        <ele>43.28</ele>
        <time>2017-09-17T06:31:02Z</time>
      </trkpt>
      <trkpt lat="47.69397" lon="-0.85886">
        <ele>44.58</ele>
        <time>2017-09-17T06:31:06Z</time>
      </trkpt>
      <trkpt lat="47.69418" lon="-0.85883">
        <ele>44.93</ele>
        <time>2017-09-17T06:31:10Z</time>
      </trkpt>
      <trkpt lat="47.69438" lon="-0.8588">
        <ele>45.12</ele>
        <time>2017-09-17T06:31:14Z</time>
      </trkpt>
      <trkpt lat="47.69459" lon="-0.85872">
        <ele>45</ele>
        <time>2017-09-17T06:31:18Z</time>
      </trkpt>
      <trkpt lat="47.6948" lon="-0.85864">
        <ele>44.6</ele>
        <time>2017-09-17T06:31:22Z</time>
      </trkpt>
      <trkpt lat="47.69502" lon="-0.85853">
        <ele>44.2</ele>
        <time>2017-09-17T06:31:26Z</time>
      </trkpt>
      <trkpt lat="47.69518" lon="-0.85839">
        <ele>43.99</ele>
        <time>2017-09-17T06:31:29Z</time>
      </trkpt>
      <trkpt lat="47.69538" lon="-0.85823">
        <ele>43.6</ele>
        <time>2017-09-17T06:31:33Z</time>
      </trkpt>
      <trkpt lat="47.69559" lon="-0.85807">
        <ele>43.2</ele>
        <time>2017-09-17T06:31:37Z</time>
      </trkpt>
      <trkpt lat="47.69578" lon="-0.85793">
        <ele>42.8</ele>
        <time>2017-09-17T06:31:41Z</time>
      </trkpt>
      <trkpt lat="47.69597" lon="-0.85774">
        <ele>42.4</ele>
        <time>2017-09-17T06:31:45Z</time>
      </trkpt>
      <trkpt lat="47.69616" lon="-0.85756">
        <ele>42</ele>
        <time>2017-09-17T06:31:49Z</time>
      </trkpt>
      <trkpt lat="47.69634" lon="-0.85739">
        <ele>41.5</ele>
        <time>2017-09-17T06:31:53Z</time>
      </trkpt>
      <trkpt lat="47.69653" lon="-0.85725">
        <ele>40.92</ele>
        <time>2017-09-17T06:31:57Z</time>
      </trkpt>
      <trkpt lat="47.69671" lon="-0.85711">
        <ele>40.41</ele>
        <time>2017-09-17T06:32:01Z</time>
      </trkpt>
      <trkpt lat="47.6969" lon="-0.85696">
        <ele>40.16</ele>
        <time>2017-09-17T06:32:05Z</time>
      </trkpt>
      <trkpt lat="47.69709" lon="-0.85681">
        <ele>40.09</ele>
        <time>2017-09-17T06:32:09Z</time>
      </trkpt>
      <trkpt lat="47.69727" lon="-0.85666">
        <ele>39.43</ele>
        <time>2017-09-17T06:32:13Z</time>
      </trkpt>
      <trkpt lat="47.69745" lon="-0.85653">
        <ele>38.65</ele>
        <time>2017-09-17T06:32:17Z</time>
      </trkpt>
      <trkpt lat="47.69763" lon="-0.8564">
        <ele>37.73</ele>
        <time>2017-09-17T06:32:24Z</time>
      </trkpt>
      <trkpt lat="47.69779" lon="-0.85627">
        <ele>36.93</ele>
        <time>2017-09-17T06:32:29Z</time>
      </trkpt>
      <trkpt lat="47.69795" lon="-0.85614">
        <ele>36.31</ele>
        <time>2017-09-17T06:32:33Z</time>
      </trkpt>
      <trkpt lat="47.69811" lon="-0.85597">
        <ele>35.61</ele>
        <time>2017-09-17T06:32:37Z</time>
      </trkpt>
      <trkpt lat="47.6983" lon="-0.85583">
        <ele>34.92</ele>
        <time>2017-09-17T06:32:41Z</time>
      </trkpt>
      <trkpt lat="47.69848" lon="-0.8557">
        <ele>34.13</ele>
        <time>2017-09-17T06:32:45Z</time>
      </trkpt>
      <trkpt lat="47.69866" lon="-0.85555">
        <ele>33.43</ele>
        <time>2017-09-17T06:32:49Z</time>
      </trkpt>
      <trkpt lat="47.69883" lon="-0.85541">
        <ele>32.63</ele>
        <time>2017-09-17T06:32:53Z</time>
      </trkpt>
      <trkpt lat="47.69901" lon="-0.85529">
        <ele>31.83</ele>
        <time>2017-09-17T06:32:57Z</time>
      </trkpt>
      <trkpt lat="47.69919" lon="-0.85511">
        <ele>31.03</ele>
        <time>2017-09-17T06:33:01Z</time>
      </trkpt>
      <trkpt lat="47.69937" lon="-0.85497">
        <ele>31.19</ele>
        <time>2017-09-17T06:33:05Z</time>
      </trkpt>
      <trkpt lat="47.69955" lon="-0.85479">
        <ele>30.83</ele>
        <time>2017-09-17T06:33:09Z</time>
      </trkpt>
      <trkpt lat="47.69974" lon="-0.85462">
        <ele>30.04</ele>
        <time>2017-09-17T06:33:13Z</time>
      </trkpt>
      <trkpt lat="47.69992" lon="-0.8545">
        <ele>29.13</ele>
        <time>2017-09-17T06:33:17Z</time>
      </trkpt>
      <trkpt lat="47.70009" lon="-0.85435">
        <ele>28.03</ele>
        <time>2017-09-17T06:33:22Z</time>
      </trkpt>
      <trkpt lat="47.70027" lon="-0.8542">
        <ele>26.55</ele>
        <time>2017-09-17T06:33:28Z</time>
      </trkpt>
      <trkpt lat="47.70043" lon="-0.85406">
        <ele>25.71</ele>
        <time>2017-09-17T06:33:32Z</time>
      </trkpt>
      <trkpt lat="47.7006" lon="-0.8539">
        <ele>24.75</ele>
        <time>2017-09-17T06:33:36Z</time>
      </trkpt>
      <trkpt lat="47.70079" lon="-0.85373">
        <ele>23.73</ele>
        <time>2017-09-17T06:33:40Z</time>
      </trkpt>
      <trkpt lat="47.70099" lon="-0.85357">
        <ele>22.65</ele>
        <time>2017-09-17T06:33:44Z</time>
      </trkpt>
      <trkpt lat="47.70118" lon="-0.85342">
        <ele>21.55</ele>
        <time>2017-09-17T06:33:48Z</time>
      </trkpt>
      <trkpt lat="47.70138" lon="-0.85326">
        <ele>20.45</ele>
        <time>2017-09-17T06:33:52Z</time>
      </trkpt>
      <trkpt lat="47.7016" lon="-0.85309">
        <ele>19.35</ele>
        <time>2017-09-17T06:33:56Z</time>
      </trkpt>
      <trkpt lat="47.70176" lon="-0.85297">
        <ele>18.45</ele>
        <time>2017-09-17T06:33:59Z</time>
      </trkpt>
      <trkpt lat="47.70191" lon="-0.85282">
        <ele>17.65</ele>
        <time>2017-09-17T06:34:02Z</time>
      </trkpt>
      <trkpt lat="47.70207" lon="-0.85267">
        <ele>18.79</ele>
        <time>2017-09-17T06:34:05Z</time>
      </trkpt>
      <trkpt lat="47.70223" lon="-0.85251">
        <ele>18.53</ele>
        <time>2017-09-17T06:34:08Z</time>
      </trkpt>
      <trkpt lat="47.70242" lon="-0.8523">
        <ele>17.37</ele>
        <time>2017-09-17T06:34:12Z</time>
      </trkpt>
      <trkpt lat="47.70257" lon="-0.85214">
        <ele>16.57</ele>
        <time>2017-09-17T06:34:15Z</time>
      </trkpt>
      <trkpt lat="47.70272" lon="-0.85197">
        <ele>15.77</ele>
        <time>2017-09-17T06:34:18Z</time>
      </trkpt>
      <trkpt lat="47.70286" lon="-0.85182">
        <ele>14.77</ele>
        <time>2017-09-17T06:34:21Z</time>
      </trkpt>
      <trkpt lat="47.70301" lon="-0.85164">
        <ele>13.87</ele>
        <time>2017-09-17T06:34:24Z</time>
      </trkpt>
      <trkpt lat="47.70313" lon="-0.85145">
        <ele>12.87</ele>
        <time>2017-09-17T06:34:27Z</time>
      </trkpt>
      <trkpt lat="47.70327" lon="-0.85125">
        <ele>12.05</ele>
        <time>2017-09-17T06:34:30Z</time>
      </trkpt>
      <trkpt lat="47.7034" lon="-0.85105">
        <ele>11.05</ele>
        <time>2017-09-17T06:34:33Z</time>
      </trkpt>
      <trkpt lat="47.70353" lon="-0.85085">
        <ele>10.05</ele>
        <time>2017-09-17T06:34:36Z</time>
      </trkpt>
      <trkpt lat="47.70369" lon="-0.85059">
        <ele>8.67</ele>
        <time>2017-09-17T06:34:40Z</time>
      </trkpt>
      <trkpt lat="47.70384" lon="-0.85034">
        <ele>7.36</ele>
        <time>2017-09-17T06:34:44Z</time>
      </trkpt>
      <trkpt lat="47.70396" lon="-0.85012">
        <ele>6.27</ele>
        <time>2017-09-17T06:34:47Z</time>
      </trkpt>
      <trkpt lat="47.70407" lon="-0.8499">
        <ele>5.26</ele>
        <time>2017-09-17T06:34:50Z</time>
      </trkpt>
      <trkpt lat="47.70418" lon="-0.84967">
        <ele>4.17</ele>
        <time>2017-09-17T06:34:53Z</time>
      </trkpt>
      <trkpt lat="47.70426" lon="-0.84943">
        <ele>3.08</ele>
        <time>2017-09-17T06:34:56Z</time>
      </trkpt>
      <trkpt lat="47.70436" lon="-0.8492">
        <ele>2.06</ele>
        <time>2017-09-17T06:34:59Z</time>
      </trkpt>
      <trkpt lat="47.70449" lon="-0.8489">
        <ele>0.48</ele>
        <time>2017-09-17T06:35:03Z</time>
      </trkpt>
      <trkpt lat="47.70459" lon="-0.84866">
        <ele>-1.57</ele>
        <time>2017-09-17T06:35:06Z</time>
      </trkpt>
      <trkpt lat="47.70472" lon="-0.84835">
        <ele>-2.91</ele>
        <time>2017-09-17T06:35:10Z</time>
      </trkpt>
      <trkpt lat="47.70484" lon="-0.84806">
        <ele>-4.26</ele>
        <time>2017-09-17T06:35:14Z</time>
      </trkpt>
      <trkpt lat="47.70495" lon="-0.84777">
        <ele>-5.92</ele>
        <time>2017-09-17T06:35:18Z</time>
      </trkpt>
      <trkpt lat="47.70506" lon="-0.84746">
        <ele>-7.44</ele>
        <time>2017-09-17T06:35:22Z</time>
      </trkpt>
      <trkpt lat="47.70517" lon="-0.84716">
        <ele>-8.94</ele>
        <time>2017-09-17T06:35:26Z</time>
      </trkpt>
      <trkpt lat="47.70528" lon="-0.84687">
        <ele>-10.52</ele>
        <time>2017-09-17T06:35:30Z</time>
      </trkpt>
      <trkpt lat="47.70539" lon="-0.84659">
        <ele>-12.1</ele>
        <time>2017-09-17T06:35:34Z</time>
      </trkpt>
      <trkpt lat="47.7055" lon="-0.84631">
        <ele>-13.62</ele>
        <time>2017-09-17T06:35:38Z</time>
      </trkpt>
      <trkpt lat="47.70559" lon="-0.84604">
        <ele>-15.32</ele>
        <time>2017-09-17T06:35:42Z</time>
      </trkpt>
      <trkpt lat="47.7057" lon="-0.84576">
        <ele>-16.92</ele>
        <time>2017-09-17T06:35:46Z</time>
      </trkpt>
      <trkpt lat="47.70583" lon="-0.84553">
        <ele>-18.44</ele>
        <time>2017-09-17T06:35:50Z</time>
      </trkpt>
      <trkpt lat="47.70593" lon="-0.84528">
        <ele>-20.12</ele>
        <time>2017-09-17T06:35:54Z</time>
      </trkpt>
      <trkpt lat="47.70604" lon="-0.84504">
        <ele>-21.72</ele>
        <time>2017-09-17T06:35:58Z</time>
      </trkpt>
      <trkpt lat="47.70617" lon="-0.84478">
        <ele>-23.32</ele>
        <time>2017-09-17T06:36:02Z</time>
      </trkpt>
      <trkpt lat="47.70629" lon="-0.84452">
        <ele>-24.58</ele>
        <time>2017-09-17T06:36:06Z</time>
      </trkpt>
      <trkpt lat="47.70636" lon="-0.84425">
        <ele>-26.14</ele>
        <time>2017-09-17T06:36:10Z</time>
      </trkpt>
      <trkpt lat="47.70647" lon="-0.84401">
        <ele>-27.9</ele>
        <time>2017-09-17T06:36:14Z</time>
      </trkpt>
      <trkpt lat="47.70658" lon="-0.84371">
        <ele>-29.42</ele>
        <time>2017-09-17T06:36:18Z</time>
      </trkpt>
      <trkpt lat="47.70668" lon="-0.84344">
        <ele>-31.23</ele>
        <time>2017-09-17T06:36:22Z</time>
      </trkpt>
      <trkpt lat="47.7068" lon="-0.8432">
        <ele>-32.8</ele>
        <time>2017-09-17T06:36:26Z</time>
      </trkpt>
      <trkpt lat="47.70691" lon="-0.84293">
        <ele>-34.6</ele>
        <time>2017-09-17T06:36:30Z</time>
      </trkpt>
      <trkpt lat="47.70699" lon="-0.84264">
        <ele>-36.4</ele>
        <time>2017-09-17T06:36:34Z</time>
      </trkpt>
      <trkpt lat="47.70708" lon="-0.84234">
        <ele>-38</ele>
        <time>2017-09-17T06:36:38Z</time>
      </trkpt>
      <trkpt lat="47.7072" lon="-0.84207">
        <ele>-39.7</ele>
        <time>2017-09-17T06:36:42Z</time>
      </trkpt>
      <trkpt lat="47.7073" lon="-0.8418">
        <ele>-41.42</ele>
        <time>2017-09-17T06:36:46Z</time>
      </trkpt>
      <trkpt lat="47.70741" lon="-0.84151">
        <ele>-43.22</ele>
        <time>2017-09-17T06:36:50Z</time>
      </trkpt>
      <trkpt lat="47.70754" lon="-0.84126">
        <ele>-44.92</ele>
        <time>2017-09-17T06:36:54Z</time>
      </trkpt>
      <trkpt lat="47.70766" lon="-0.84102">
        <ele>-46.62</ele>
        <time>2017-09-17T06:36:58Z</time>
      </trkpt>
      <trkpt lat="47.70776" lon="-0.84079">
        <ele>-47.76</ele>
        <time>2017-09-17T06:37:02Z</time>
      </trkpt>
      <trkpt lat="47.70787" lon="-0.84054">
        <ele>-49.24</ele>
        <time>2017-09-17T06:37:09Z</time>
      </trkpt>
      <trkpt lat="47.70771" lon="-0.84034">
        <ele>-51.69</ele>
        <time>2017-09-17T06:37:19Z</time>
      </trkpt>
      <trkpt lat="47.70764" lon="-0.84004">
        <ele>-39.21</ele>
        <time>2017-09-17T06:37:24Z</time>
      </trkpt>
      <trkpt lat="47.7075" lon="-0.83977">
        <ele>-32.81</ele>
        <time>2017-09-17T06:37:28Z</time>
      </trkpt>
      <trkpt lat="47.70734" lon="-0.83952">
        <ele>-28.47</ele>
        <time>2017-09-17T06:37:31Z</time>
      </trkpt>
      <trkpt lat="47.70716" lon="-0.8393">
        <ele>-24.29</ele>
        <time>2017-09-17T06:37:34Z</time>
      </trkpt>
      <trkpt lat="47.70697" lon="-0.83915">
        <ele>-21.91</ele>
        <time>2017-09-17T06:37:37Z</time>
      </trkpt>
      <trkpt lat="47.70678" lon="-0.83898">
        <ele>-19.2</ele>
        <time>2017-09-17T06:37:40Z</time>
      </trkpt>
      <trkpt lat="47.70659" lon="-0.8388">
        <ele>-17.78</ele>
        <time>2017-09-17T06:37:43Z</time>
      </trkpt>
      <trkpt lat="47.70642" lon="-0.83856">
        <ele>-16.46</ele>
        <time>2017-09-17T06:37:46Z</time>
      </trkpt>
      <trkpt lat="47.70629" lon="-0.83828">
        <ele>-15.81</ele>
        <time>2017-09-17T06:37:49Z</time>
      </trkpt>
      <trkpt lat="47.70618" lon="-0.83799">
        <ele>-15.08</ele>
        <time>2017-09-17T06:37:52Z</time>
      </trkpt>
      <trkpt lat="47.70607" lon="-0.83771">
        <ele>-14.05</ele>
        <time>2017-09-17T06:37:55Z</time>
      </trkpt>
      <trkpt lat="47.706" lon="-0.83745">
        <ele>-5.87</ele>
        <time>2017-09-17T06:37:59Z</time>
      </trkpt>
      <trkpt lat="47.70587" lon="-0.83714">
        <ele>-0.84</ele>
        <time>2017-09-17T06:38:02Z</time>
      </trkpt>
      <trkpt lat="47.70576" lon="-0.83684">
        <ele>2.04</ele>
        <time>2017-09-17T06:38:05Z</time>
      </trkpt>
      <trkpt lat="47.70565" lon="-0.83651">
        <ele>5.3</ele>
        <time>2017-09-17T06:38:08Z</time>
      </trkpt>
      <trkpt lat="47.70552" lon="-0.83618">
        <ele>9.38</ele>
        <time>2017-09-17T06:38:11Z</time>
      </trkpt>
      <trkpt lat="47.70539" lon="-0.8359">
        <ele>11.43</ele>
        <time>2017-09-17T06:38:14Z</time>
      </trkpt>
      <trkpt lat="47.70522" lon="-0.83563">
        <ele>15.09</ele>
        <time>2017-09-17T06:38:17Z</time>
      </trkpt>
      <trkpt lat="47.70507" lon="-0.83536">
        <ele>18.69</ele>
        <time>2017-09-17T06:38:20Z</time>
      </trkpt>
      <trkpt lat="47.70493" lon="-0.83509">
        <ele>21.9</ele>
        <time>2017-09-17T06:38:23Z</time>
      </trkpt>
      <trkpt lat="47.70478" lon="-0.83481">
        <ele>24.93</ele>
        <time>2017-09-17T06:38:26Z</time>
      </trkpt>
      <trkpt lat="47.70463" lon="-0.83454">
        <ele>26.92</ele>
        <time>2017-09-17T06:38:29Z</time>
      </trkpt>
      <trkpt lat="47.70445" lon="-0.83424">
        <ele>31.06</ele>
        <time>2017-09-17T06:38:32Z</time>
      </trkpt>
      <trkpt lat="47.70427" lon="-0.83402">
        <ele>35.39</ele>
        <time>2017-09-17T06:38:35Z</time>
      </trkpt>
      <trkpt lat="47.70406" lon="-0.83393">
        <ele>37.4</ele>
        <time>2017-09-17T06:38:38Z</time>
      </trkpt>
      <trkpt lat="47.70385" lon="-0.8339">
        <ele>38.96</ele>
        <time>2017-09-17T06:38:41Z</time>
      </trkpt>
      <trkpt lat="47.70364" lon="-0.83387">
        <ele>40.52</ele>
        <time>2017-09-17T06:38:44Z</time>
      </trkpt>
      <trkpt lat="47.70346" lon="-0.8338">
        <ele>41.86</ele>
        <time>2017-09-17T06:38:47Z</time>
      </trkpt>
      <trkpt lat="47.70327" lon="-0.83362">
        <ele>42.75</ele>
        <time>2017-09-17T06:38:51Z</time>
      </trkpt>
      <trkpt lat="47.70332" lon="-0.83336">
        <ele>43.06</ele>
        <time>2017-09-17T06:38:57Z</time>
      </trkpt>
      <trkpt lat="47.7035" lon="-0.83324">
        <ele>43.28</ele>
        <time>2017-09-17T06:39:02Z</time>
      </trkpt>
      <trkpt lat="47.7037" lon="-0.83313">
        <ele>43.47</ele>
        <time>2017-09-17T06:39:07Z</time>
      </trkpt>
      <trkpt lat="47.7039" lon="-0.83298">
        <ele>44.03</ele>
        <time>2017-09-17T06:39:11Z</time>
      </trkpt>
      <trkpt lat="47.7041" lon="-0.83285">
        <ele>44.71</ele>
        <time>2017-09-17T06:39:15Z</time>
      </trkpt>
      <trkpt lat="47.70429" lon="-0.83269">
        <ele>45.25</ele>
        <time>2017-09-17T06:39:19Z</time>
      </trkpt>
      <trkpt lat="47.70448" lon="-0.83253">
        <ele>45.93</ele>
        <time>2017-09-17T06:39:23Z</time>
      </trkpt>
      <trkpt lat="47.70466" lon="-0.83241">
        <ele>46.45</ele>
        <time>2017-09-17T06:39:27Z</time>
      </trkpt>
      <trkpt lat="47.70485" lon="-0.83232">
        <ele>47.31</ele>
        <time>2017-09-17T06:39:31Z</time>
      </trkpt>
      <trkpt lat="47.70502" lon="-0.83225">
        <ele>48.11</ele>
        <time>2017-09-17T06:39:35Z</time>
      </trkpt>
      <trkpt lat="47.70522" lon="-0.83218">
        <ele>48.55</ele>
        <time>2017-09-17T06:39:40Z</time>
      </trkpt>
      <trkpt lat="47.70542" lon="-0.83212">
        <ele>49.82</ele>
        <time>2017-09-17T06:39:45Z</time>
      </trkpt>
      <trkpt lat="47.70562" lon="-0.83206">
        <ele>50.48</ele>
        <time>2017-09-17T06:39:50Z</time>
      </trkpt>
      <trkpt lat="47.7058" lon="-0.83199">
        <ele>50.56</ele>
        <time>2017-09-17T06:39:55Z</time>
      </trkpt>
      <trkpt lat="47.70599" lon="-0.83192">
        <ele>50.75</ele>
        <time>2017-09-17T06:40:00Z</time>
      </trkpt>
      <trkpt lat="47.7062" lon="-0.83184">
        <ele>50.72</ele>
        <time>2017-09-17T06:40:05Z</time>
      </trkpt>
      <trkpt lat="47.70635" lon="-0.83169">
        <ele>51.57</ele>
        <time>2017-09-17T06:40:09Z</time>
      </trkpt>
      <trkpt lat="47.70642" lon="-0.83143">
        <ele>52.55</ele>
        <time>2017-09-17T06:40:14Z</time>
      </trkpt>
      <trkpt lat="47.70659" lon="-0.83129">
        <ele>53.05</ele>
        <time>2017-09-17T06:40:19Z</time>
      </trkpt>
      <trkpt lat="47.70678" lon="-0.83126">
        <ele>53.73</ele>
        <time>2017-09-17T06:40:23Z</time>
      </trkpt>
      <trkpt lat="47.707" lon="-0.83124">
        <ele>54.45</ele>
        <time>2017-09-17T06:40:28Z</time>
      </trkpt>
      <trkpt lat="47.70718" lon="-0.83121">
        <ele>55.23</ele>
        <time>2017-09-17T06:40:32Z</time>
      </trkpt>
      <trkpt lat="47.70736" lon="-0.83118">
        <ele>55.95</ele>
        <time>2017-09-17T06:40:36Z</time>
      </trkpt>
      <trkpt lat="47.70757" lon="-0.83114">
        <ele>56.73</ele>
        <time>2017-09-17T06:40:41Z</time>
      </trkpt>
      <trkpt lat="47.70777" lon="-0.83111">
        <ele>57.29</ele>
        <time>2017-09-17T06:40:46Z</time>
      </trkpt>
      <trkpt lat="47.70797" lon="-0.83107">
        <ele>57.36</ele>
        <time>2017-09-17T06:40:50Z</time>
      </trkpt>
      <trkpt lat="47.70817" lon="-0.83101">
        <ele>58.35</ele>
        <time>2017-09-17T06:40:55Z</time>
      </trkpt>
      <trkpt lat="47.70836" lon="-0.83093">
        <ele>58.78</ele>
        <time>2017-09-17T06:41:00Z</time>
      </trkpt>
      <trkpt lat="47.70853" lon="-0.83081">
        <ele>58.99</ele>
        <time>2017-09-17T06:41:04Z</time>
      </trkpt>
      <trkpt lat="47.70872" lon="-0.83074">
        <ele>58.86</ele>
        <time>2017-09-17T06:41:09Z</time>
      </trkpt>
      <trkpt lat="47.7089" lon="-0.83068">
        <ele>58.92</ele>
        <time>2017-09-17T06:41:13Z</time>
      </trkpt>
      <trkpt lat="47.70911" lon="-0.8306">
        <ele>59.35</ele>
        <time>2017-09-17T06:41:18Z</time>
      </trkpt>
      <trkpt lat="47.7093" lon="-0.83051">
        <ele>59.49</ele>
        <time>2017-09-17T06:41:22Z</time>
      </trkpt>
      <trkpt lat="47.70951" lon="-0.83046">
        <ele>60.03</ele>
        <time>2017-09-17T06:41:27Z</time>
      </trkpt>
      <trkpt lat="47.70971" lon="-0.83042">
        <ele>60.56</ele>
        <time>2017-09-17T06:41:32Z</time>
      </trkpt>
      <trkpt lat="47.70991" lon="-0.83037">
        <ele>61.57</ele>
        <time>2017-09-17T06:41:38Z</time>
      </trkpt>
      <trkpt lat="47.7101" lon="-0.83031">
        <ele>62.15</ele>
        <time>2017-09-17T06:41:43Z</time>
      </trkpt>
      <trkpt lat="47.71028" lon="-0.83018">
        <ele>62.75</ele>
        <time>2017-09-17T06:41:48Z</time>
      </trkpt>
      <trkpt lat="47.71045" lon="-0.83006">
        <ele>63.45</ele>
        <time>2017-09-17T06:41:53Z</time>
      </trkpt>
      <trkpt lat="47.71066" lon="-0.82993">
        <ele>64.43</ele>
        <time>2017-09-17T06:41:58Z</time>
      </trkpt>
      <trkpt lat="47.71084" lon="-0.82982">
        <ele>65.25</ele>
        <time>2017-09-17T06:42:02Z</time>
      </trkpt>
      <trkpt lat="47.71104" lon="-0.82972">
        <ele>64.82</ele>
        <time>2017-09-17T06:42:07Z</time>
      </trkpt>
      <trkpt lat="47.71122" lon="-0.82975">
        <ele>66.14</ele>
        <time>2017-09-17T06:42:15Z</time>
      </trkpt>
      <trkpt lat="47.71139" lon="-0.82992">
        <ele>69.38</ele>
        <time>2017-09-17T06:42:23Z</time>
      </trkpt>
      <trkpt lat="47.71156" lon="-0.83011">
        <ele>71.98</ele>
        <time>2017-09-17T06:42:29Z</time>
      </trkpt>
      <trkpt lat="47.71169" lon="-0.83029">
        <ele>74.07</ele>
        <time>2017-09-17T06:42:33Z</time>
      </trkpt>
      <trkpt lat="47.71185" lon="-0.83049">
        <ele>75.91</ele>
        <time>2017-09-17T06:42:39Z</time>
      </trkpt>
      <trkpt lat="47.712" lon="-0.83067">
        <ele>79.26</ele>
        <time>2017-09-17T06:42:45Z</time>
      </trkpt>
      <trkpt lat="47.71216" lon="-0.83087">
        <ele>81.57</ele>
        <time>2017-09-17T06:42:50Z</time>
      </trkpt>
      <trkpt lat="47.71232" lon="-0.8311">
        <ele>83.2</ele>
        <time>2017-09-17T06:42:55Z</time>
      </trkpt>
      <trkpt lat="47.71246" lon="-0.83127">
        <ele>84.14</ele>
        <time>2017-09-17T06:42:59Z</time>
      </trkpt>
      <trkpt lat="47.71259" lon="-0.83147">
        <ele>85.27</ele>
        <time>2017-09-17T06:43:03Z</time>
      </trkpt>
      <trkpt lat="47.71275" lon="-0.83163">
        <ele>86.56</ele>
        <time>2017-09-17T06:43:07Z</time>
      </trkpt>
      <trkpt lat="47.71289" lon="-0.83186">
        <ele>87.91</ele>
        <time>2017-09-17T06:43:12Z</time>
      </trkpt>
      <trkpt lat="47.71305" lon="-0.83206">
        <ele>89.86</ele>
        <time>2017-09-17T06:43:17Z</time>
      </trkpt>
      <trkpt lat="47.71323" lon="-0.83224">
        <ele>93.15</ele>
        <time>2017-09-17T06:43:22Z</time>
      </trkpt>
      <trkpt lat="47.71337" lon="-0.83244">
        <ele>96.25</ele>
        <time>2017-09-17T06:43:28Z</time>
      </trkpt>
      <trkpt lat="47.71353" lon="-0.83261">
        <ele>98.63</ele>
        <time>2017-09-17T06:43:33Z</time>
      </trkpt>
      <trkpt lat="47.7137" lon="-0.83278">
        <ele>103.03</ele>
        <time>2017-09-17T06:43:38Z</time>
      </trkpt>
      <trkpt lat="47.71386" lon="-0.83291">
        <ele>107.38</ele>
        <time>2017-09-17T06:43:42Z</time>
      </trkpt>
      <trkpt lat="47.71402" lon="-0.83305">
        <ele>111.86</ele>
        <time>2017-09-17T06:43:47Z</time>
      </trkpt>
      <trkpt lat="47.71416" lon="-0.83323">
        <ele>117.33</ele>
        <time>2017-09-17T06:43:53Z</time>
      </trkpt>
      <trkpt lat="47.71431" lon="-0.8334">
        <ele>122.54</ele>
        <time>2017-09-17T06:43:58Z</time>
      </trkpt>
      <trkpt lat="47.71446" lon="-0.8336">
        <ele>127.83</ele>
        <time>2017-09-17T06:44:04Z</time>
      </trkpt>
      <trkpt lat="47.71461" lon="-0.83379">
        <ele>133.71</ele>
        <time>2017-09-17T06:44:10Z</time>
      </trkpt>
      <trkpt lat="47.71479" lon="-0.83393">
        <ele>137.64</ele>
        <time>2017-09-17T06:44:14Z</time>
      </trkpt>
      <trkpt lat="47.71495" lon="-0.83414">
        <ele>140.19</ele>
        <time>2017-09-17T06:44:20Z</time>
      </trkpt>
      <trkpt lat="47.71511" lon="-0.83437">
        <ele>139.92</ele>
        <time>2017-09-17T06:44:25Z</time>
      </trkpt>
      <trkpt lat="47.71529" lon="-0.83459">
        <ele>134.97</ele>
        <time>2017-09-17T06:44:29Z</time>
      </trkpt>
      <trkpt lat="47.71545" lon="-0.83476">
        <ele>140.02</ele>
        <time>2017-09-17T06:44:34Z</time>
      </trkpt>
      <trkpt lat="47.7156" lon="-0.83496">
        <ele>139.16</ele>
        <time>2017-09-17T06:44:40Z</time>
      </trkpt>
      <trkpt lat="47.71577" lon="-0.83516">
        <ele>143.22</ele>
        <time>2017-09-17T06:44:44Z</time>
      </trkpt>
      <trkpt lat="47.7159" lon="-0.83536">
        <ele>146.13</ele>
        <time>2017-09-17T06:44:47Z</time>
      </trkpt>
      <trkpt lat="47.71604" lon="-0.83555">
        <ele>149.13</ele>
        <time>2017-09-17T06:44:50Z</time>
      </trkpt>
      <trkpt lat="47.71623" lon="-0.83578">
        <ele>152.97</ele>
        <time>2017-09-17T06:44:54Z</time>
      </trkpt>
      <trkpt lat="47.71641" lon="-0.83599">
        <ele>155.13</ele>
        <time>2017-09-17T06:44:58Z</time>
      </trkpt>
      <trkpt lat="47.71658" lon="-0.83609">
        <ele>156.94</ele>
        <time>2017-09-17T06:45:01Z</time>
      </trkpt>
      <trkpt lat="47.71676" lon="-0.83621">
        <ele>159.1</ele>
        <time>2017-09-17T06:45:04Z</time>
      </trkpt>
      <trkpt lat="47.71697" lon="-0.83638">
        <ele>162.79</ele>
        <time>2017-09-17T06:45:08Z</time>
      </trkpt>
      <trkpt lat="47.71717" lon="-0.83655">
        <ele>166.98</ele>
        <time>2017-09-17T06:45:12Z</time>
      </trkpt>
      <trkpt lat="47.71735" lon="-0.83673">
        <ele>170.2</ele>
        <time>2017-09-17T06:45:16Z</time>
      </trkpt>
      <trkpt lat="47.71752" lon="-0.83689">
        <ele>173.71</ele>
        <time>2017-09-17T06:45:20Z</time>
      </trkpt>
      <trkpt lat="47.71768" lon="-0.83704">
        <ele>177.56</ele>
        <time>2017-09-17T06:45:24Z</time>
      </trkpt>
      <trkpt lat="47.71782" lon="-0.83726">
        <ele>182.41</ele>
        <time>2017-09-17T06:45:29Z</time>
      </trkpt>
      <trkpt lat="47.71795" lon="-0.83752">
        <ele>185.88</ele>
        <time>2017-09-17T06:45:33Z</time>
      </trkpt>
      <trkpt lat="47.71806" lon="-0.83773">
        <ele>188.57</ele>
        <time>2017-09-17T06:45:37Z</time>
      </trkpt>
      <trkpt lat="47.71821" lon="-0.83798">
        <ele>191.81</ele>
        <time>2017-09-17T06:45:42Z</time>
      </trkpt>
      <trkpt lat="47.71832" lon="-0.83819">
        <ele>194.62</ele>
        <time>2017-09-17T06:45:46Z</time>
      </trkpt>
      <trkpt lat="47.71846" lon="-0.83844">
        <ele>197.5</ele>
        <time>2017-09-17T06:45:50Z</time>
      </trkpt>
      <trkpt lat="47.71861" lon="-0.83867">
        <ele>199.83</ele>
        <time>2017-09-17T06:45:54Z</time>
      </trkpt>
      <trkpt lat="47.71877" lon="-0.83884">
        <ele>202.29</ele>
        <time>2017-09-17T06:45:58Z</time>
      </trkpt>
      <trkpt lat="47.71895" lon="-0.83903">
        <ele>204.65</ele>
        <time>2017-09-17T06:46:02Z</time>
      </trkpt>
      <trkpt lat="47.71911" lon="-0.83918">
        <ele>206.54</ele>
        <time>2017-09-17T06:46:05Z</time>
      </trkpt>
      <trkpt lat="47.71931" lon="-0.83936">
        <ele>207.95</ele>
        <time>2017-09-17T06:46:08Z</time>
      </trkpt>
      <trkpt lat="47.71952" lon="-0.8395">
        <ele>209.23</ele>
        <time>2017-09-17T06:46:11Z</time>
      </trkpt>
      <trkpt lat="47.71969" lon="-0.83961">
        <ele>210.98</ele>
        <time>2017-09-17T06:46:14Z</time>
      </trkpt>
      <trkpt lat="47.71989" lon="-0.83977">
        <ele>213.52</ele>
        <time>2017-09-17T06:46:18Z</time>
      </trkpt>
      <trkpt lat="47.72012" lon="-0.83989">
        <ele>216.02</ele>
        <time>2017-09-17T06:46:22Z</time>
      </trkpt>
      <trkpt lat="47.72032" lon="-0.84">
        <ele>219.02</ele>
        <time>2017-09-17T06:46:26Z</time>
      </trkpt>
      <trkpt lat="47.7205" lon="-0.84011">
        <ele>222.38</ele>
        <time>2017-09-17T06:46:30Z</time>
      </trkpt>
      <trkpt lat="47.72071" lon="-0.84018">
        <ele>225.46</ele>
        <time>2017-09-17T06:46:35Z</time>
      </trkpt>
      <trkpt lat="47.72094" lon="-0.83999">
        <ele>227.21</ele>
        <time>2017-09-17T06:46:39Z</time>
      </trkpt>
      <trkpt lat="47.72112" lon="-0.83981">
        <ele>229.51</ele>
        <time>2017-09-17T06:46:43Z</time>
      </trkpt>
      <trkpt lat="47.72132" lon="-0.83967">
        <ele>232.28</ele>
        <time>2017-09-17T06:46:47Z</time>
      </trkpt>
      <trkpt lat="47.72151" lon="-0.83951">
        <ele>234.29</ele>
        <time>2017-09-17T06:46:50Z</time>
      </trkpt>
      <trkpt lat="47.72168" lon="-0.83929">
        <ele>236.78</ele>
        <time>2017-09-17T06:46:53Z</time>
      </trkpt>
      <trkpt lat="47.72183" lon="-0.83902">
        <ele>239.53</ele>
        <time>2017-09-17T06:46:57Z</time>
      </trkpt>
      <trkpt lat="47.72199" lon="-0.83887">
        <ele>242.42</ele>
        <time>2017-09-17T06:47:01Z</time>
      </trkpt>
      <trkpt lat="47.72219" lon="-0.83872">
        <ele>243.75</ele>
        <time>2017-09-17T06:47:05Z</time>
      </trkpt>
      <trkpt lat="47.72239" lon="-0.83858">
        <ele>246.89</ele>
        <time>2017-09-17T06:47:09Z</time>
      </trkpt>
      <trkpt lat="47.72258" lon="-0.8385">
        <ele>250.65</ele>
        <time>2017-09-17T06:47:15Z</time>
      </trkpt>
      <trkpt lat="47.72275" lon="-0.83839">
        <ele>253.11</ele>
        <time>2017-09-17T06:47:20Z</time>
      </trkpt>
      <trkpt lat="47.72293" lon="-0.83832">
        <ele>254.17</ele>
        <time>2017-09-17T06:47:27Z</time>
      </trkpt>
      <trkpt lat="47.7231" lon="-0.83819">
        <ele>252.37</ele>
        <time>2017-09-17T06:47:35Z</time>
      </trkpt>
      <trkpt lat="47.72328" lon="-0.83811">
        <ele>253.71</ele>
        <time>2017-09-17T06:47:42Z</time>
      </trkpt>
      <trkpt lat="47.72345" lon="-0.83803">
        <ele>254.03</ele>
        <time>2017-09-17T06:47:47Z</time>
      </trkpt>
      <trkpt lat="47.72363" lon="-0.83799">
        <ele>253.31</ele>
        <time>2017-09-17T06:47:51Z</time>
      </trkpt>
      <trkpt lat="47.72381" lon="-0.83795">
        <ele>256.22</ele>
        <time>2017-09-17T06:47:58Z</time>
      </trkpt>
      <trkpt lat="47.72401" lon="-0.83796">
        <ele>261.17</ele>
        <time>2017-09-17T06:48:05Z</time>
      </trkpt>
      <trkpt lat="47.72421" lon="-0.83792">
        <ele>265.03</ele>
        <time>2017-09-17T06:48:11Z</time>
      </trkpt>
      <trkpt lat="47.72441" lon="-0.8379">
        <ele>267.6</ele>
        <time>2017-09-17T06:48:17Z</time>
      </trkpt>
      <trkpt lat="47.72459" lon="-0.83777">
        <ele>270.81</ele>
        <time>2017-09-17T06:48:23Z</time>
      </trkpt>
      <trkpt lat="47.72481" lon="-0.83763">
        <ele>272.02</ele>
        <time>2017-09-17T06:48:28Z</time>
      </trkpt>
      <trkpt lat="47.72501" lon="-0.83765">
        <ele>272.94</ele>
        <time>2017-09-17T06:48:33Z</time>
      </trkpt>
      <trkpt lat="47.72525" lon="-0.83762">
        <ele>271.57</ele>
        <time>2017-09-17T06:48:38Z</time>
      </trkpt>
      <trkpt lat="47.72545" lon="-0.8376">
        <ele>265.98</ele>
        <time>2017-09-17T06:48:42Z</time>
      </trkpt>
      <trkpt lat="47.72564" lon="-0.83754">
        <ele>259.86</ele>
        <time>2017-09-17T06:48:46Z</time>
      </trkpt>
      <trkpt lat="47.72581" lon="-0.83743">
        <ele>252.26</ele>
        <time>2017-09-17T06:48:51Z</time>
      </trkpt>
      <trkpt lat="47.726" lon="-0.8373">
        <ele>243.06</ele>
        <time>2017-09-17T06:48:56Z</time>
      </trkpt>
      <trkpt lat="47.7262" lon="-0.83717">
        <ele>231.45</ele>
        <time>2017-09-17T06:49:02Z</time>
      </trkpt>
      <trkpt lat="47.72637" lon="-0.83706">
        <ele>219.99</ele>
        <time>2017-09-17T06:49:07Z</time>
      </trkpt>
      <trkpt lat="47.72655" lon="-0.83697">
        <ele>208.18</ele>
        <time>2017-09-17T06:49:13Z</time>
      </trkpt>
      <trkpt lat="47.72673" lon="-0.8369">
        <ele>197.82</ele>
        <time>2017-09-17T06:49:19Z</time>
      </trkpt>
      <trkpt lat="47.72691" lon="-0.83678">
        <ele>191.71</ele>
        <time>2017-09-17T06:49:25Z</time>
      </trkpt>
      <trkpt lat="47.72708" lon="-0.83662">
        <ele>186.67</ele>
        <time>2017-09-17T06:49:31Z</time>
      </trkpt>
      <trkpt lat="47.72724" lon="-0.83647">
        <ele>180.01</ele>
        <time>2017-09-17T06:49:38Z</time>
      </trkpt>
      <trkpt lat="47.72743" lon="-0.8364">
        <ele>172.21</ele>
        <time>2017-09-17T06:49:47Z</time>
      </trkpt>
      <trkpt lat="47.72761" lon="-0.83628">
        <ele>166.63</ele>
        <time>2017-09-17T06:49:53Z</time>
      </trkpt>
      <trkpt lat="47.72777" lon="-0.83642">
        <ele>161.42</ele>
        <time>2017-09-17T06:49:59Z</time>
      </trkpt>
      <trkpt lat="47.72785" lon="-0.83673">
        <ele>159.18</ele>
        <time>2017-09-17T06:50:04Z</time>
      </trkpt>
      <trkpt lat="47.72791" lon="-0.83704">
        <ele>156.49</ele>
        <time>2017-09-17T06:50:08Z</time>
      </trkpt>
      <trkpt lat="47.72798" lon="-0.83735">
        <ele>154.9</ele>
        <time>2017-09-17T06:50:12Z</time>
      </trkpt>
      <trkpt lat="47.72804" lon="-0.83768">
        <ele>153.47</ele>
        <time>2017-09-17T06:50:16Z</time>
      </trkpt>
      <trkpt lat="47.72809" lon="-0.83802">
        <ele>152.06</ele>
        <time>2017-09-17T06:50:20Z</time>
      </trkpt>
      <trkpt lat="47.72811" lon="-0.83836">
        <ele>151.03</ele>
        <time>2017-09-17T06:50:24Z</time>
      </trkpt>
      <trkpt lat="47.72819" lon="-0.83867">
        <ele>149.96</ele>
        <time>2017-09-17T06:50:28Z</time>
      </trkpt>
      <trkpt lat="47.72837" lon="-0.83887">
        <ele>148.57</ele>
        <time>2017-09-17T06:50:32Z</time>
      </trkpt>
      <trkpt lat="47.72854" lon="-0.83897">
        <ele>147.27</ele>
        <time>2017-09-17T06:50:35Z</time>
      </trkpt>
      <trkpt lat="47.72871" lon="-0.83907">
        <ele>146.08</ele>
        <time>2017-09-17T06:50:38Z</time>
      </trkpt>
      <trkpt lat="47.7289" lon="-0.83918">
        <ele>144.88</ele>
        <time>2017-09-17T06:50:41Z</time>
      </trkpt>
      <trkpt lat="47.72909" lon="-0.8393">
        <ele>143.5</ele>
        <time>2017-09-17T06:50:44Z</time>
      </trkpt>
      <trkpt lat="47.72928" lon="-0.83939">
        <ele>142.47</ele>
        <time>2017-09-17T06:50:47Z</time>
      </trkpt>
      <trkpt lat="47.72946" lon="-0.83924">
        <ele>141.16</ele>
        <time>2017-09-17T06:50:51Z</time>
      </trkpt>
      <trkpt lat="47.72955" lon="-0.83893">
        <ele>139.5</ele>
        <time>2017-09-17T06:50:55Z</time>
      </trkpt>
      <trkpt lat="47.72963" lon="-0.83862">
        <ele>137.31</ele>
        <time>2017-09-17T06:50:59Z</time>
      </trkpt>
      <trkpt lat="47.72975" lon="-0.83843">
        <ele>136.12</ele>
        <time>2017-09-17T06:51:02Z</time>
      </trkpt>
      <trkpt lat="47.7299" lon="-0.8382">
        <ele>135.31</ele>
        <time>2017-09-17T06:51:06Z</time>
      </trkpt>
      <trkpt lat="47.73005" lon="-0.838">
        <ele>134.15</ele>
        <time>2017-09-17T06:51:11Z</time>
      </trkpt>
      <trkpt lat="47.7302" lon="-0.83779">
        <ele>133.23</ele>
        <time>2017-09-17T06:51:15Z</time>
      </trkpt>
      <trkpt lat="47.73035" lon="-0.83759">
        <ele>132.25</ele>
        <time>2017-09-17T06:51:19Z</time>
      </trkpt>
      <trkpt lat="47.73047" lon="-0.83735">
        <ele>127.26</ele>
        <time>2017-09-17T06:51:23Z</time>
      </trkpt>
      <trkpt lat="47.73058" lon="-0.83709">
        <ele>122.12</ele>
        <time>2017-09-17T06:51:27Z</time>
      </trkpt>
      <trkpt lat="47.73072" lon="-0.83688">
        <ele>117.42</ele>
        <time>2017-09-17T06:51:31Z</time>
      </trkpt>
      <trkpt lat="47.73088" lon="-0.83672">
        <ele>113.62</ele>
        <time>2017-09-17T06:51:35Z</time>
      </trkpt>
      <trkpt lat="47.73101" lon="-0.83651">
        <ele>110.52</ele>
        <time>2017-09-17T06:51:38Z</time>
      </trkpt>
      <trkpt lat="47.73112" lon="-0.83625">
        <ele>106.14</ele>
        <time>2017-09-17T06:51:42Z</time>
      </trkpt>
      <trkpt lat="47.73123" lon="-0.83601">
        <ele>99.15</ele>
        <time>2017-09-17T06:51:46Z</time>
      </trkpt>
      <trkpt lat="47.73134" lon="-0.83573">
        <ele>92.7</ele>
        <time>2017-09-17T06:51:51Z</time>
      </trkpt>
      <trkpt lat="47.73146" lon="-0.83545">
        <ele>88.1</ele>
        <time>2017-09-17T06:51:56Z</time>
      </trkpt>
      <trkpt lat="47.73156" lon="-0.83516">
        <ele>83.25</ele>
        <time>2017-09-17T06:52:01Z</time>
      </trkpt>
      <trkpt lat="47.73167" lon="-0.83493">
        <ele>80.83</ele>
        <time>2017-09-17T06:52:05Z</time>
      </trkpt>
      <trkpt lat="47.73177" lon="-0.83471">
        <ele>78.68</ele>
        <time>2017-09-17T06:52:09Z</time>
      </trkpt>
      <trkpt lat="47.73188" lon="-0.83446">
        <ele>77.28</ele>
        <time>2017-09-17T06:52:13Z</time>
      </trkpt>
      <trkpt lat="47.73199" lon="-0.83419">
        <ele>75.4</ele>
        <time>2017-09-17T06:52:17Z</time>
      </trkpt>
      <trkpt lat="47.73209" lon="-0.8339">
        <ele>73.74</ele>
        <time>2017-09-17T06:52:22Z</time>
      </trkpt>
      <trkpt lat="47.73217" lon="-0.83364">
        <ele>72.53</ele>
        <time>2017-09-17T06:52:27Z</time>
      </trkpt>
      <trkpt lat="47.73226" lon="-0.83338">
        <ele>71.45</ele>
        <time>2017-09-17T06:52:32Z</time>
      </trkpt>
      <trkpt lat="47.73234" lon="-0.8331">
        <ele>70.82</ele>
        <time>2017-09-17T06:52:37Z</time>
      </trkpt>
      <trkpt lat="47.7324" lon="-0.83283">
        <ele>70.4</ele>
        <time>2017-09-17T06:52:42Z</time>
      </trkpt>
      <trkpt lat="47.73247" lon="-0.83255">
        <ele>69.66</ele>
        <time>2017-09-17T06:52:46Z</time>
      </trkpt>
      <trkpt lat="47.73256" lon="-0.83231">
        <ele>68.92</ele>
        <time>2017-09-17T06:52:51Z</time>
      </trkpt>
      <trkpt lat="47.73267" lon="-0.83205">
        <ele>68.98</ele>
        <time>2017-09-17T06:52:57Z</time>
      </trkpt>
      <trkpt lat="47.73271" lon="-0.83174">
        <ele>68.43</ele>
        <time>2017-09-17T06:53:02Z</time>
      </trkpt>
      <trkpt lat="47.73272" lon="-0.83143">
        <ele>67.68</ele>
        <time>2017-09-17T06:53:07Z</time>
      </trkpt>
      <trkpt lat="47.73272" lon="-0.83113">
        <ele>67.38</ele>
        <time>2017-09-17T06:53:13Z</time>
      </trkpt>
      <trkpt lat="47.73276" lon="-0.83087">
        <ele>67.46</ele>
        <time>2017-09-17T06:53:18Z</time>
      </trkpt>
      <trkpt lat="47.73289" lon="-0.83061">
        <ele>66.81</ele>
        <time>2017-09-17T06:53:24Z</time>
      </trkpt>
      <trkpt lat="47.73304" lon="-0.83038">
        <ele>66.22</ele>
        <time>2017-09-17T06:53:29Z</time>
      </trkpt>
      <trkpt lat="47.73318" lon="-0.83019">
        <ele>65.84</ele>
        <time>2017-09-17T06:53:34Z</time>
      </trkpt>
      <trkpt lat="47.73337" lon="-0.83017">
        <ele>65.28</ele>
        <time>2017-09-17T06:53:41Z</time>
      </trkpt>
      <trkpt lat="47.73353" lon="-0.83032">
        <ele>65.36</ele>
        <time>2017-09-17T06:53:46Z</time>
      </trkpt>
      <trkpt lat="47.73371" lon="-0.83048">
        <ele>64.13</ele>
        <time>2017-09-17T06:53:51Z</time>
      </trkpt>
      <trkpt lat="47.7339" lon="-0.83065">
        <ele>63.73</ele>
        <time>2017-09-17T06:53:56Z</time>
      </trkpt>
      <trkpt lat="47.73404" lon="-0.83082">
        <ele>63.3</ele>
        <time>2017-09-17T06:54:00Z</time>
      </trkpt>
      <trkpt lat="47.73421" lon="-0.83102">
        <ele>63.28</ele>
        <time>2017-09-17T06:54:05Z</time>
      </trkpt>
      <trkpt lat="47.73439" lon="-0.8312">
        <ele>63.18</ele>
        <time>2017-09-17T06:54:10Z</time>
      </trkpt>
      <trkpt lat="47.73456" lon="-0.83134">
        <ele>63.08</ele>
        <time>2017-09-17T06:54:15Z</time>
      </trkpt>
      <trkpt lat="47.73472" lon="-0.83148">
        <ele>63.18</ele>
        <time>2017-09-17T06:54:20Z</time>
      </trkpt>
      <trkpt lat="47.7349" lon="-0.83159">
        <ele>63.55</ele>
        <time>2017-09-17T06:54:24Z</time>
      </trkpt>
      <trkpt lat="47.73509" lon="-0.83171">
        <ele>63.38</ele>
        <time>2017-09-17T06:54:29Z</time>
      </trkpt>
      <trkpt lat="47.73526" lon="-0.83182">
        <ele>62.98</ele>
        <time>2017-09-17T06:54:33Z</time>
      </trkpt>
      <trkpt lat="47.73545" lon="-0.83198">
        <ele>63.08</ele>
        <time>2017-09-17T06:54:38Z</time>
      </trkpt>
      <trkpt lat="47.73562" lon="-0.83191">
        <ele>63.37</ele>
        <time>2017-09-17T06:54:43Z</time>
      </trkpt>
      <trkpt lat="47.73581" lon="-0.83174">
        <ele>63.73</ele>
        <time>2017-09-17T06:54:48Z</time>
      </trkpt>
      <trkpt lat="47.73598" lon="-0.83158">
        <ele>63.76</ele>
        <time>2017-09-17T06:54:53Z</time>
      </trkpt>
      <trkpt lat="47.73615" lon="-0.8314">
        <ele>63.94</ele>
        <time>2017-09-17T06:54:58Z</time>
      </trkpt>
      <trkpt lat="47.73629" lon="-0.83119">
        <ele>64.75</ele>
        <time>2017-09-17T06:55:03Z</time>
      </trkpt>
      <trkpt lat="47.73643" lon="-0.83095">
        <ele>65.08</ele>
        <time>2017-09-17T06:55:09Z</time>
      </trkpt>
      <trkpt lat="47.73661" lon="-0.83093">
        <ele>65.2</ele>
        <time>2017-09-17T06:55:18Z</time>
      </trkpt>
      <trkpt lat="47.73645" lon="-0.83109">
        <ele>64.86</ele>
        <time>2017-09-17T06:55:25Z</time>
      </trkpt>
      <trkpt lat="47.73631" lon="-0.83131">
        <ele>64.98</ele>
        <time>2017-09-17T06:55:30Z</time>
      </trkpt>
      <trkpt lat="47.73618" lon="-0.83152">
        <ele>65.25</ele>
        <time>2017-09-17T06:55:34Z</time>
      </trkpt>
      <trkpt lat="47.73602" lon="-0.83171">
        <ele>65.65</ele>
        <time>2017-09-17T06:55:38Z</time>
      </trkpt>
      <trkpt lat="47.73583" lon="-0.83188">
        <ele>65.78</ele>
        <time>2017-09-17T06:55:42Z</time>
      </trkpt>
      <trkpt lat="47.73564" lon="-0.83207">
        <ele>66.05</ele>
        <time>2017-09-17T06:55:46Z</time>
      </trkpt>
      <trkpt lat="47.73544" lon="-0.83227">
        <ele>65.78</ele>
        <time>2017-09-17T06:55:50Z</time>
      </trkpt>
      <trkpt lat="47.73529" lon="-0.83242">
        <ele>65.76</ele>
        <time>2017-09-17T06:55:53Z</time>
      </trkpt>
      <trkpt lat="47.73513" lon="-0.83255">
        <ele>65.62</ele>
        <time>2017-09-17T06:55:56Z</time>
      </trkpt>
      <trkpt lat="47.73498" lon="-0.83271">
        <ele>65.56</ele>
        <time>2017-09-17T06:55:59Z</time>
      </trkpt>
      <trkpt lat="47.73482" lon="-0.83285">
        <ele>65.67</ele>
        <time>2017-09-17T06:56:02Z</time>
      </trkpt>
      <trkpt lat="47.73466" lon="-0.83299">
        <ele>65.6</ele>
        <time>2017-09-17T06:56:05Z</time>
      </trkpt>
      <trkpt lat="47.73447" lon="-0.83319">
        <ele>66.04</ele>
        <time>2017-09-17T06:56:09Z</time>
      </trkpt>
      <trkpt lat="47.73427" lon="-0.83339">
        <ele>65.88</ele>
        <time>2017-09-17T06:56:13Z</time>
      </trkpt>
      <trkpt lat="47.73407" lon="-0.83359">
        <ele>65.32</ele>
        <time>2017-09-17T06:56:17Z</time>
      </trkpt>
      <trkpt lat="47.73389" lon="-0.83378">
        <ele>64.63</ele>
        <time>2017-09-17T06:56:21Z</time>
      </trkpt>
      <trkpt lat="47.73371" lon="-0.83398">
        <ele>64.46</ele>
        <time>2017-09-17T06:56:25Z</time>
      </trkpt>
      <trkpt lat="47.73353" lon="-0.83419">
        <ele>64.48</ele>
        <time>2017-09-17T06:56:29Z</time>
      </trkpt>
      <trkpt lat="47.73336" lon="-0.8344">
        <ele>64.96</ele>
        <time>2017-09-17T06:56:33Z</time>
      </trkpt>
      <trkpt lat="47.73319" lon="-0.8346">
        <ele>65.35</ele>
        <time>2017-09-17T06:56:37Z</time>
      </trkpt>
      <trkpt lat="47.73303" lon="-0.8348">
        <ele>65.67</ele>
        <time>2017-09-17T06:56:41Z</time>
      </trkpt>
      <trkpt lat="47.73287" lon="-0.835">
        <ele>65.76</ele>
        <time>2017-09-17T06:56:45Z</time>
      </trkpt>
      <trkpt lat="47.73272" lon="-0.83522">
        <ele>65.88</ele>
        <time>2017-09-17T06:56:49Z</time>
      </trkpt>
      <trkpt lat="47.73257" lon="-0.83544">
        <ele>65.88</ele>
        <time>2017-09-17T06:56:53Z</time>
      </trkpt>
      <trkpt lat="47.73241" lon="-0.83565">
        <ele>66.07</ele>
        <time>2017-09-17T06:56:57Z</time>
      </trkpt>
      <trkpt lat="47.73226" lon="-0.83585">
        <ele>66.29</ele>
        <time>2017-09-17T06:57:01Z</time>
      </trkpt>
      <trkpt lat="47.73211" lon="-0.83604">
        <ele>66.38</ele>
        <time>2017-09-17T06:57:05Z</time>
      </trkpt>
      <trkpt lat="47.73196" lon="-0.83624">
        <ele>66.47</ele>
        <time>2017-09-17T06:57:09Z</time>
      </trkpt>
      <trkpt lat="47.73181" lon="-0.83645">
        <ele>66.28</ele>
        <time>2017-09-17T06:57:13Z</time>
      </trkpt>
      <trkpt lat="47.73165" lon="-0.83665">
        <ele>66.28</ele>
        <time>2017-09-17T06:57:17Z</time>
      </trkpt>
      <trkpt lat="47.7315" lon="-0.83684">
        <ele>66</ele>
        <time>2017-09-17T06:57:21Z</time>
      </trkpt>
      <trkpt lat="47.73134" lon="-0.83706">
        <ele>66.08</ele>
        <time>2017-09-17T06:57:25Z</time>
      </trkpt>
      <trkpt lat="47.73119" lon="-0.83728">
        <ele>65.88</ele>
        <time>2017-09-17T06:57:29Z</time>
      </trkpt>
      <trkpt lat="47.73104" lon="-0.83749">
        <ele>66.39</ele>
        <time>2017-09-17T06:57:33Z</time>
      </trkpt>
      <trkpt lat="47.73088" lon="-0.8377">
        <ele>66.77</ele>
        <time>2017-09-17T06:57:37Z</time>
      </trkpt>
      <trkpt lat="47.73072" lon="-0.83792">
        <ele>66.5</ele>
        <time>2017-09-17T06:57:41Z</time>
      </trkpt>
      <trkpt lat="47.73057" lon="-0.83813">
        <ele>66.28</ele>
        <time>2017-09-17T06:57:45Z</time>
      </trkpt>
      <trkpt lat="47.73041" lon="-0.83834">
        <ele>66.75</ele>
        <time>2017-09-17T06:57:49Z</time>
      </trkpt>
      <trkpt lat="47.73025" lon="-0.83855">
        <ele>67.05</ele>
        <time>2017-09-17T06:57:53Z</time>
      </trkpt>
      <trkpt lat="47.73009" lon="-0.83876">
        <ele>67.81</ele>
        <time>2017-09-17T06:57:57Z</time>
      </trkpt>
      <trkpt lat="47.72994" lon="-0.83895">
        <ele>68.98</ele>
        <time>2017-09-17T06:58:01Z</time>
      </trkpt>
      <trkpt lat="47.72978" lon="-0.83916">
        <ele>69.85</ele>
        <time>2017-09-17T06:58:05Z</time>
      </trkpt>
      <trkpt lat="47.72962" lon="-0.83938">
        <ele>70.43</ele>
        <time>2017-09-17T06:58:09Z</time>
      </trkpt>
      <trkpt lat="47.72947" lon="-0.83959">
        <ele>70.08</ele>
        <time>2017-09-17T06:58:13Z</time>
      </trkpt>
      <trkpt lat="47.72933" lon="-0.83976">
        <ele>69.78</ele>
        <time>2017-09-17T06:58:18Z</time>
      </trkpt>
      <trkpt lat="47.72918" lon="-0.83999">
        <ele>69.56</ele>
        <time>2017-09-17T06:58:24Z</time>
      </trkpt>
      <trkpt lat="47.72904" lon="-0.84019">
        <ele>69.28</ele>
        <time>2017-09-17T06:58:29Z</time>
      </trkpt>
      <trkpt lat="47.7289" lon="-0.84037">
        <ele>69</ele>
        <time>2017-09-17T06:58:33Z</time>
      </trkpt>
      <trkpt lat="47.72875" lon="-0.84058">
        <ele>68.6</ele>
        <time>2017-09-17T06:58:37Z</time>
      </trkpt>
      <trkpt lat="47.72861" lon="-0.84076">
        <ele>68.32</ele>
        <time>2017-09-17T06:58:41Z</time>
      </trkpt>
      <trkpt lat="47.72845" lon="-0.84093">
        <ele>67.69</ele>
        <time>2017-09-17T06:58:45Z</time>
      </trkpt>
      <trkpt lat="47.72827" lon="-0.84111">
        <ele>67.2</ele>
        <time>2017-09-17T06:58:49Z</time>
      </trkpt>
      <trkpt lat="47.7281" lon="-0.84132">
        <ele>67.1</ele>
        <time>2017-09-17T06:58:53Z</time>
      </trkpt>
      <trkpt lat="47.72792" lon="-0.84151">
        <ele>66.68</ele>
        <time>2017-09-17T06:58:57Z</time>
      </trkpt>
      <trkpt lat="47.72774" lon="-0.84169">
        <ele>66.3</ele>
        <time>2017-09-17T06:59:01Z</time>
      </trkpt>
      <trkpt lat="47.72754" lon="-0.84187">
        <ele>66</ele>
        <time>2017-09-17T06:59:05Z</time>
      </trkpt>
      <trkpt lat="47.72734" lon="-0.84203">
        <ele>65.7</ele>
        <time>2017-09-17T06:59:09Z</time>
      </trkpt>
      <trkpt lat="47.72718" lon="-0.84215">
        <ele>65.48</ele>
        <time>2017-09-17T06:59:12Z</time>
      </trkpt>
      <trkpt lat="47.727" lon="-0.84227">
        <ele>65.58</ele>
        <time>2017-09-17T06:59:15Z</time>
      </trkpt>
      <trkpt lat="47.7268" lon="-0.8424">
        <ele>65.11</ele>
        <time>2017-09-17T06:59:19Z</time>
      </trkpt>
      <trkpt lat="47.72657" lon="-0.84252">
        <ele>64.82</ele>
        <time>2017-09-17T06:59:23Z</time>
      </trkpt>
      <trkpt lat="47.7264" lon="-0.84263">
        <ele>64.77</ele>
        <time>2017-09-17T06:59:26Z</time>
      </trkpt>
      <trkpt lat="47.72617" lon="-0.84274">
        <ele>64.6</ele>
        <time>2017-09-17T06:59:30Z</time>
      </trkpt>
      <trkpt lat="47.72594" lon="-0.84282">
        <ele>64.21</ele>
        <time>2017-09-17T06:59:34Z</time>
      </trkpt>
      <trkpt lat="47.72573" lon="-0.8429">
        <ele>64.18</ele>
        <time>2017-09-17T06:59:37Z</time>
      </trkpt>
      <trkpt lat="47.72555" lon="-0.84295">
        <ele>63.72</ele>
        <time>2017-09-17T06:59:40Z</time>
      </trkpt>
      <trkpt lat="47.72533" lon="-0.84301">
        <ele>63.42</ele>
        <time>2017-09-17T06:59:43Z</time>
      </trkpt>
      <trkpt lat="47.72512" lon="-0.84307">
        <ele>62.54</ele>
        <time>2017-09-17T06:59:46Z</time>
      </trkpt>
      <trkpt lat="47.72493" lon="-0.84312">
        <ele>61.91</ele>
        <time>2017-09-17T06:59:49Z</time>
      </trkpt>
      <trkpt lat="47.7247" lon="-0.84316">
        <ele>61.01</ele>
        <time>2017-09-17T06:59:53Z</time>
      </trkpt>
      <trkpt lat="47.72445" lon="-0.84319">
        <ele>60.7</ele>
        <time>2017-09-17T06:59:57Z</time>
      </trkpt>
      <trkpt lat="47.72424" lon="-0.84322">
        <ele>60.62</ele>
        <time>2017-09-17T07:00:00Z</time>
      </trkpt>
      <trkpt lat="47.72403" lon="-0.84324">
        <ele>60.2</ele>
        <time>2017-09-17T07:00:03Z</time>
      </trkpt>
      <trkpt lat="47.72382" lon="-0.84323">
        <ele>60.02</ele>
        <time>2017-09-17T07:00:06Z</time>
      </trkpt>
      <trkpt lat="47.72359" lon="-0.84318">
        <ele>59.46</ele>
        <time>2017-09-17T07:00:10Z</time>
      </trkpt>
      <trkpt lat="47.7234" lon="-0.84315">
        <ele>58.91</ele>
        <time>2017-09-17T07:00:13Z</time>
      </trkpt>
      <trkpt lat="47.72319" lon="-0.84315">
        <ele>58.42</ele>
        <time>2017-09-17T07:00:16Z</time>
      </trkpt>
      <trkpt lat="47.72298" lon="-0.84313">
        <ele>57.93</ele>
        <time>2017-09-17T07:00:19Z</time>
      </trkpt>
      <trkpt lat="47.72277" lon="-0.84307">
        <ele>57.68</ele>
        <time>2017-09-17T07:00:22Z</time>
      </trkpt>
      <trkpt lat="47.72256" lon="-0.84303">
        <ele>57.78</ele>
        <time>2017-09-17T07:00:25Z</time>
      </trkpt>
      <trkpt lat="47.72235" lon="-0.84296">
        <ele>57.78</ele>
        <time>2017-09-17T07:00:28Z</time>
      </trkpt>
      <trkpt lat="47.72215" lon="-0.84288">
        <ele>58.03</ele>
        <time>2017-09-17T07:00:31Z</time>
      </trkpt>
      <trkpt lat="47.72196" lon="-0.8428">
        <ele>58.45</ele>
        <time>2017-09-17T07:00:34Z</time>
      </trkpt>
      <trkpt lat="47.72176" lon="-0.84271">
        <ele>58.57</ele>
        <time>2017-09-17T07:00:37Z</time>
      </trkpt>
      <trkpt lat="47.72157" lon="-0.84262">
        <ele>58.69</ele>
        <time>2017-09-17T07:00:40Z</time>
      </trkpt>
      <trkpt lat="47.72138" lon="-0.8425">
        <ele>59.05</ele>
        <time>2017-09-17T07:00:43Z</time>
      </trkpt>
      <trkpt lat="47.7212" lon="-0.8424">
        <ele>59.06</ele>
        <time>2017-09-17T07:00:46Z</time>
      </trkpt>
      <trkpt lat="47.72103" lon="-0.84229">
        <ele>59.09</ele>
        <time>2017-09-17T07:00:49Z</time>
      </trkpt>
      <trkpt lat="47.72087" lon="-0.84217">
        <ele>59.26</ele>
        <time>2017-09-17T07:00:52Z</time>
      </trkpt>
      <trkpt lat="47.72066" lon="-0.84203">
        <ele>59.44</ele>
        <time>2017-09-17T07:00:56Z</time>
      </trkpt>
      <trkpt lat="47.72049" lon="-0.84188">
        <ele>59.14</ele>
        <time>2017-09-17T07:00:59Z</time>
      </trkpt>
      <trkpt lat="47.72033" lon="-0.84173">
        <ele>58.8</ele>
        <time>2017-09-17T07:01:02Z</time>
      </trkpt>
      <trkpt lat="47.72017" lon="-0.84159">
        <ele>59.05</ele>
        <time>2017-09-17T07:01:05Z</time>
      </trkpt>
      <trkpt lat="47.71997" lon="-0.84143">
        <ele>59.36</ele>
        <time>2017-09-17T07:01:09Z</time>
      </trkpt>
      <trkpt lat="47.71977" lon="-0.84127">
        <ele>60.11</ele>
        <time>2017-09-17T07:01:13Z</time>
      </trkpt>
      <trkpt lat="47.71957" lon="-0.84113">
        <ele>60.48</ele>
        <time>2017-09-17T07:01:17Z</time>
      </trkpt>
      <trkpt lat="47.71939" lon="-0.84096">
        <ele>60.56</ele>
        <time>2017-09-17T07:01:21Z</time>
      </trkpt>
      <trkpt lat="47.71924" lon="-0.84079">
        <ele>60.5</ele>
        <time>2017-09-17T07:01:26Z</time>
      </trkpt>
      <trkpt lat="47.71909" lon="-0.84065">
        <ele>60.32</ele>
        <time>2017-09-17T07:01:31Z</time>
      </trkpt>
      <trkpt lat="47.71892" lon="-0.84052">
        <ele>60.55</ele>
        <time>2017-09-17T07:01:35Z</time>
      </trkpt>
      <trkpt lat="47.71876" lon="-0.84038">
        <ele>60.58</ele>
        <time>2017-09-17T07:01:39Z</time>
      </trkpt>
      <trkpt lat="47.71859" lon="-0.84022">
        <ele>60.96</ele>
        <time>2017-09-17T07:01:43Z</time>
      </trkpt>
      <trkpt lat="47.71842" lon="-0.84009">
        <ele>60.98</ele>
        <time>2017-09-17T07:01:47Z</time>
      </trkpt>
      <trkpt lat="47.71824" lon="-0.83994">
        <ele>61.08</ele>
        <time>2017-09-17T07:01:51Z</time>
      </trkpt>
      <trkpt lat="47.71806" lon="-0.8398">
        <ele>61.27</ele>
        <time>2017-09-17T07:01:55Z</time>
      </trkpt>
      <trkpt lat="47.71788" lon="-0.83964">
        <ele>61.47</ele>
        <time>2017-09-17T07:01:59Z</time>
      </trkpt>
      <trkpt lat="47.71769" lon="-0.83945">
        <ele>62.03</ele>
        <time>2017-09-17T07:02:03Z</time>
      </trkpt>
      <trkpt lat="47.71751" lon="-0.83928">
        <ele>61.98</ele>
        <time>2017-09-17T07:02:07Z</time>
      </trkpt>
      <trkpt lat="47.71733" lon="-0.83912">
        <ele>62.27</ele>
        <time>2017-09-17T07:02:11Z</time>
      </trkpt>
      <trkpt lat="47.71715" lon="-0.83897">
        <ele>62.46</ele>
        <time>2017-09-17T07:02:15Z</time>
      </trkpt>
      <trkpt lat="47.71699" lon="-0.83883">
        <ele>62.3</ele>
        <time>2017-09-17T07:02:19Z</time>
      </trkpt>
      <trkpt lat="47.71681" lon="-0.83868">
        <ele>62.48</ele>
        <time>2017-09-17T07:02:24Z</time>
      </trkpt>
      <trkpt lat="47.71663" lon="-0.8385">
        <ele>62.66</ele>
        <time>2017-09-17T07:02:29Z</time>
      </trkpt>
      <trkpt lat="47.71644" lon="-0.83837">
        <ele>62.78</ele>
        <time>2017-09-17T07:02:33Z</time>
      </trkpt>
      <trkpt lat="47.71626" lon="-0.83822">
        <ele>62.6</ele>
        <time>2017-09-17T07:02:37Z</time>
      </trkpt>
      <trkpt lat="47.71609" lon="-0.83809">
        <ele>62.4</ele>
        <time>2017-09-17T07:02:41Z</time>
      </trkpt>
      <trkpt lat="47.71589" lon="-0.83796">
        <ele>62.47</ele>
        <time>2017-09-17T07:02:45Z</time>
      </trkpt>
      <trkpt lat="47.7157" lon="-0.83785">
        <ele>62.28</ele>
        <time>2017-09-17T07:02:49Z</time>
      </trkpt>
      <trkpt lat="47.71551" lon="-0.83772">
        <ele>62.14</ele>
        <time>2017-09-17T07:02:53Z</time>
      </trkpt>
      <trkpt lat="47.71534" lon="-0.83761">
        <ele>62.82</ele>
        <time>2017-09-17T07:02:56Z</time>
      </trkpt>
      <trkpt lat="47.71513" lon="-0.83748">
        <ele>63.25</ele>
        <time>2017-09-17T07:03:00Z</time>
      </trkpt>
      <trkpt lat="47.71492" lon="-0.83736">
        <ele>63.38</ele>
        <time>2017-09-17T07:03:04Z</time>
      </trkpt>
      <trkpt lat="47.71472" lon="-0.83727">
        <ele>63.64</ele>
        <time>2017-09-17T07:03:08Z</time>
      </trkpt>
      <trkpt lat="47.71449" lon="-0.83717">
        <ele>63.77</ele>
        <time>2017-09-17T07:03:13Z</time>
      </trkpt>
      <trkpt lat="47.71431" lon="-0.83711">
        <ele>63.61</ele>
        <time>2017-09-17T07:03:16Z</time>
      </trkpt>
      <trkpt lat="47.71406" lon="-0.83706">
        <ele>63.28</ele>
        <time>2017-09-17T07:03:20Z</time>
      </trkpt>
      <trkpt lat="47.71386" lon="-0.837">
        <ele>63.36</ele>
        <time>2017-09-17T07:03:24Z</time>
      </trkpt>
      <trkpt lat="47.7137" lon="-0.83716">
        <ele>64.1</ele>
        <time>2017-09-17T07:03:31Z</time>
      </trkpt>
      <trkpt lat="47.7137" lon="-0.83744">
        <ele>63.71</ele>
        <time>2017-09-17T07:03:35Z</time>
      </trkpt>
      <trkpt lat="47.7137" lon="-0.83777">
        <ele>63.4</ele>
        <time>2017-09-17T07:03:40Z</time>
      </trkpt>
      <trkpt lat="47.71369" lon="-0.83809">
        <ele>63.36</ele>
        <time>2017-09-17T07:03:45Z</time>
      </trkpt>
      <trkpt lat="47.71362" lon="-0.83837">
        <ele>63.75</ele>
        <time>2017-09-17T07:03:50Z</time>
      </trkpt>
      <trkpt lat="47.71357" lon="-0.83864">
        <ele>63.98</ele>
        <time>2017-09-17T07:03:55Z</time>
      </trkpt>
      <trkpt lat="47.71371" lon="-0.83886">
        <ele>63.5</ele>
        <time>2017-09-17T07:04:00Z</time>
      </trkpt>
      <trkpt lat="47.71381" lon="-0.83912">
        <ele>62.78</ele>
        <time>2017-09-17T07:04:05Z</time>
      </trkpt>
      <trkpt lat="47.71383" lon="-0.83944">
        <ele>62.69</ele>
        <time>2017-09-17T07:04:11Z</time>
      </trkpt>
      <trkpt lat="47.71386" lon="-0.83973">
        <ele>62.18</ele>
        <time>2017-09-17T07:04:16Z</time>
      </trkpt>
      <trkpt lat="47.71391" lon="-0.84004">
        <ele>62.17</ele>
        <time>2017-09-17T07:04:21Z</time>
      </trkpt>
      <trkpt lat="47.71397" lon="-0.84029">
        <ele>62.11</ele>
        <time>2017-09-17T07:04:25Z</time>
      </trkpt>
      <trkpt lat="47.71402" lon="-0.84061">
        <ele>61.67</ele>
        <time>2017-09-17T07:04:30Z</time>
      </trkpt>
      <trkpt lat="47.71408" lon="-0.84088">
        <ele>61.97</ele>
        <time>2017-09-17T07:04:34Z</time>
      </trkpt>
      <trkpt lat="47.71414" lon="-0.84114">
        <ele>62.61</ele>
        <time>2017-09-17T07:04:38Z</time>
      </trkpt>
      <trkpt lat="47.71418" lon="-0.8414">
        <ele>63.43</ele>
        <time>2017-09-17T07:04:42Z</time>
      </trkpt>
      <trkpt lat="47.71422" lon="-0.84173">
        <ele>64.23</ele>
        <time>2017-09-17T07:04:47Z</time>
      </trkpt>
      <trkpt lat="47.71424" lon="-0.84203">
        <ele>64.68</ele>
        <time>2017-09-17T07:04:52Z</time>
      </trkpt>
      <trkpt lat="47.71429" lon="-0.84233">
        <ele>65.33</ele>
        <time>2017-09-17T07:04:57Z</time>
      </trkpt>
      <trkpt lat="47.71436" lon="-0.84264">
        <ele>65.7</ele>
        <time>2017-09-17T07:05:02Z</time>
      </trkpt>
      <trkpt lat="47.71444" lon="-0.84289">
        <ele>65.76</ele>
        <time>2017-09-17T07:05:06Z</time>
      </trkpt>
      <trkpt lat="47.71455" lon="-0.84317">
        <ele>66.33</ele>
        <time>2017-09-17T07:05:11Z</time>
      </trkpt>
      <trkpt lat="47.71464" lon="-0.8434">
        <ele>67.03</ele>
        <time>2017-09-17T07:05:15Z</time>
      </trkpt>
      <trkpt lat="47.71474" lon="-0.84364">
        <ele>67.55</ele>
        <time>2017-09-17T07:05:19Z</time>
      </trkpt>
      <trkpt lat="47.71484" lon="-0.84389">
        <ele>67.51</ele>
        <time>2017-09-17T07:05:23Z</time>
      </trkpt>
      <trkpt lat="47.71494" lon="-0.84416">
        <ele>67</ele>
        <time>2017-09-17T07:05:27Z</time>
      </trkpt>
      <trkpt lat="47.71502" lon="-0.84442">
        <ele>66.88</ele>
        <time>2017-09-17T07:05:31Z</time>
      </trkpt>
      <trkpt lat="47.71514" lon="-0.8447">
        <ele>66.48</ele>
        <time>2017-09-17T07:05:36Z</time>
      </trkpt>
      <trkpt lat="47.71525" lon="-0.84499">
        <ele>66.39</ele>
        <time>2017-09-17T07:05:41Z</time>
      </trkpt>
      <trkpt lat="47.71536" lon="-0.84525">
        <ele>66.26</ele>
        <time>2017-09-17T07:05:45Z</time>
      </trkpt>
      <trkpt lat="47.71546" lon="-0.84551">
        <ele>66.07</ele>
        <time>2017-09-17T07:05:49Z</time>
      </trkpt>
      <trkpt lat="47.71557" lon="-0.84576">
        <ele>66.19</ele>
        <time>2017-09-17T07:05:53Z</time>
      </trkpt>
      <trkpt lat="47.7157" lon="-0.846">
        <ele>66.08</ele>
        <time>2017-09-17T07:05:57Z</time>
      </trkpt>
      <trkpt lat="47.7158" lon="-0.84624">
        <ele>66.39</ele>
        <time>2017-09-17T07:06:01Z</time>
      </trkpt>
      <trkpt lat="47.71588" lon="-0.84654">
        <ele>66.93</ele>
        <time>2017-09-17T07:06:06Z</time>
      </trkpt>
      <trkpt lat="47.71585" lon="-0.84683">
        <ele>67.85</ele>
        <time>2017-09-17T07:06:12Z</time>
      </trkpt>
      <trkpt lat="47.71581" lon="-0.84714">
        <ele>68.81</ele>
        <time>2017-09-17T07:06:19Z</time>
      </trkpt>
      <trkpt lat="47.71582" lon="-0.84742">
        <ele>69.83</ele>
        <time>2017-09-17T07:06:24Z</time>
      </trkpt>
      <trkpt lat="47.71579" lon="-0.8477">
        <ele>70.18</ele>
        <time>2017-09-17T07:06:30Z</time>
      </trkpt>
      <trkpt lat="47.71577" lon="-0.84799">
        <ele>70.66</ele>
        <time>2017-09-17T07:06:36Z</time>
      </trkpt>
      <trkpt lat="47.71572" lon="-0.8483">
        <ele>70.78</ele>
        <time>2017-09-17T07:06:42Z</time>
      </trkpt>
      <trkpt lat="47.71568" lon="-0.84862">
        <ele>70.4</ele>
        <time>2017-09-17T07:06:48Z</time>
      </trkpt>
      <trkpt lat="47.71569" lon="-0.84895">
        <ele>71.05</ele>
        <time>2017-09-17T07:06:53Z</time>
      </trkpt>
      <trkpt lat="47.7157" lon="-0.84927">
        <ele>72.3</ele>
        <time>2017-09-17T07:06:58Z</time>
      </trkpt>
      <trkpt lat="47.71573" lon="-0.84959">
        <ele>73.53</ele>
        <time>2017-09-17T07:07:03Z</time>
      </trkpt>
      <trkpt lat="47.71579" lon="-0.8499">
        <ele>73.6</ele>
        <time>2017-09-17T07:07:08Z</time>
      </trkpt>
      <trkpt lat="47.71585" lon="-0.8502">
        <ele>73.83</ele>
        <time>2017-09-17T07:07:13Z</time>
      </trkpt>
      <trkpt lat="47.71589" lon="-0.85048">
        <ele>73.71</ele>
        <time>2017-09-17T07:07:18Z</time>
      </trkpt>
      <trkpt lat="47.71593" lon="-0.8508">
        <ele>73.92</ele>
        <time>2017-09-17T07:07:23Z</time>
      </trkpt>
      <trkpt lat="47.71598" lon="-0.8511">
        <ele>74.16</ele>
        <time>2017-09-17T07:07:27Z</time>
      </trkpt>
      <trkpt lat="47.71599" lon="-0.8514">
        <ele>73.98</ele>
        <time>2017-09-17T07:07:31Z</time>
      </trkpt>
      <trkpt lat="47.71599" lon="-0.85167">
        <ele>73.7</ele>
        <time>2017-09-17T07:07:35Z</time>
      </trkpt>
      <trkpt lat="47.716" lon="-0.85196">
        <ele>73.18</ele>
        <time>2017-09-17T07:07:39Z</time>
      </trkpt>
      <trkpt lat="47.71606" lon="-0.85227">
        <ele>73.75</ele>
        <time>2017-09-17T07:07:44Z</time>
      </trkpt>
      <trkpt lat="47.71625" lon="-0.85238">
        <ele>73.9</ele>
        <time>2017-09-17T07:07:49Z</time>
      </trkpt>
      <trkpt lat="47.71648" lon="-0.85246">
        <ele>74.55</ele>
        <time>2017-09-17T07:07:53Z</time>
      </trkpt>
      <trkpt lat="47.71669" lon="-0.85255">
        <ele>74.87</ele>
        <time>2017-09-17T07:07:57Z</time>
      </trkpt>
      <trkpt lat="47.71691" lon="-0.85265">
        <ele>75.27</ele>
        <time>2017-09-17T07:08:01Z</time>
      </trkpt>
      <trkpt lat="47.71712" lon="-0.85275">
        <ele>75.75</ele>
        <time>2017-09-17T07:08:05Z</time>
      </trkpt>
      <trkpt lat="47.71731" lon="-0.85285">
        <ele>76.18</ele>
        <time>2017-09-17T07:08:09Z</time>
      </trkpt>
      <trkpt lat="47.71738" lon="-0.85313">
        <ele>76.88</ele>
        <time>2017-09-17T07:08:15Z</time>
      </trkpt>
      <trkpt lat="47.71732" lon="-0.85342">
        <ele>77.33</ele>
        <time>2017-09-17T07:08:19Z</time>
      </trkpt>
      <trkpt lat="47.71729" lon="-0.85372">
        <ele>77.73</ele>
        <time>2017-09-17T07:08:23Z</time>
      </trkpt>
      <trkpt lat="47.71728" lon="-0.854">
        <ele>77.88</ele>
        <time>2017-09-17T07:08:27Z</time>
      </trkpt>
      <trkpt lat="47.71726" lon="-0.85428">
        <ele>78.25</ele>
        <time>2017-09-17T07:08:31Z</time>
      </trkpt>
      <trkpt lat="47.71725" lon="-0.85455">
        <ele>78.3</ele>
        <time>2017-09-17T07:08:35Z</time>
      </trkpt>
      <trkpt lat="47.71725" lon="-0.85482">
        <ele>78.47</ele>
        <time>2017-09-17T07:08:39Z</time>
      </trkpt>
      <trkpt lat="47.71719" lon="-0.85511">
        <ele>78.48</ele>
        <time>2017-09-17T07:08:44Z</time>
      </trkpt>
      <trkpt lat="47.71715" lon="-0.85543">
        <ele>78.58</ele>
        <time>2017-09-17T07:08:49Z</time>
      </trkpt>
      <trkpt lat="47.71712" lon="-0.8557">
        <ele>78.48</ele>
        <time>2017-09-17T07:08:53Z</time>
      </trkpt>
      <trkpt lat="47.71708" lon="-0.85597">
        <ele>78.2</ele>
        <time>2017-09-17T07:08:57Z</time>
      </trkpt>
      <trkpt lat="47.71706" lon="-0.85628">
        <ele>78.4</ele>
        <time>2017-09-17T07:09:02Z</time>
      </trkpt>
      <trkpt lat="47.71703" lon="-0.85658">
        <ele>78.2</ele>
        <time>2017-09-17T07:09:07Z</time>
      </trkpt>
      <trkpt lat="47.71696" lon="-0.85687">
        <ele>77.71</ele>
        <time>2017-09-17T07:09:12Z</time>
      </trkpt>
      <trkpt lat="47.71681" lon="-0.85703">
        <ele>78.07</ele>
        <time>2017-09-17T07:09:17Z</time>
      </trkpt>
      <trkpt lat="47.71663" lon="-0.85715">
        <ele>78.16</ele>
        <time>2017-09-17T07:09:22Z</time>
      </trkpt>
      <trkpt lat="47.71644" lon="-0.85726">
        <ele>77.98</ele>
        <time>2017-09-17T07:09:27Z</time>
      </trkpt>
      <trkpt lat="47.71624" lon="-0.85736">
        <ele>78.1</ele>
        <time>2017-09-17T07:09:32Z</time>
      </trkpt>
      <trkpt lat="47.71616" lon="-0.85762">
        <ele>78.55</ele>
        <time>2017-09-17T07:09:37Z</time>
      </trkpt>
      <trkpt lat="47.71611" lon="-0.85795">
        <ele>78.68</ele>
        <time>2017-09-17T07:09:42Z</time>
      </trkpt>
      <trkpt lat="47.71612" lon="-0.85826">
        <ele>78.78</ele>
        <time>2017-09-17T07:09:46Z</time>
      </trkpt>
      <trkpt lat="47.71617" lon="-0.85854">
        <ele>78.58</ele>
        <time>2017-09-17T07:09:50Z</time>
      </trkpt>
      <trkpt lat="47.7162" lon="-0.85882">
        <ele>78.85</ele>
        <time>2017-09-17T07:09:54Z</time>
      </trkpt>
      <trkpt lat="47.71625" lon="-0.8591">
        <ele>79.15</ele>
        <time>2017-09-17T07:09:58Z</time>
      </trkpt>
      <trkpt lat="47.7163" lon="-0.85941">
        <ele>79.3</ele>
        <time>2017-09-17T07:10:03Z</time>
      </trkpt>
      <trkpt lat="47.71633" lon="-0.85971">
        <ele>79.58</ele>
        <time>2017-09-17T07:10:08Z</time>
      </trkpt>
      <trkpt lat="47.71636" lon="-0.86">
        <ele>79.52</ele>
        <time>2017-09-17T07:10:13Z</time>
      </trkpt>
      <trkpt lat="47.71629" lon="-0.86029">
        <ele>79.08</ele>
        <time>2017-09-17T07:10:19Z</time>
      </trkpt>
      <trkpt lat="47.71611" lon="-0.8601">
        <ele>79.48</ele>
        <time>2017-09-17T07:10:25Z</time>
      </trkpt>
      <trkpt lat="47.71598" lon="-0.85986">
        <ele>79.28</ele>
        <time>2017-09-17T07:10:29Z</time>
      </trkpt>
      <trkpt lat="47.71584" lon="-0.85961">
        <ele>79.28</ele>
        <time>2017-09-17T07:10:33Z</time>
      </trkpt>
      <trkpt lat="47.7157" lon="-0.85937">
        <ele>79.18</ele>
        <time>2017-09-17T07:10:37Z</time>
      </trkpt>
      <trkpt lat="47.71555" lon="-0.8591">
        <ele>78.98</ele>
        <time>2017-09-17T07:10:41Z</time>
      </trkpt>
      <trkpt lat="47.71541" lon="-0.85887">
        <ele>78.96</ele>
        <time>2017-09-17T07:10:45Z</time>
      </trkpt>
      <trkpt lat="47.71522" lon="-0.859">
        <ele>79.36</ele>
        <time>2017-09-17T07:10:49Z</time>
      </trkpt>
      <trkpt lat="47.71505" lon="-0.85923">
        <ele>79.28</ele>
        <time>2017-09-17T07:10:53Z</time>
      </trkpt>
      <trkpt lat="47.71489" lon="-0.85938">
        <ele>79.1</ele>
        <time>2017-09-17T07:10:56Z</time>
      </trkpt>
      <trkpt lat="47.71472" lon="-0.85953">
        <ele>78.78</ele>
        <time>2017-09-17T07:10:59Z</time>
      </trkpt>
      <trkpt lat="47.71455" lon="-0.85968">
        <ele>78.6</ele>
        <time>2017-09-17T07:11:02Z</time>
      </trkpt>
      <trkpt lat="47.71438" lon="-0.85984">
        <ele>78.22</ele>
        <time>2017-09-17T07:11:05Z</time>
      </trkpt>
      <trkpt lat="47.7142" lon="-0.86001">
        <ele>77.73</ele>
        <time>2017-09-17T07:11:08Z</time>
      </trkpt>
      <trkpt lat="47.71402" lon="-0.86014">
        <ele>77.4</ele>
        <time>2017-09-17T07:11:11Z</time>
      </trkpt>
      <trkpt lat="47.71384" lon="-0.86023">
        <ele>77.02</ele>
        <time>2017-09-17T07:11:14Z</time>
      </trkpt>
      <trkpt lat="47.71364" lon="-0.86028">
        <ele>76.62</ele>
        <time>2017-09-17T07:11:17Z</time>
      </trkpt>
      <trkpt lat="47.71345" lon="-0.86032">
        <ele>76.29</ele>
        <time>2017-09-17T07:11:20Z</time>
      </trkpt>
      <trkpt lat="47.71324" lon="-0.86038">
        <ele>75.63</ele>
        <time>2017-09-17T07:11:23Z</time>
      </trkpt>
      <trkpt lat="47.71302" lon="-0.86044">
        <ele>74.95</ele>
        <time>2017-09-17T07:11:26Z</time>
      </trkpt>
      <trkpt lat="47.71278" lon="-0.86049">
        <ele>73.97</ele>
        <time>2017-09-17T07:11:29Z</time>
      </trkpt>
      <trkpt lat="47.71253" lon="-0.86059">
        <ele>73.06</ele>
        <time>2017-09-17T07:11:32Z</time>
      </trkpt>
      <trkpt lat="47.71228" lon="-0.86074">
        <ele>71.88</ele>
        <time>2017-09-17T07:11:35Z</time>
      </trkpt>
      <trkpt lat="47.71211" lon="-0.8608">
        <ele>70.9</ele>
        <time>2017-09-17T07:11:37Z</time>
      </trkpt>
      <trkpt lat="47.71184" lon="-0.86079">
        <ele>69.84</ele>
        <time>2017-09-17T07:11:40Z</time>
      </trkpt>
      <trkpt lat="47.7116" lon="-0.86072">
        <ele>69.15</ele>
        <time>2017-09-17T07:11:43Z</time>
      </trkpt>
      <trkpt lat="47.71138" lon="-0.86059">
        <ele>68.43</ele>
        <time>2017-09-17T07:11:46Z</time>
      </trkpt>
      <trkpt lat="47.71121" lon="-0.86047">
        <ele>68.3</ele>
        <time>2017-09-17T07:11:49Z</time>
      </trkpt>
      <trkpt lat="47.711" lon="-0.86036">
        <ele>68</ele>
        <time>2017-09-17T07:11:53Z</time>
      </trkpt>
      <trkpt lat="47.71083" lon="-0.86029">
        <ele>67.6</ele>
        <time>2017-09-17T07:11:57Z</time>
      </trkpt>
      <trkpt lat="47.71061" lon="-0.86018">
        <ele>67.2</ele>
        <time>2017-09-17T07:12:02Z</time>
      </trkpt>
      <trkpt lat="47.7104" lon="-0.86018">
        <ele>66.63</ele>
        <time>2017-09-17T07:12:06Z</time>
      </trkpt>
      <trkpt lat="47.71021" lon="-0.86022">
        <ele>66.4</ele>
        <time>2017-09-17T07:12:10Z</time>
      </trkpt>
      <trkpt lat="47.71" lon="-0.86034">
        <ele>65.92</ele>
        <time>2017-09-17T07:12:15Z</time>
      </trkpt>
      <trkpt lat="47.70979" lon="-0.86037">
        <ele>65.8</ele>
        <time>2017-09-17T07:12:19Z</time>
      </trkpt>
      <trkpt lat="47.70959" lon="-0.86032">
        <ele>65.13</ele>
        <time>2017-09-17T07:12:23Z</time>
      </trkpt>
      <trkpt lat="47.70937" lon="-0.86031">
        <ele>64.7</ele>
        <time>2017-09-17T07:12:28Z</time>
      </trkpt>
      <trkpt lat="47.70922" lon="-0.8605">
        <ele>64.4</ele>
        <time>2017-09-17T07:12:32Z</time>
      </trkpt>
      <trkpt lat="47.70907" lon="-0.86076">
        <ele>64.07</ele>
        <time>2017-09-17T07:12:36Z</time>
      </trkpt>
      <trkpt lat="47.70893" lon="-0.86103">
        <ele>63.53</ele>
        <time>2017-09-17T07:12:40Z</time>
      </trkpt>
      <trkpt lat="47.7088" lon="-0.8613">
        <ele>62.93</ele>
        <time>2017-09-17T07:12:44Z</time>
      </trkpt>
      <trkpt lat="47.70866" lon="-0.86158">
        <ele>62.21</ele>
        <time>2017-09-17T07:12:48Z</time>
      </trkpt>
      <trkpt lat="47.70849" lon="-0.86173">
        <ele>61.61</ele>
        <time>2017-09-17T07:12:51Z</time>
      </trkpt>
      <trkpt lat="47.7083" lon="-0.86181">
        <ele>60.93</ele>
        <time>2017-09-17T07:12:54Z</time>
      </trkpt>
      <trkpt lat="47.70812" lon="-0.86188">
        <ele>60.68</ele>
        <time>2017-09-17T07:12:57Z</time>
      </trkpt>
      <trkpt lat="47.70799" lon="-0.86213">
        <ele>60.38</ele>
        <time>2017-09-17T07:13:01Z</time>
      </trkpt>
      <trkpt lat="47.70804" lon="-0.86246">
        <ele>60.56</ele>
        <time>2017-09-17T07:13:05Z</time>
      </trkpt>
      <trkpt lat="47.70811" lon="-0.8628">
        <ele>60.58</ele>
        <time>2017-09-17T07:13:09Z</time>
      </trkpt>
      <trkpt lat="47.70816" lon="-0.86307">
        <ele>60.68</ele>
        <time>2017-09-17T07:13:12Z</time>
      </trkpt>
      <trkpt lat="47.70821" lon="-0.86334">
        <ele>60.58</ele>
        <time>2017-09-17T07:13:15Z</time>
      </trkpt>
      <trkpt lat="47.70824" lon="-0.86362">
        <ele>60.58</ele>
        <time>2017-09-17T07:13:18Z</time>
      </trkpt>
      <trkpt lat="47.70822" lon="-0.8639">
        <ele>60.6</ele>
        <time>2017-09-17T07:13:21Z</time>
      </trkpt>
      <trkpt lat="47.7082" lon="-0.86419">
        <ele>60.48</ele>
        <time>2017-09-17T07:13:24Z</time>
      </trkpt>
      <trkpt lat="47.70819" lon="-0.86451">
        <ele>59.79</ele>
        <time>2017-09-17T07:13:27Z</time>
      </trkpt>
      <trkpt lat="47.70823" lon="-0.8649">
        <ele>57.33</ele>
        <time>2017-09-17T07:13:30Z</time>
      </trkpt>
      <trkpt lat="47.70829" lon="-0.86517">
        <ele>55.6</ele>
        <time>2017-09-17T07:13:32Z</time>
      </trkpt>
      <trkpt lat="47.70835" lon="-0.86544">
        <ele>53.98</ele>
        <time>2017-09-17T07:13:34Z</time>
      </trkpt>
      <trkpt lat="47.70841" lon="-0.86571">
        <ele>52.7</ele>
        <time>2017-09-17T07:13:36Z</time>
      </trkpt>
      <trkpt lat="47.70846" lon="-0.86599">
        <ele>51.78</ele>
        <time>2017-09-17T07:13:38Z</time>
      </trkpt>
      <trkpt lat="47.70853" lon="-0.8663">
        <ele>51.09</ele>
        <time>2017-09-17T07:13:41Z</time>
      </trkpt>
      <trkpt lat="47.70853" lon="-0.8666">
        <ele>50.48</ele>
        <time>2017-09-17T07:13:53Z</time>
      </trkpt>
      <trkpt lat="47.70834" lon="-0.86671">
        <ele>50.28</ele>
        <time>2017-09-17T07:13:59Z</time>
      </trkpt>
      <trkpt lat="47.70814" lon="-0.86676">
        <ele>50.1</ele>
        <time>2017-09-17T07:14:03Z</time>
      </trkpt>
      <trkpt lat="47.70792" lon="-0.86683">
        <ele>49.6</ele>
        <time>2017-09-17T07:14:07Z</time>
      </trkpt>
      <trkpt lat="47.70771" lon="-0.86692">
        <ele>48.81</ele>
        <time>2017-09-17T07:14:12Z</time>
      </trkpt>
      <trkpt lat="47.70758" lon="-0.86715">
        <ele>48.29</ele>
        <time>2017-09-17T07:14:16Z</time>
      </trkpt>
      <trkpt lat="47.70744" lon="-0.86736">
        <ele>47.98</ele>
        <time>2017-09-17T07:14:20Z</time>
      </trkpt>
      <trkpt lat="47.7073" lon="-0.8676">
        <ele>47.7</ele>
        <time>2017-09-17T07:14:24Z</time>
      </trkpt>
      <trkpt lat="47.70716" lon="-0.86786">
        <ele>47.19</ele>
        <time>2017-09-17T07:14:27Z</time>
      </trkpt>
      <trkpt lat="47.70705" lon="-0.86813">
        <ele>47.2</ele>
        <time>2017-09-17T07:14:30Z</time>
      </trkpt>
      <trkpt lat="47.70697" lon="-0.86838">
        <ele>46.92</ele>
        <time>2017-09-17T07:14:33Z</time>
      </trkpt>
      <trkpt lat="47.70689" lon="-0.86865">
        <ele>46.23</ele>
        <time>2017-09-17T07:14:36Z</time>
      </trkpt>
      <trkpt lat="47.70681" lon="-0.86893">
        <ele>45.59</ele>
        <time>2017-09-17T07:14:40Z</time>
      </trkpt>
      <trkpt lat="47.70671" lon="-0.86924">
        <ele>45.12</ele>
        <time>2017-09-17T07:14:44Z</time>
      </trkpt>
      <trkpt lat="47.70662" lon="-0.86946">
        <ele>44.35</ele>
        <time>2017-09-17T07:14:47Z</time>
      </trkpt>
      <trkpt lat="47.7065" lon="-0.86967">
        <ele>43.53</ele>
        <time>2017-09-17T07:14:50Z</time>
      </trkpt>
      <trkpt lat="47.70634" lon="-0.86985">
        <ele>42.83</ele>
        <time>2017-09-17T07:14:53Z</time>
      </trkpt>
      <trkpt lat="47.70619" lon="-0.87006">
        <ele>41.95</ele>
        <time>2017-09-17T07:14:56Z</time>
      </trkpt>
      <trkpt lat="47.70602" lon="-0.87035">
        <ele>40.89</ele>
        <time>2017-09-17T07:14:59Z</time>
      </trkpt>
      <trkpt lat="47.70587" lon="-0.87065">
        <ele>38.69</ele>
        <time>2017-09-17T07:15:02Z</time>
      </trkpt>
      <trkpt lat="47.70573" lon="-0.87086">
        <ele>35.45</ele>
        <time>2017-09-17T07:15:05Z</time>
      </trkpt>
      <trkpt lat="47.70561" lon="-0.87109">
        <ele>33.18</ele>
        <time>2017-09-17T07:15:10Z</time>
      </trkpt>
      <trkpt lat="47.70562" lon="-0.87144">
        <ele>32.41</ele>
        <time>2017-09-17T07:15:14Z</time>
      </trkpt>
      <trkpt lat="47.70562" lon="-0.87174">
        <ele>31.84</ele>
        <time>2017-09-17T07:15:17Z</time>
      </trkpt>
      <trkpt lat="47.70561" lon="-0.87204">
        <ele>31.15</ele>
        <time>2017-09-17T07:15:20Z</time>
      </trkpt>
      <trkpt lat="47.70559" lon="-0.87234">
        <ele>30.82</ele>
        <time>2017-09-17T07:15:23Z</time>
      </trkpt>
      <trkpt lat="47.70556" lon="-0.87264">
        <ele>29.84</ele>
        <time>2017-09-17T07:15:26Z</time>
      </trkpt>
      <trkpt lat="47.70553" lon="-0.87293">
        <ele>29.49</ele>
        <time>2017-09-17T07:15:29Z</time>
      </trkpt>
      <trkpt lat="47.7055" lon="-0.87321">
        <ele>29.38</ele>
        <time>2017-09-17T07:15:32Z</time>
      </trkpt>
      <trkpt lat="47.70548" lon="-0.87354">
        <ele>28.18</ele>
        <time>2017-09-17T07:15:36Z</time>
      </trkpt>
      <trkpt lat="47.70541" lon="-0.87388">
        <ele>26.5</ele>
        <time>2017-09-17T07:15:40Z</time>
      </trkpt>
      <trkpt lat="47.70532" lon="-0.87416">
        <ele>25.63</ele>
        <time>2017-09-17T07:15:43Z</time>
      </trkpt>
      <trkpt lat="47.70522" lon="-0.87443">
        <ele>25.13</ele>
        <time>2017-09-17T07:15:46Z</time>
      </trkpt>
      <trkpt lat="47.70513" lon="-0.87469">
        <ele>24.21</ele>
        <time>2017-09-17T07:15:49Z</time>
      </trkpt>
      <trkpt lat="47.70502" lon="-0.87493">
        <ele>23.04</ele>
        <time>2017-09-17T07:15:52Z</time>
      </trkpt>
      <trkpt lat="47.70489" lon="-0.87515">
        <ele>22.51</ele>
        <time>2017-09-17T07:15:55Z</time>
      </trkpt>
      <trkpt lat="47.70477" lon="-0.87535">
        <ele>22.38</ele>
        <time>2017-09-17T07:15:58Z</time>
      </trkpt>
      <trkpt lat="47.70466" lon="-0.87557">
        <ele>22.2</ele>
        <time>2017-09-17T07:16:01Z</time>
      </trkpt>
      <trkpt lat="47.70453" lon="-0.87576">
        <ele>22</ele>
        <time>2017-09-17T07:16:04Z</time>
      </trkpt>
      <trkpt lat="47.7044" lon="-0.87595">
        <ele>22.08</ele>
        <time>2017-09-17T07:16:07Z</time>
      </trkpt>
      <trkpt lat="47.70424" lon="-0.8762">
        <ele>21.71</ele>
        <time>2017-09-17T07:16:11Z</time>
      </trkpt>
      <trkpt lat="47.7041" lon="-0.87647">
        <ele>21.18</ele>
        <time>2017-09-17T07:16:15Z</time>
      </trkpt>
      <trkpt lat="47.70404" lon="-0.87679">
        <ele>21.5</ele>
        <time>2017-09-17T07:16:19Z</time>
      </trkpt>
      <trkpt lat="47.7042" lon="-0.87694">
        <ele>22.6</ele>
        <time>2017-09-17T07:16:25Z</time>
      </trkpt>
      <trkpt lat="47.7044" lon="-0.87688">
        <ele>22.86</ele>
        <time>2017-09-17T07:16:29Z</time>
      </trkpt>
      <trkpt lat="47.70458" lon="-0.87682">
        <ele>22.96</ele>
        <time>2017-09-17T07:16:32Z</time>
      </trkpt>
      <trkpt lat="47.70481" lon="-0.87681">
        <ele>23.12</ele>
        <time>2017-09-17T07:16:36Z</time>
      </trkpt>
      <trkpt lat="47.70493" lon="-0.87701">
        <ele>21.8</ele>
        <time>2017-09-17T07:16:45Z</time>
      </trkpt>
      <trkpt lat="47.70506" lon="-0.8768">
        <ele>20.16</ele>
        <time>2017-09-17T07:21:21Z</time>
      </trkpt>
      <trkpt lat="47.70528" lon="-0.87683">
        <ele>20.55</ele>
        <time>2017-09-17T07:21:25Z</time>
      </trkpt>
      <trkpt lat="47.7055" lon="-0.87683">
        <ele>21.23</ele>
        <time>2017-09-17T07:21:29Z</time>
      </trkpt>
      <trkpt lat="47.70573" lon="-0.87679">
        <ele>21.08</ele>
        <time>2017-09-17T07:21:33Z</time>
      </trkpt>
      <trkpt lat="47.70596" lon="-0.87673">
        <ele>20.82</ele>
        <time>2017-09-17T07:21:37Z</time>
      </trkpt>
      <trkpt lat="47.70619" lon="-0.87668">
        <ele>20.78</ele>
        <time>2017-09-17T07:21:41Z</time>
      </trkpt>
      <trkpt lat="47.7064" lon="-0.8767">
        <ele>20.71</ele>
        <time>2017-09-17T07:21:45Z</time>
      </trkpt>
      <trkpt lat="47.70649" lon="-0.87696">
        <ele>21.06</ele>
        <time>2017-09-17T07:21:49Z</time>
      </trkpt>
      <trkpt lat="47.70652" lon="-0.87728">
        <ele>21.45</ele>
        <time>2017-09-17T07:21:53Z</time>
      </trkpt>
      <trkpt lat="47.70654" lon="-0.87759">
        <ele>21.87</ele>
        <time>2017-09-17T07:21:57Z</time>
      </trkpt>
      <trkpt lat="47.70658" lon="-0.87791">
        <ele>21.98</ele>
        <time>2017-09-17T07:22:01Z</time>
      </trkpt>
      <trkpt lat="47.7066" lon="-0.87822">
        <ele>22.16</ele>
        <time>2017-09-17T07:22:05Z</time>
      </trkpt>
      <trkpt lat="47.70662" lon="-0.87854">
        <ele>22.45</ele>
        <time>2017-09-17T07:22:09Z</time>
      </trkpt>
      <trkpt lat="47.70659" lon="-0.87884">
        <ele>23.05</ele>
        <time>2017-09-17T07:22:13Z</time>
      </trkpt>
      <trkpt lat="47.70652" lon="-0.87913">
        <ele>23.45</ele>
        <time>2017-09-17T07:22:17Z</time>
      </trkpt>
      <trkpt lat="47.70646" lon="-0.87941">
        <ele>24.03</ele>
        <time>2017-09-17T07:22:21Z</time>
      </trkpt>
      <trkpt lat="47.70639" lon="-0.8797">
        <ele>24.45</ele>
        <time>2017-09-17T07:22:25Z</time>
      </trkpt>
      <trkpt lat="47.70632" lon="-0.87998">
        <ele>24.95</ele>
        <time>2017-09-17T07:22:29Z</time>
      </trkpt>
      <trkpt lat="47.70625" lon="-0.88027">
        <ele>25.35</ele>
        <time>2017-09-17T07:22:33Z</time>
      </trkpt>
      <trkpt lat="47.70619" lon="-0.88055">
        <ele>25.66</ele>
        <time>2017-09-17T07:22:37Z</time>
      </trkpt>
      <trkpt lat="47.70612" lon="-0.88083">
        <ele>25.96</ele>
        <time>2017-09-17T07:22:41Z</time>
      </trkpt>
      <trkpt lat="47.70605" lon="-0.88111">
        <ele>26.35</ele>
        <time>2017-09-17T07:22:45Z</time>
      </trkpt>
      <trkpt lat="47.70599" lon="-0.8814">
        <ele>26.75</ele>
        <time>2017-09-17T07:22:49Z</time>
      </trkpt>
      <trkpt lat="47.70592" lon="-0.88167">
        <ele>27.15</ele>
        <time>2017-09-17T07:22:53Z</time>
      </trkpt>
      <trkpt lat="47.70586" lon="-0.88195">
        <ele>27.55</ele>
        <time>2017-09-17T07:22:57Z</time>
      </trkpt>
      <trkpt lat="47.7058" lon="-0.88222">
        <ele>27.95</ele>
        <time>2017-09-17T07:23:01Z</time>
      </trkpt>
      <trkpt lat="47.70574" lon="-0.8825">
        <ele>28.25</ele>
        <time>2017-09-17T07:23:05Z</time>
      </trkpt>
      <trkpt lat="47.70567" lon="-0.88278">
        <ele>28.47</ele>
        <time>2017-09-17T07:23:09Z</time>
      </trkpt>
      <trkpt lat="47.70562" lon="-0.88307">
        <ele>28.67</ele>
        <time>2017-09-17T07:23:13Z</time>
      </trkpt>
      <trkpt lat="47.7056" lon="-0.88336">
        <ele>28.87</ele>
        <time>2017-09-17T07:23:17Z</time>
      </trkpt>
      <trkpt lat="47.70561" lon="-0.88366">
        <ele>29.15</ele>
        <time>2017-09-17T07:23:21Z</time>
      </trkpt>
      <trkpt lat="47.70565" lon="-0.88396">
        <ele>29.28</ele>
        <time>2017-09-17T07:23:25Z</time>
      </trkpt>
      <trkpt lat="47.70571" lon="-0.88425">
        <ele>29.28</ele>
        <time>2017-09-17T07:23:29Z</time>
      </trkpt>
      <trkpt lat="47.70581" lon="-0.8845">
        <ele>29.38</ele>
        <time>2017-09-17T07:23:33Z</time>
      </trkpt>
      <trkpt lat="47.70591" lon="-0.88478">
        <ele>29.56</ele>
        <time>2017-09-17T07:23:38Z</time>
      </trkpt>
      <trkpt lat="47.70597" lon="-0.88507">
        <ele>30.05</ele>
        <time>2017-09-17T07:23:43Z</time>
      </trkpt>
      <trkpt lat="47.70599" lon="-0.88539">
        <ele>30.65</ele>
        <time>2017-09-17T07:23:48Z</time>
      </trkpt>
      <trkpt lat="47.70596" lon="-0.88569">
        <ele>31.45</ele>
        <time>2017-09-17T07:23:53Z</time>
      </trkpt>
      <trkpt lat="47.70593" lon="-0.886">
        <ele>31.95</ele>
        <time>2017-09-17T07:23:58Z</time>
      </trkpt>
      <trkpt lat="47.70589" lon="-0.88627">
        <ele>32.26</ele>
        <time>2017-09-17T07:24:02Z</time>
      </trkpt>
      <trkpt lat="47.70585" lon="-0.88656">
        <ele>32.18</ele>
        <time>2017-09-17T07:24:06Z</time>
      </trkpt>
      <trkpt lat="47.70578" lon="-0.88689">
        <ele>31.8</ele>
        <time>2017-09-17T07:24:10Z</time>
      </trkpt>
      <trkpt lat="47.70571" lon="-0.88715">
        <ele>31.31</ele>
        <time>2017-09-17T07:24:13Z</time>
      </trkpt>
      <trkpt lat="47.70564" lon="-0.88741">
        <ele>31</ele>
        <time>2017-09-17T07:24:16Z</time>
      </trkpt>
      <trkpt lat="47.70557" lon="-0.88765">
        <ele>30.8</ele>
        <time>2017-09-17T07:24:19Z</time>
      </trkpt>
      <trkpt lat="47.70551" lon="-0.88791">
        <ele>30.7</ele>
        <time>2017-09-17T07:24:22Z</time>
      </trkpt>
      <trkpt lat="47.70546" lon="-0.88817">
        <ele>31.03</ele>
        <time>2017-09-17T07:24:25Z</time>
      </trkpt>
      <trkpt lat="47.7054" lon="-0.88849">
        <ele>31.35</ele>
        <time>2017-09-17T07:24:29Z</time>
      </trkpt>
      <trkpt lat="47.70536" lon="-0.8888">
        <ele>31.75</ele>
        <time>2017-09-17T07:24:33Z</time>
      </trkpt>
      <trkpt lat="47.70532" lon="-0.88909">
        <ele>32.16</ele>
        <time>2017-09-17T07:24:37Z</time>
      </trkpt>
      <trkpt lat="47.70527" lon="-0.88937">
        <ele>32.55</ele>
        <time>2017-09-17T07:24:41Z</time>
      </trkpt>
      <trkpt lat="47.70524" lon="-0.88966">
        <ele>32.95</ele>
        <time>2017-09-17T07:24:45Z</time>
      </trkpt>
      <trkpt lat="47.7052" lon="-0.88995">
        <ele>33.26</ele>
        <time>2017-09-17T07:24:49Z</time>
      </trkpt>
      <trkpt lat="47.70518" lon="-0.89025">
        <ele>33.38</ele>
        <time>2017-09-17T07:24:53Z</time>
      </trkpt>
      <trkpt lat="47.70518" lon="-0.89055">
        <ele>33.57</ele>
        <time>2017-09-17T07:24:57Z</time>
      </trkpt>
      <trkpt lat="47.70522" lon="-0.89085">
        <ele>34.05</ele>
        <time>2017-09-17T07:25:01Z</time>
      </trkpt>
      <trkpt lat="47.70525" lon="-0.89116">
        <ele>34.26</ele>
        <time>2017-09-17T07:25:05Z</time>
      </trkpt>
      <trkpt lat="47.70529" lon="-0.89148">
        <ele>34.47</ele>
        <time>2017-09-17T07:25:09Z</time>
      </trkpt>
      <trkpt lat="47.70534" lon="-0.89179">
        <ele>34.76</ele>
        <time>2017-09-17T07:25:13Z</time>
      </trkpt>
      <trkpt lat="47.70538" lon="-0.89209">
        <ele>34.68</ele>
        <time>2017-09-17T07:25:17Z</time>
      </trkpt>
      <trkpt lat="47.70541" lon="-0.8924">
        <ele>34.68</ele>
        <time>2017-09-17T07:25:21Z</time>
      </trkpt>
      <trkpt lat="47.70544" lon="-0.89269">
        <ele>34.68</ele>
        <time>2017-09-17T07:25:25Z</time>
      </trkpt>
      <trkpt lat="47.70548" lon="-0.89298">
        <ele>34.96</ele>
        <time>2017-09-17T07:25:29Z</time>
      </trkpt>
      <trkpt lat="47.70565" lon="-0.89313">
        <ele>35.35</ele>
        <time>2017-09-17T07:25:35Z</time>
      </trkpt>
      <trkpt lat="47.70584" lon="-0.893">
        <ele>35.95</ele>
        <time>2017-09-17T07:25:39Z</time>
      </trkpt>
      <trkpt lat="47.70605" lon="-0.89287">
        <ele>36.33</ele>
        <time>2017-09-17T07:25:43Z</time>
      </trkpt>
      <trkpt lat="47.70627" lon="-0.89273">
        <ele>36.85</ele>
        <time>2017-09-17T07:25:47Z</time>
      </trkpt>
      <trkpt lat="47.70643" lon="-0.89259">
        <ele>36.7</ele>
        <time>2017-09-17T07:25:50Z</time>
      </trkpt>
      <trkpt lat="47.7066" lon="-0.89245">
        <ele>36.58</ele>
        <time>2017-09-17T07:25:53Z</time>
      </trkpt>
      <trkpt lat="47.70678" lon="-0.89237">
        <ele>36.58</ele>
        <time>2017-09-17T07:25:56Z</time>
      </trkpt>
      <trkpt lat="47.70696" lon="-0.89232">
        <ele>36.67</ele>
        <time>2017-09-17T07:25:59Z</time>
      </trkpt>
      <trkpt lat="47.70715" lon="-0.89228">
        <ele>36.78</ele>
        <time>2017-09-17T07:26:02Z</time>
      </trkpt>
      <trkpt lat="47.70733" lon="-0.89225">
        <ele>36.94</ele>
        <time>2017-09-17T07:26:05Z</time>
      </trkpt>
      <trkpt lat="47.7075" lon="-0.89218">
        <ele>37.25</ele>
        <time>2017-09-17T07:26:08Z</time>
      </trkpt>
      <trkpt lat="47.70768" lon="-0.89213">
        <ele>37.55</ele>
        <time>2017-09-17T07:26:11Z</time>
      </trkpt>
      <trkpt lat="47.70786" lon="-0.89207">
        <ele>37.75</ele>
        <time>2017-09-17T07:26:14Z</time>
      </trkpt>
      <trkpt lat="47.70804" lon="-0.89201">
        <ele>37.95</ele>
        <time>2017-09-17T07:26:17Z</time>
      </trkpt>
      <trkpt lat="47.70822" lon="-0.89197">
        <ele>38.17</ele>
        <time>2017-09-17T07:26:20Z</time>
      </trkpt>
      <trkpt lat="47.7084" lon="-0.89194">
        <ele>38.28</ele>
        <time>2017-09-17T07:26:23Z</time>
      </trkpt>
      <trkpt lat="47.70863" lon="-0.89193">
        <ele>38.4</ele>
        <time>2017-09-17T07:26:27Z</time>
      </trkpt>
      <trkpt lat="47.70881" lon="-0.89193">
        <ele>38.2</ele>
        <time>2017-09-17T07:26:30Z</time>
      </trkpt>
      <trkpt lat="47.70899" lon="-0.89194">
        <ele>38.08</ele>
        <time>2017-09-17T07:26:33Z</time>
      </trkpt>
      <trkpt lat="47.70923" lon="-0.89195">
        <ele>37.8</ele>
        <time>2017-09-17T07:26:37Z</time>
      </trkpt>
      <trkpt lat="47.70944" lon="-0.89197">
        <ele>37.58</ele>
        <time>2017-09-17T07:26:41Z</time>
      </trkpt>
      <trkpt lat="47.70967" lon="-0.892">
        <ele>37.48</ele>
        <time>2017-09-17T07:26:45Z</time>
      </trkpt>
      <trkpt lat="47.70989" lon="-0.89202">
        <ele>37.2</ele>
        <time>2017-09-17T07:26:49Z</time>
      </trkpt>
      <trkpt lat="47.71011" lon="-0.892">
        <ele>37.2</ele>
        <time>2017-09-17T07:26:54Z</time>
      </trkpt>
      <trkpt lat="47.71027" lon="-0.89185">
        <ele>36.9</ele>
        <time>2017-09-17T07:26:57Z</time>
      </trkpt>
      <trkpt lat="47.71042" lon="-0.89165">
        <ele>36.04</ele>
        <time>2017-09-17T07:27:00Z</time>
      </trkpt>
      <trkpt lat="47.7106" lon="-0.89162">
        <ele>34.8</ele>
        <time>2017-09-17T07:27:03Z</time>
      </trkpt>
      <trkpt lat="47.71083" lon="-0.89166">
        <ele>33.4</ele>
        <time>2017-09-17T07:27:06Z</time>
      </trkpt>
      <trkpt lat="47.71102" lon="-0.89169">
        <ele>32.63</ele>
        <time>2017-09-17T07:27:09Z</time>
      </trkpt>
      <trkpt lat="47.71108" lon="-0.89197">
        <ele>31.27</ele>
        <time>2017-09-17T07:27:17Z</time>
      </trkpt>
      <trkpt lat="47.71101" lon="-0.89223">
        <ele>31.75</ele>
        <time>2017-09-17T07:27:21Z</time>
      </trkpt>
      <trkpt lat="47.71094" lon="-0.8925">
        <ele>31.79</ele>
        <time>2017-09-17T07:27:25Z</time>
      </trkpt>
      <trkpt lat="47.71091" lon="-0.89282">
        <ele>31.23</ele>
        <time>2017-09-17T07:27:29Z</time>
      </trkpt>
      <trkpt lat="47.71089" lon="-0.89312">
        <ele>30.51</ele>
        <time>2017-09-17T07:27:33Z</time>
      </trkpt>
      <trkpt lat="47.71089" lon="-0.89344">
        <ele>30.18</ele>
        <time>2017-09-17T07:27:37Z</time>
      </trkpt>
      <trkpt lat="47.71087" lon="-0.89374">
        <ele>30.2</ele>
        <time>2017-09-17T07:27:41Z</time>
      </trkpt>
      <trkpt lat="47.71084" lon="-0.89404">
        <ele>29.78</ele>
        <time>2017-09-17T07:27:45Z</time>
      </trkpt>
      <trkpt lat="47.7108" lon="-0.89431">
        <ele>29.6</ele>
        <time>2017-09-17T07:27:49Z</time>
      </trkpt>
      <trkpt lat="47.71075" lon="-0.8946">
        <ele>28.87</ele>
        <time>2017-09-17T07:27:53Z</time>
      </trkpt>
      <trkpt lat="47.7107" lon="-0.89487">
        <ele>29.33</ele>
        <time>2017-09-17T07:27:57Z</time>
      </trkpt>
      <trkpt lat="47.71067" lon="-0.89517">
        <ele>29.68</ele>
        <time>2017-09-17T07:28:02Z</time>
      </trkpt>
      <trkpt lat="47.7106" lon="-0.89548">
        <ele>29.66</ele>
        <time>2017-09-17T07:28:07Z</time>
      </trkpt>
      <trkpt lat="47.71057" lon="-0.89575">
        <ele>29.58</ele>
        <time>2017-09-17T07:28:11Z</time>
      </trkpt>
      <trkpt lat="47.71053" lon="-0.89607">
        <ele>29.76</ele>
        <time>2017-09-17T07:28:16Z</time>
      </trkpt>
      <trkpt lat="47.71051" lon="-0.89637">
        <ele>29.37</ele>
        <time>2017-09-17T07:28:21Z</time>
      </trkpt>
      <trkpt lat="47.71048" lon="-0.89667">
        <ele>29.1</ele>
        <time>2017-09-17T07:28:26Z</time>
      </trkpt>
      <trkpt lat="47.71047" lon="-0.897">
        <ele>28.07</ele>
        <time>2017-09-17T07:28:31Z</time>
      </trkpt>
      <trkpt lat="47.71047" lon="-0.89733">
        <ele>27.52</ele>
        <time>2017-09-17T07:28:36Z</time>
      </trkpt>
      <trkpt lat="47.71047" lon="-0.8976">
        <ele>27.18</ele>
        <time>2017-09-17T07:28:40Z</time>
      </trkpt>
      <trkpt lat="47.71046" lon="-0.8979">
        <ele>27</ele>
        <time>2017-09-17T07:28:44Z</time>
      </trkpt>
      <trkpt lat="47.71045" lon="-0.89818">
        <ele>27</ele>
        <time>2017-09-17T07:28:48Z</time>
      </trkpt>
      <trkpt lat="47.71043" lon="-0.89846">
        <ele>26.88</ele>
        <time>2017-09-17T07:28:52Z</time>
      </trkpt>
      <trkpt lat="47.71042" lon="-0.89876">
        <ele>26.88</ele>
        <time>2017-09-17T07:28:56Z</time>
      </trkpt>
      <trkpt lat="47.7104" lon="-0.89904">
        <ele>26.98</ele>
        <time>2017-09-17T07:29:00Z</time>
      </trkpt>
      <trkpt lat="47.71038" lon="-0.89932">
        <ele>27</ele>
        <time>2017-09-17T07:29:04Z</time>
      </trkpt>
      <trkpt lat="47.71038" lon="-0.8996">
        <ele>27.16</ele>
        <time>2017-09-17T07:29:08Z</time>
      </trkpt>
      <trkpt lat="47.71038" lon="-0.89989">
        <ele>27.28</ele>
        <time>2017-09-17T07:29:12Z</time>
      </trkpt>
      <trkpt lat="47.71039" lon="-0.90016">
        <ele>27.37</ele>
        <time>2017-09-17T07:29:16Z</time>
      </trkpt>
      <trkpt lat="47.71039" lon="-0.90047">
        <ele>27.56</ele>
        <time>2017-09-17T07:29:21Z</time>
      </trkpt>
      <trkpt lat="47.71038" lon="-0.90075">
        <ele>27.58</ele>
        <time>2017-09-17T07:29:25Z</time>
      </trkpt>
      <trkpt lat="47.71035" lon="-0.90103">
        <ele>27.58</ele>
        <time>2017-09-17T07:29:29Z</time>
      </trkpt>
      <trkpt lat="47.71032" lon="-0.90129">
        <ele>27.48</ele>
        <time>2017-09-17T07:29:33Z</time>
      </trkpt>
      <trkpt lat="47.71026" lon="-0.90156">
        <ele>27.38</ele>
        <time>2017-09-17T07:29:37Z</time>
      </trkpt>
      <trkpt lat="47.7102" lon="-0.90184">
        <ele>27.44</ele>
        <time>2017-09-17T07:29:41Z</time>
      </trkpt>
      <trkpt lat="47.71013" lon="-0.9021">
        <ele>28.13</ele>
        <time>2017-09-17T07:29:45Z</time>
      </trkpt>
      <trkpt lat="47.71005" lon="-0.90235">
        <ele>28.65</ele>
        <time>2017-09-17T07:29:49Z</time>
      </trkpt>
      <trkpt lat="47.70995" lon="-0.90265">
        <ele>29.31</ele>
        <time>2017-09-17T07:29:54Z</time>
      </trkpt>
      <trkpt lat="47.70984" lon="-0.90288">
        <ele>30.05</ele>
        <time>2017-09-17T07:29:58Z</time>
      </trkpt>
      <trkpt lat="47.70971" lon="-0.9031">
        <ele>30.45</ele>
        <time>2017-09-17T07:30:02Z</time>
      </trkpt>
      <trkpt lat="47.7096" lon="-0.90332">
        <ele>31.11</ele>
        <time>2017-09-17T07:30:06Z</time>
      </trkpt>
      <trkpt lat="47.70947" lon="-0.90352">
        <ele>31.72</ele>
        <time>2017-09-17T07:30:10Z</time>
      </trkpt>
      <trkpt lat="47.70935" lon="-0.90373">
        <ele>32.62</ele>
        <time>2017-09-17T07:30:14Z</time>
      </trkpt>
      <trkpt lat="47.70925" lon="-0.90399">
        <ele>33.25</ele>
        <time>2017-09-17T07:30:19Z</time>
      </trkpt>
      <trkpt lat="47.70913" lon="-0.90427">
        <ele>33.56</ele>
        <time>2017-09-17T07:30:24Z</time>
      </trkpt>
      <trkpt lat="47.70902" lon="-0.9045">
        <ele>34.17</ele>
        <time>2017-09-17T07:30:28Z</time>
      </trkpt>
      <trkpt lat="47.70893" lon="-0.90474">
        <ele>34.34</ele>
        <time>2017-09-17T07:30:32Z</time>
      </trkpt>
      <trkpt lat="47.70884" lon="-0.90498">
        <ele>34.39</ele>
        <time>2017-09-17T07:30:36Z</time>
      </trkpt>
      <trkpt lat="47.70876" lon="-0.90523">
        <ele>34.01</ele>
        <time>2017-09-17T07:30:40Z</time>
      </trkpt>
      <trkpt lat="47.7087" lon="-0.90551">
        <ele>33.32</ele>
        <time>2017-09-17T07:30:44Z</time>
      </trkpt>
      <trkpt lat="47.70871" lon="-0.90582">
        <ele>33.08</ele>
        <time>2017-09-17T07:30:49Z</time>
      </trkpt>
      <trkpt lat="47.70872" lon="-0.90611">
        <ele>32.81</ele>
        <time>2017-09-17T07:30:54Z</time>
      </trkpt>
      <trkpt lat="47.70853" lon="-0.90604">
        <ele>33.37</ele>
        <time>2017-09-17T07:31:03Z</time>
      </trkpt>
      <trkpt lat="47.70831" lon="-0.90594">
        <ele>33.67</ele>
        <time>2017-09-17T07:31:09Z</time>
      </trkpt>
      <trkpt lat="47.70813" lon="-0.90586">
        <ele>33.56</ele>
        <time>2017-09-17T07:31:15Z</time>
      </trkpt>
      <trkpt lat="47.708" lon="-0.90612">
        <ele>33.4</ele>
        <time>2017-09-17T07:31:22Z</time>
      </trkpt>
      <trkpt lat="47.70795" lon="-0.90641">
        <ele>33.3</ele>
        <time>2017-09-17T07:31:26Z</time>
      </trkpt>
      <trkpt lat="47.70791" lon="-0.90672">
        <ele>33.28</ele>
        <time>2017-09-17T07:31:30Z</time>
      </trkpt>
      <trkpt lat="47.70783" lon="-0.90705">
        <ele>33.28</ele>
        <time>2017-09-17T07:31:34Z</time>
      </trkpt>
      <trkpt lat="47.70774" lon="-0.90735">
        <ele>33.46</ele>
        <time>2017-09-17T07:31:38Z</time>
      </trkpt>
      <trkpt lat="47.70767" lon="-0.90766">
        <ele>33.4</ele>
        <time>2017-09-17T07:31:42Z</time>
      </trkpt>
      <trkpt lat="47.70761" lon="-0.90797">
        <ele>33.48</ele>
        <time>2017-09-17T07:31:46Z</time>
      </trkpt>
      <trkpt lat="47.70755" lon="-0.90826">
        <ele>33.85</ele>
        <time>2017-09-17T07:31:50Z</time>
      </trkpt>
      <trkpt lat="47.70748" lon="-0.90853">
        <ele>34.35</ele>
        <time>2017-09-17T07:31:54Z</time>
      </trkpt>
      <trkpt lat="47.70739" lon="-0.90879">
        <ele>34.77</ele>
        <time>2017-09-17T07:31:58Z</time>
      </trkpt>
      <trkpt lat="47.70728" lon="-0.90906">
        <ele>35.25</ele>
        <time>2017-09-17T07:32:02Z</time>
      </trkpt>
      <trkpt lat="47.70716" lon="-0.90933">
        <ele>35.66</ele>
        <time>2017-09-17T07:32:06Z</time>
      </trkpt>
      <trkpt lat="47.70703" lon="-0.90961">
        <ele>35.84</ele>
        <time>2017-09-17T07:32:10Z</time>
      </trkpt>
      <trkpt lat="47.7069" lon="-0.9099">
        <ele>36</ele>
        <time>2017-09-17T07:32:14Z</time>
      </trkpt>
      <trkpt lat="47.7068" lon="-0.91013">
        <ele>36</ele>
        <time>2017-09-17T07:32:17Z</time>
      </trkpt>
      <trkpt lat="47.70669" lon="-0.91042">
        <ele>35.88</ele>
        <time>2017-09-17T07:32:21Z</time>
      </trkpt>
      <trkpt lat="47.7066" lon="-0.91071">
        <ele>35.9</ele>
        <time>2017-09-17T07:32:25Z</time>
      </trkpt>
      <trkpt lat="47.70656" lon="-0.91098">
        <ele>35.68</ele>
        <time>2017-09-17T07:32:28Z</time>
      </trkpt>
      <trkpt lat="47.70653" lon="-0.91126">
        <ele>35.25</ele>
        <time>2017-09-17T07:32:31Z</time>
      </trkpt>
      <trkpt lat="47.70649" lon="-0.91158">
        <ele>33.93</ele>
        <time>2017-09-17T07:32:34Z</time>
      </trkpt>
      <trkpt lat="47.70646" lon="-0.91185">
        <ele>34.27</ele>
        <time>2017-09-17T07:32:37Z</time>
      </trkpt>
      <trkpt lat="47.70638" lon="-0.91217">
        <ele>34.45</ele>
        <time>2017-09-17T07:32:41Z</time>
      </trkpt>
      <trkpt lat="47.70629" lon="-0.91243">
        <ele>33.66</ele>
        <time>2017-09-17T07:32:44Z</time>
      </trkpt>
      <trkpt lat="47.70622" lon="-0.91271">
        <ele>33.19</ele>
        <time>2017-09-17T07:32:47Z</time>
      </trkpt>
      <trkpt lat="47.70615" lon="-0.91297">
        <ele>33.01</ele>
        <time>2017-09-17T07:32:50Z</time>
      </trkpt>
      <trkpt lat="47.70607" lon="-0.91326">
        <ele>32.86</ele>
        <time>2017-09-17T07:32:56Z</time>
      </trkpt>
      <trkpt lat="47.70591" lon="-0.91346">
        <ele>33.65</ele>
        <time>2017-09-17T07:33:01Z</time>
      </trkpt>
      <trkpt lat="47.70584" lon="-0.91376">
        <ele>33.3</ele>
        <time>2017-09-17T07:33:06Z</time>
      </trkpt>
      <trkpt lat="47.70581" lon="-0.91407">
        <ele>32.8</ele>
        <time>2017-09-17T07:33:10Z</time>
      </trkpt>
      <trkpt lat="47.7058" lon="-0.9144">
        <ele>32.76</ele>
        <time>2017-09-17T07:33:14Z</time>
      </trkpt>
      <trkpt lat="47.70584" lon="-0.9147">
        <ele>33.07</ele>
        <time>2017-09-17T07:33:18Z</time>
      </trkpt>
      <trkpt lat="47.70585" lon="-0.91499">
        <ele>33.12</ele>
        <time>2017-09-17T07:33:22Z</time>
      </trkpt>
      <trkpt lat="47.70583" lon="-0.91529">
        <ele>32.71</ele>
        <time>2017-09-17T07:33:26Z</time>
      </trkpt>
      <trkpt lat="47.70584" lon="-0.91562">
        <ele>32.86</ele>
        <time>2017-09-17T07:33:31Z</time>
      </trkpt>
      <trkpt lat="47.70588" lon="-0.91598">
        <ele>33.63</ele>
        <time>2017-09-17T07:33:35Z</time>
      </trkpt>
      <trkpt lat="47.70594" lon="-0.91626">
        <ele>33.7</ele>
        <time>2017-09-17T07:33:38Z</time>
      </trkpt>
      <trkpt lat="47.706" lon="-0.91655">
        <ele>33.38</ele>
        <time>2017-09-17T07:33:41Z</time>
      </trkpt>
      <trkpt lat="47.70604" lon="-0.91683">
        <ele>33.28</ele>
        <time>2017-09-17T07:33:44Z</time>
      </trkpt>
      <trkpt lat="47.70611" lon="-0.91713">
        <ele>33.28</ele>
        <time>2017-09-17T07:33:47Z</time>
      </trkpt>
      <trkpt lat="47.70618" lon="-0.91739">
        <ele>33.65</ele>
        <time>2017-09-17T07:33:50Z</time>
      </trkpt>
      <trkpt lat="47.70625" lon="-0.91769">
        <ele>33.7</ele>
        <time>2017-09-17T07:33:54Z</time>
      </trkpt>
      <trkpt lat="47.70633" lon="-0.91799">
        <ele>33.5</ele>
        <time>2017-09-17T07:33:58Z</time>
      </trkpt>
      <trkpt lat="47.70641" lon="-0.91826">
        <ele>34.17</ele>
        <time>2017-09-17T07:34:02Z</time>
      </trkpt>
      <trkpt lat="47.70644" lon="-0.91854">
        <ele>34.1</ele>
        <time>2017-09-17T07:34:07Z</time>
      </trkpt>
      <trkpt lat="47.70652" lon="-0.91879">
        <ele>33.91</ele>
        <time>2017-09-17T07:34:12Z</time>
      </trkpt>
      <trkpt lat="47.70661" lon="-0.91903">
        <ele>33.46</ele>
        <time>2017-09-17T07:34:16Z</time>
      </trkpt>
      <trkpt lat="47.70672" lon="-0.91927">
        <ele>34.81</ele>
        <time>2017-09-17T07:34:23Z</time>
      </trkpt>
      <trkpt lat="47.70696" lon="-0.91921">
        <ele>35.68</ele>
        <time>2017-09-17T07:34:28Z</time>
      </trkpt>
      <trkpt lat="47.70714" lon="-0.91909">
        <ele>36.01</ele>
        <time>2017-09-17T07:34:31Z</time>
      </trkpt>
      <trkpt lat="47.70735" lon="-0.91899">
        <ele>36.96</ele>
        <time>2017-09-17T07:34:35Z</time>
      </trkpt>
      <trkpt lat="47.70751" lon="-0.91921">
        <ele>37.17</ele>
        <time>2017-09-17T07:34:40Z</time>
      </trkpt>
      <trkpt lat="47.7076" lon="-0.91945">
        <ele>37.34</ele>
        <time>2017-09-17T07:34:44Z</time>
      </trkpt>
      <trkpt lat="47.70769" lon="-0.91971">
        <ele>37.78</ele>
        <time>2017-09-17T07:34:48Z</time>
      </trkpt>
      <trkpt lat="47.70775" lon="-0.92">
        <ele>37.78</ele>
        <time>2017-09-17T07:34:52Z</time>
      </trkpt>
      <trkpt lat="47.70777" lon="-0.92029">
        <ele>37.88</ele>
        <time>2017-09-17T07:34:56Z</time>
      </trkpt>
      <trkpt lat="47.70775" lon="-0.9206">
        <ele>37.48</ele>
        <time>2017-09-17T07:35:01Z</time>
      </trkpt>
      <trkpt lat="47.7078" lon="-0.92087">
        <ele>37.66</ele>
        <time>2017-09-17T07:35:05Z</time>
      </trkpt>
      <trkpt lat="47.70788" lon="-0.92112">
        <ele>37.25</ele>
        <time>2017-09-17T07:35:08Z</time>
      </trkpt>
      <trkpt lat="47.70792" lon="-0.92146">
        <ele>37.1</ele>
        <time>2017-09-17T07:35:12Z</time>
      </trkpt>
      <trkpt lat="47.7079" lon="-0.92179">
        <ele>37</ele>
        <time>2017-09-17T07:35:16Z</time>
      </trkpt>
      <trkpt lat="47.70793" lon="-0.92211">
        <ele>36.88</ele>
        <time>2017-09-17T07:35:21Z</time>
      </trkpt>
      <trkpt lat="47.70808" lon="-0.92229">
        <ele>37.23</ele>
        <time>2017-09-17T07:35:26Z</time>
      </trkpt>
      <trkpt lat="47.70827" lon="-0.92243">
        <ele>38.27</ele>
        <time>2017-09-17T07:35:32Z</time>
      </trkpt>
      <trkpt lat="47.70845" lon="-0.92261">
        <ele>39.05</ele>
        <time>2017-09-17T07:35:37Z</time>
      </trkpt>
      <trkpt lat="47.70859" lon="-0.92279">
        <ele>39.18</ele>
        <time>2017-09-17T07:35:41Z</time>
      </trkpt>
      <trkpt lat="47.70873" lon="-0.92302">
        <ele>40.45</ele>
        <time>2017-09-17T07:35:47Z</time>
      </trkpt>
      <trkpt lat="47.70884" lon="-0.92324">
        <ele>40.85</ele>
        <time>2017-09-17T07:35:53Z</time>
      </trkpt>
      <trkpt lat="47.70894" lon="-0.92347">
        <ele>42.17</ele>
        <time>2017-09-17T07:36:01Z</time>
      </trkpt>
      <trkpt lat="47.709" lon="-0.92373">
        <ele>44.18</ele>
        <time>2017-09-17T07:36:10Z</time>
      </trkpt>
      <trkpt lat="47.70909" lon="-0.92397">
        <ele>44.7</ele>
        <time>2017-09-17T07:36:18Z</time>
      </trkpt>
      <trkpt lat="47.70914" lon="-0.92423">
        <ele>48.12</ele>
        <time>2017-09-17T07:36:27Z</time>
      </trkpt>
      <trkpt lat="47.70923" lon="-0.92447">
        <ele>49.4</ele>
        <time>2017-09-17T07:36:35Z</time>
      </trkpt>
      <trkpt lat="47.70934" lon="-0.92472">
        <ele>51.81</ele>
        <time>2017-09-17T07:38:48Z</time>
      </trkpt>
      <trkpt lat="47.70947" lon="-0.92494">
        <ele>51.58</ele>
        <time>2017-09-17T07:38:54Z</time>
      </trkpt>
      <trkpt lat="47.70959" lon="-0.92518">
        <ele>52.31</ele>
        <time>2017-09-17T07:39:00Z</time>
      </trkpt>
      <trkpt lat="47.70971" lon="-0.92544">
        <ele>53.53</ele>
        <time>2017-09-17T07:39:07Z</time>
      </trkpt>
      <trkpt lat="47.70983" lon="-0.92571">
        <ele>54.42</ele>
        <time>2017-09-17T07:39:12Z</time>
      </trkpt>
      <trkpt lat="47.70993" lon="-0.92596">
        <ele>55.27</ele>
        <time>2017-09-17T07:39:17Z</time>
      </trkpt>
      <trkpt lat="47.71002" lon="-0.92621">
        <ele>55.84</ele>
        <time>2017-09-17T07:39:23Z</time>
      </trkpt>
      <trkpt lat="47.71001" lon="-0.92651">
        <ele>56.33</ele>
        <time>2017-09-17T07:39:28Z</time>
      </trkpt>
      <trkpt lat="47.70996" lon="-0.92681">
        <ele>56.32</ele>
        <time>2017-09-17T07:39:33Z</time>
      </trkpt>
      <trkpt lat="47.70993" lon="-0.92712">
        <ele>56.73</ele>
        <time>2017-09-17T07:39:39Z</time>
      </trkpt>
      <trkpt lat="47.70987" lon="-0.92742">
        <ele>58.71</ele>
        <time>2017-09-17T07:39:45Z</time>
      </trkpt>
      <trkpt lat="47.70984" lon="-0.9277">
        <ele>60.12</ele>
        <time>2017-09-17T07:39:51Z</time>
      </trkpt>
      <trkpt lat="47.7098" lon="-0.92799">
        <ele>61.43</ele>
        <time>2017-09-17T07:39:57Z</time>
      </trkpt>
      <trkpt lat="47.70975" lon="-0.92825">
        <ele>62.35</ele>
        <time>2017-09-17T07:40:03Z</time>
      </trkpt>
      <trkpt lat="47.70971" lon="-0.92852">
        <ele>62.97</ele>
        <time>2017-09-17T07:40:09Z</time>
      </trkpt>
      <trkpt lat="47.70967" lon="-0.9288">
        <ele>63.73</ele>
        <time>2017-09-17T07:40:15Z</time>
      </trkpt>
      <trkpt lat="47.70962" lon="-0.9291">
        <ele>64.55</ele>
        <time>2017-09-17T07:40:21Z</time>
      </trkpt>
      <trkpt lat="47.70958" lon="-0.92941">
        <ele>65.17</ele>
        <time>2017-09-17T07:40:27Z</time>
      </trkpt>
      <trkpt lat="47.70976" lon="-0.92951">
        <ele>65.38</ele>
        <time>2017-09-17T07:40:38Z</time>
      </trkpt>
      <trkpt lat="47.70991" lon="-0.92932">
        <ele>65.2</ele>
        <time>2017-09-17T07:40:42Z</time>
      </trkpt>
      <trkpt lat="47.71007" lon="-0.92909">
        <ele>64.89</ele>
        <time>2017-09-17T07:40:46Z</time>
      </trkpt>
      <trkpt lat="47.7102" lon="-0.9289">
        <ele>64.34</ele>
        <time>2017-09-17T07:40:49Z</time>
      </trkpt>
      <trkpt lat="47.71035" lon="-0.92868">
        <ele>63.37</ele>
        <time>2017-09-17T07:40:52Z</time>
      </trkpt>
      <trkpt lat="47.71051" lon="-0.92847">
        <ele>61.63</ele>
        <time>2017-09-17T07:40:55Z</time>
      </trkpt>
      <trkpt lat="47.71066" lon="-0.92827">
        <ele>60.24</ele>
        <time>2017-09-17T07:40:59Z</time>
      </trkpt>
      <trkpt lat="47.71085" lon="-0.92818">
        <ele>60.18</ele>
        <time>2017-09-17T07:41:13Z</time>
      </trkpt>
      <trkpt lat="47.71101" lon="-0.92833">
        <ele>59.49</ele>
        <time>2017-09-17T07:41:18Z</time>
      </trkpt>
      <trkpt lat="47.71116" lon="-0.92858">
        <ele>58.92</ele>
        <time>2017-09-17T07:41:22Z</time>
      </trkpt>
      <trkpt lat="47.7112" lon="-0.92887">
        <ele>58.96</ele>
        <time>2017-09-17T07:41:26Z</time>
      </trkpt>
      <trkpt lat="47.71114" lon="-0.92917">
        <ele>58.8</ele>
        <time>2017-09-17T07:41:31Z</time>
      </trkpt>
      <trkpt lat="47.71122" lon="-0.92948">
        <ele>58.16</ele>
        <time>2017-09-17T07:41:36Z</time>
      </trkpt>
      <trkpt lat="47.71136" lon="-0.92971">
        <ele>57.27</ele>
        <time>2017-09-17T07:41:40Z</time>
      </trkpt>
      <trkpt lat="47.71149" lon="-0.92993">
        <ele>56.76</ele>
        <time>2017-09-17T07:41:43Z</time>
      </trkpt>
      <trkpt lat="47.71163" lon="-0.93018">
        <ele>56.03</ele>
        <time>2017-09-17T07:41:46Z</time>
      </trkpt>
      <trkpt lat="47.71175" lon="-0.9304">
        <ele>56.61</ele>
        <time>2017-09-17T07:41:49Z</time>
      </trkpt>
      <trkpt lat="47.7119" lon="-0.93066">
        <ele>57.36</ele>
        <time>2017-09-17T07:41:53Z</time>
      </trkpt>
      <trkpt lat="47.71208" lon="-0.93077">
        <ele>58.33</ele>
        <time>2017-09-17T07:41:59Z</time>
      </trkpt>
      <trkpt lat="47.71228" lon="-0.93069">
        <ele>59.15</ele>
        <time>2017-09-17T07:42:05Z</time>
      </trkpt>
      <trkpt lat="47.71246" lon="-0.93062">
        <ele>59.57</ele>
        <time>2017-09-17T07:42:10Z</time>
      </trkpt>
      <trkpt lat="47.71267" lon="-0.93053">
        <ele>59.6</ele>
        <time>2017-09-17T07:42:15Z</time>
      </trkpt>
      <trkpt lat="47.71287" lon="-0.93051">
        <ele>58.05</ele>
        <time>2017-09-17T07:42:20Z</time>
      </trkpt>
      <trkpt lat="47.71306" lon="-0.93062">
        <ele>56.92</ele>
        <time>2017-09-17T07:42:26Z</time>
      </trkpt>
      <trkpt lat="47.71289" lon="-0.93074">
        <ele>56.02</ele>
        <time>2017-09-17T07:42:41Z</time>
      </trkpt>
      <trkpt lat="47.71274" lon="-0.93089">
        <ele>54.34</ele>
        <time>2017-09-17T07:42:47Z</time>
      </trkpt>
      <trkpt lat="47.71261" lon="-0.93112">
        <ele>52.48</ele>
        <time>2017-09-17T07:42:53Z</time>
      </trkpt>
      <trkpt lat="47.71265" lon="-0.93142">
        <ele>50</ele>
        <time>2017-09-17T07:42:59Z</time>
      </trkpt>
      <trkpt lat="47.71276" lon="-0.93168">
        <ele>48.1</ele>
        <time>2017-09-17T07:43:03Z</time>
      </trkpt>
      <trkpt lat="47.71288" lon="-0.93189">
        <ele>46.23</ele>
        <time>2017-09-17T07:43:08Z</time>
      </trkpt>
      <trkpt lat="47.71302" lon="-0.93211">
        <ele>44.78</ele>
        <time>2017-09-17T07:43:12Z</time>
      </trkpt>
      <trkpt lat="47.71315" lon="-0.93231">
        <ele>43.45</ele>
        <time>2017-09-17T07:43:16Z</time>
      </trkpt>
      <trkpt lat="47.7133" lon="-0.93253">
        <ele>43</ele>
        <time>2017-09-17T07:43:20Z</time>
      </trkpt>
      <trkpt lat="47.71344" lon="-0.93273">
        <ele>42.67</ele>
        <time>2017-09-17T07:43:24Z</time>
      </trkpt>
      <trkpt lat="47.71357" lon="-0.9329">
        <ele>42.78</ele>
        <time>2017-09-17T07:43:28Z</time>
      </trkpt>
      <trkpt lat="47.71372" lon="-0.93308">
        <ele>42.58</ele>
        <time>2017-09-17T07:43:32Z</time>
      </trkpt>
      <trkpt lat="47.71381" lon="-0.93332">
        <ele>41.94</ele>
        <time>2017-09-17T07:43:38Z</time>
      </trkpt>
      <trkpt lat="47.71376" lon="-0.93362">
        <ele>41.44</ele>
        <time>2017-09-17T07:44:07Z</time>
      </trkpt>
      <trkpt lat="47.71373" lon="-0.9339">
        <ele>41.46</ele>
        <time>2017-09-17T07:44:14Z</time>
      </trkpt>
      <trkpt lat="47.71367" lon="-0.93419">
        <ele>41.4</ele>
        <time>2017-09-17T07:44:20Z</time>
      </trkpt>
      <trkpt lat="47.71363" lon="-0.93447">
        <ele>40.62</ele>
        <time>2017-09-17T07:44:25Z</time>
      </trkpt>
      <trkpt lat="47.71357" lon="-0.93474">
        <ele>38.68</ele>
        <time>2017-09-17T07:44:30Z</time>
      </trkpt>
      <trkpt lat="47.71354" lon="-0.93501">
        <ele>37.09</ele>
        <time>2017-09-17T07:44:35Z</time>
      </trkpt>
      <trkpt lat="47.71339" lon="-0.93518">
        <ele>41.77</ele>
        <time>2017-09-17T07:44:39Z</time>
      </trkpt>
      <trkpt lat="47.71323" lon="-0.93531">
        <ele>44.38</ele>
        <time>2017-09-17T07:44:43Z</time>
      </trkpt>
      <trkpt lat="47.71306" lon="-0.93552">
        <ele>45.43</ele>
        <time>2017-09-17T07:44:48Z</time>
      </trkpt>
      <trkpt lat="47.71311" lon="-0.93583">
        <ele>45.38</ele>
        <time>2017-09-17T07:44:53Z</time>
      </trkpt>
      <trkpt lat="47.71322" lon="-0.93611">
        <ele>45.03</ele>
        <time>2017-09-17T07:44:57Z</time>
      </trkpt>
      <trkpt lat="47.71333" lon="-0.93636">
        <ele>45.25</ele>
        <time>2017-09-17T07:45:01Z</time>
      </trkpt>
      <trkpt lat="47.71336" lon="-0.93667">
        <ele>46.35</ele>
        <time>2017-09-17T07:45:10Z</time>
      </trkpt>
      <trkpt lat="47.71342" lon="-0.93694">
        <ele>47.01</ele>
        <time>2017-09-17T07:45:17Z</time>
      </trkpt>
      <trkpt lat="47.71351" lon="-0.93717">
        <ele>49.93</ele>
        <time>2017-09-17T07:45:23Z</time>
      </trkpt>
      <trkpt lat="47.71361" lon="-0.9374">
        <ele>50.26</ele>
        <time>2017-09-17T07:45:29Z</time>
      </trkpt>
      <trkpt lat="47.71366" lon="-0.93766">
        <ele>50.63</ele>
        <time>2017-09-17T07:45:34Z</time>
      </trkpt>
      <trkpt lat="47.71373" lon="-0.93798">
        <ele>50.72</ele>
        <time>2017-09-17T07:45:38Z</time>
      </trkpt>
      <trkpt lat="47.71378" lon="-0.93831">
        <ele>50.76</ele>
        <time>2017-09-17T07:45:43Z</time>
      </trkpt>
      <trkpt lat="47.71381" lon="-0.93863">
        <ele>50.38</ele>
        <time>2017-09-17T07:45:48Z</time>
      </trkpt>
      <trkpt lat="47.71384" lon="-0.93893">
        <ele>49.9</ele>
        <time>2017-09-17T07:45:52Z</time>
      </trkpt>
      <trkpt lat="47.71387" lon="-0.93919">
        <ele>49.69</ele>
        <time>2017-09-17T07:45:55Z</time>
      </trkpt>
      <trkpt lat="47.71392" lon="-0.93947">
        <ele>49.4</ele>
        <time>2017-09-17T07:45:58Z</time>
      </trkpt>
      <trkpt lat="47.71395" lon="-0.93976">
        <ele>49.14</ele>
        <time>2017-09-17T07:46:01Z</time>
      </trkpt>
      <trkpt lat="47.71396" lon="-0.94009">
        <ele>48.9</ele>
        <time>2017-09-17T07:46:05Z</time>
      </trkpt>
      <trkpt lat="47.71395" lon="-0.94039">
        <ele>48.01</ele>
        <time>2017-09-17T07:46:09Z</time>
      </trkpt>
      <trkpt lat="47.71392" lon="-0.94068">
        <ele>47.82</ele>
        <time>2017-09-17T07:46:13Z</time>
      </trkpt>
      <trkpt lat="47.71386" lon="-0.94098">
        <ele>47.19</ele>
        <time>2017-09-17T07:46:17Z</time>
      </trkpt>
      <trkpt lat="47.71375" lon="-0.94123">
        <ele>47.1</ele>
        <time>2017-09-17T07:46:21Z</time>
      </trkpt>
      <trkpt lat="47.7136" lon="-0.94146">
        <ele>47.65</ele>
        <time>2017-09-17T07:46:26Z</time>
      </trkpt>
      <trkpt lat="47.71348" lon="-0.9417">
        <ele>48.15</ele>
        <time>2017-09-17T07:46:31Z</time>
      </trkpt>
      <trkpt lat="47.71338" lon="-0.94194">
        <ele>48.75</ele>
        <time>2017-09-17T07:46:36Z</time>
      </trkpt>
      <trkpt lat="47.71322" lon="-0.94211">
        <ele>47.67</ele>
        <time>2017-09-17T07:46:43Z</time>
      </trkpt>
      <trkpt lat="47.71304" lon="-0.94219">
        <ele>45.57</ele>
        <time>2017-09-17T07:46:50Z</time>
      </trkpt>
      <trkpt lat="47.71284" lon="-0.94224">
        <ele>43.26</ele>
        <time>2017-09-17T07:46:59Z</time>
      </trkpt>
      <trkpt lat="47.71278" lon="-0.9425">
        <ele>38.94</ele>
        <time>2017-09-17T07:47:13Z</time>
      </trkpt>
      <trkpt lat="47.7127" lon="-0.94275">
        <ele>36.46</ele>
        <time>2017-09-17T07:47:25Z</time>
      </trkpt>
      <trkpt lat="47.71253" lon="-0.94289">
        <ele>33.71</ele>
        <time>2017-09-17T07:47:33Z</time>
      </trkpt>
      <trkpt lat="47.71235" lon="-0.94287">
        <ele>35.53</ele>
        <time>2017-09-17T07:47:46Z</time>
      </trkpt>
      <trkpt lat="47.7122" lon="-0.94269">
        <ele>37.96</ele>
        <time>2017-09-17T07:48:00Z</time>
      </trkpt>
      <trkpt lat="47.71201" lon="-0.94263">
        <ele>40.09</ele>
        <time>2017-09-17T07:48:11Z</time>
      </trkpt>
      <trkpt lat="47.71182" lon="-0.9426">
        <ele>42.96</ele>
        <time>2017-09-17T07:48:21Z</time>
      </trkpt>
      <trkpt lat="47.71164" lon="-0.94272">
        <ele>45.15</ele>
        <time>2017-09-17T07:48:30Z</time>
      </trkpt>
      <trkpt lat="47.71148" lon="-0.94287">
        <ele>44.97</ele>
        <time>2017-09-17T07:48:36Z</time>
      </trkpt>
      <trkpt lat="47.71139" lon="-0.94314">
        <ele>46.31</ele>
        <time>2017-09-17T07:48:44Z</time>
      </trkpt>
      <trkpt lat="47.71133" lon="-0.9434">
        <ele>51.41</ele>
        <time>2017-09-17T07:48:52Z</time>
      </trkpt>
      <trkpt lat="47.71141" lon="-0.94366">
        <ele>59.62</ele>
        <time>2017-09-17T07:49:03Z</time>
      </trkpt>
      <trkpt lat="47.71155" lon="-0.94386">
        <ele>62.63</ele>
        <time>2017-09-17T07:49:11Z</time>
      </trkpt>
      <trkpt lat="47.71165" lon="-0.94413">
        <ele>64.87</ele>
        <time>2017-09-17T07:49:18Z</time>
      </trkpt>
      <trkpt lat="47.71173" lon="-0.94442">
        <ele>65.79</ele>
        <time>2017-09-17T07:49:24Z</time>
      </trkpt>
      <trkpt lat="47.71173" lon="-0.94474">
        <ele>65.5</ele>
        <time>2017-09-17T07:49:30Z</time>
      </trkpt>
      <trkpt lat="47.71174" lon="-0.94503">
        <ele>66.5</ele>
        <time>2017-09-17T07:49:36Z</time>
      </trkpt>
      <trkpt lat="47.71192" lon="-0.94505">
        <ele>68.96</ele>
        <time>2017-09-17T07:49:52Z</time>
      </trkpt>
      <trkpt lat="47.71204" lon="-0.94483">
        <ele>68.4</ele>
        <time>2017-09-17T07:50:00Z</time>
      </trkpt>
      <trkpt lat="47.71207" lon="-0.94457">
        <ele>68.26</ele>
        <time>2017-09-17T07:50:07Z</time>
      </trkpt>
      <trkpt lat="47.71226" lon="-0.94453">
        <ele>68.53</ele>
        <time>2017-09-17T07:50:37Z</time>
      </trkpt>
      <trkpt lat="47.71237" lon="-0.94428">
        <ele>67.15</ele>
        <time>2017-09-17T07:50:44Z</time>
      </trkpt>
      <trkpt lat="47.71256" lon="-0.94428">
        <ele>63.68</ele>
        <time>2017-09-17T07:50:54Z</time>
      </trkpt>
      <trkpt lat="47.71266" lon="-0.94453">
        <ele>61.88</ele>
        <time>2017-09-17T07:50:59Z</time>
      </trkpt>
      <trkpt lat="47.71276" lon="-0.94483">
        <ele>60.73</ele>
        <time>2017-09-17T07:51:03Z</time>
      </trkpt>
      <trkpt lat="47.71282" lon="-0.94514">
        <ele>59.09</ele>
        <time>2017-09-17T07:51:06Z</time>
      </trkpt>
      <trkpt lat="47.71286" lon="-0.9454">
        <ele>57.68</ele>
        <time>2017-09-17T07:51:09Z</time>
      </trkpt>
      <trkpt lat="47.71284" lon="-0.94569">
        <ele>56.34</ele>
        <time>2017-09-17T07:51:13Z</time>
      </trkpt>
      <trkpt lat="47.71279" lon="-0.946">
        <ele>55.42</ele>
        <time>2017-09-17T07:51:18Z</time>
      </trkpt>
      <trkpt lat="47.71271" lon="-0.94632">
        <ele>54.67</ele>
        <time>2017-09-17T07:51:22Z</time>
      </trkpt>
      <trkpt lat="47.71268" lon="-0.9466">
        <ele>53.89</ele>
        <time>2017-09-17T07:51:26Z</time>
      </trkpt>
      <trkpt lat="47.71265" lon="-0.94688">
        <ele>52.7</ele>
        <time>2017-09-17T07:51:34Z</time>
      </trkpt>
      <trkpt lat="47.71271" lon="-0.94716">
        <ele>53.63</ele>
        <time>2017-09-17T07:51:40Z</time>
      </trkpt>
      <trkpt lat="47.71274" lon="-0.94745">
        <ele>53.86</ele>
        <time>2017-09-17T07:51:46Z</time>
      </trkpt>
      <trkpt lat="47.71279" lon="-0.94774">
        <ele>54.48</ele>
        <time>2017-09-17T07:51:53Z</time>
      </trkpt>
      <trkpt lat="47.71282" lon="-0.94803">
        <ele>54.41</ele>
        <time>2017-09-17T07:51:58Z</time>
      </trkpt>
      <trkpt lat="47.71274" lon="-0.94832">
        <ele>53.78</ele>
        <time>2017-09-17T07:52:04Z</time>
      </trkpt>
      <trkpt lat="47.71263" lon="-0.94856">
        <ele>54.24</ele>
        <time>2017-09-17T07:52:10Z</time>
      </trkpt>
      <trkpt lat="47.71245" lon="-0.9487">
        <ele>53.76</ele>
        <time>2017-09-17T07:52:15Z</time>
      </trkpt>
      <trkpt lat="47.71224" lon="-0.94872">
        <ele>53.82</ele>
        <time>2017-09-17T07:52:21Z</time>
      </trkpt>
      <trkpt lat="47.71209" lon="-0.94889">
        <ele>53.48</ele>
        <time>2017-09-17T07:52:27Z</time>
      </trkpt>
      <trkpt lat="47.71214" lon="-0.94914">
        <ele>54.25</ele>
        <time>2017-09-17T07:52:33Z</time>
      </trkpt>
      <trkpt lat="47.71211" lon="-0.94946">
        <ele>55.05</ele>
        <time>2017-09-17T07:52:39Z</time>
      </trkpt>
      <trkpt lat="47.71209" lon="-0.94978">
        <ele>54.9</ele>
        <time>2017-09-17T07:52:45Z</time>
      </trkpt>
      <trkpt lat="47.71209" lon="-0.9501">
        <ele>54.29</ele>
        <time>2017-09-17T07:52:50Z</time>
      </trkpt>
      <trkpt lat="47.71203" lon="-0.95044">
        <ele>56.18</ele>
        <time>2017-09-17T07:53:08Z</time>
      </trkpt>
      <trkpt lat="47.71199" lon="-0.95071">
        <ele>56.28</ele>
        <time>2017-09-17T07:53:17Z</time>
      </trkpt>
      <trkpt lat="47.71203" lon="-0.95097">
        <ele>57.19</ele>
        <time>2017-09-17T07:53:22Z</time>
      </trkpt>
      <trkpt lat="47.71208" lon="-0.95129">
        <ele>57.2</ele>
        <time>2017-09-17T07:53:31Z</time>
      </trkpt>
      <trkpt lat="47.71219" lon="-0.95158">
        <ele>56.53</ele>
        <time>2017-09-17T07:53:36Z</time>
      </trkpt>
      <trkpt lat="47.71222" lon="-0.95185">
        <ele>56.08</ele>
        <time>2017-09-17T07:53:42Z</time>
      </trkpt>
      <trkpt lat="47.71209" lon="-0.9521">
        <ele>56.63</ele>
        <time>2017-09-17T07:53:49Z</time>
      </trkpt>
      <trkpt lat="47.71197" lon="-0.95233">
        <ele>57.17</ele>
        <time>2017-09-17T07:53:55Z</time>
      </trkpt>
      <trkpt lat="47.71184" lon="-0.95252">
        <ele>58.25</ele>
        <time>2017-09-17T07:54:01Z</time>
      </trkpt>
      <trkpt lat="47.71171" lon="-0.95277">
        <ele>58.58</ele>
        <time>2017-09-17T07:54:06Z</time>
      </trkpt>
      <trkpt lat="47.71158" lon="-0.95303">
        <ele>59.35</ele>
        <time>2017-09-17T07:54:10Z</time>
      </trkpt>
      <trkpt lat="47.71149" lon="-0.95329">
        <ele>59.82</ele>
        <time>2017-09-17T07:54:14Z</time>
      </trkpt>
      <trkpt lat="47.71142" lon="-0.9536">
        <ele>60.08</ele>
        <time>2017-09-17T07:54:19Z</time>
      </trkpt>
      <trkpt lat="47.71138" lon="-0.95388">
        <ele>59.72</ele>
        <time>2017-09-17T07:54:23Z</time>
      </trkpt>
      <trkpt lat="47.71144" lon="-0.95421">
        <ele>58.97</ele>
        <time>2017-09-17T07:54:29Z</time>
      </trkpt>
      <trkpt lat="47.71164" lon="-0.95438">
        <ele>58.63</ele>
        <time>2017-09-17T07:54:33Z</time>
      </trkpt>
      <trkpt lat="47.71179" lon="-0.95454">
        <ele>58.2</ele>
        <time>2017-09-17T07:54:37Z</time>
      </trkpt>
      <trkpt lat="47.71186" lon="-0.95481">
        <ele>58.26</ele>
        <time>2017-09-17T07:54:42Z</time>
      </trkpt>
      <trkpt lat="47.71194" lon="-0.95505">
        <ele>59.13</ele>
        <time>2017-09-17T07:54:48Z</time>
      </trkpt>
      <trkpt lat="47.71201" lon="-0.95533">
        <ele>60.45</ele>
        <time>2017-09-17T07:54:57Z</time>
      </trkpt>
      <trkpt lat="47.71206" lon="-0.9556">
        <ele>61.86</ele>
        <time>2017-09-17T07:55:06Z</time>
      </trkpt>
      <trkpt lat="47.71208" lon="-0.95588">
        <ele>62.28</ele>
        <time>2017-09-17T07:55:15Z</time>
      </trkpt>
      <trkpt lat="47.71209" lon="-0.95618">
        <ele>63.83</ele>
        <time>2017-09-17T07:55:25Z</time>
      </trkpt>
      <trkpt lat="47.71208" lon="-0.95647">
        <ele>65.95</ele>
        <time>2017-09-17T07:55:35Z</time>
      </trkpt>
      <trkpt lat="47.71206" lon="-0.95675">
        <ele>67.63</ele>
        <time>2017-09-17T07:55:44Z</time>
      </trkpt>
      <trkpt lat="47.71206" lon="-0.95701">
        <ele>71.16</ele>
        <time>2017-09-17T07:55:57Z</time>
      </trkpt>
      <trkpt lat="47.71195" lon="-0.95728">
        <ele>72.28</ele>
        <time>2017-09-17T07:56:13Z</time>
      </trkpt>
      <trkpt lat="47.7119" lon="-0.95755">
        <ele>70.45</ele>
        <time>2017-09-17T07:56:16Z</time>
      </trkpt>
      <trkpt lat="47.71185" lon="-0.95789">
        <ele>68.21</ele>
        <time>2017-09-17T07:56:20Z</time>
      </trkpt>
      <trkpt lat="47.71181" lon="-0.95819">
        <ele>66.99</ele>
        <time>2017-09-17T07:56:24Z</time>
      </trkpt>
      <trkpt lat="47.71187" lon="-0.95846">
        <ele>66.58</ele>
        <time>2017-09-17T07:56:30Z</time>
      </trkpt>
      <trkpt lat="47.71197" lon="-0.95871">
        <ele>65.88</ele>
        <time>2017-09-17T07:56:36Z</time>
      </trkpt>
      <trkpt lat="47.71202" lon="-0.95902">
        <ele>64.99</ele>
        <time>2017-09-17T07:56:41Z</time>
      </trkpt>
      <trkpt lat="47.71207" lon="-0.95933">
        <ele>64.74</ele>
        <time>2017-09-17T07:56:46Z</time>
      </trkpt>
      <trkpt lat="47.71213" lon="-0.95963">
        <ele>64.28</ele>
        <time>2017-09-17T07:56:51Z</time>
      </trkpt>
      <trkpt lat="47.71216" lon="-0.95989">
        <ele>63.8</ele>
        <time>2017-09-17T07:56:55Z</time>
      </trkpt>
      <trkpt lat="47.71219" lon="-0.96019">
        <ele>63.68</ele>
        <time>2017-09-17T07:57:00Z</time>
      </trkpt>
      <trkpt lat="47.71225" lon="-0.96047">
        <ele>63.68</ele>
        <time>2017-09-17T07:57:05Z</time>
      </trkpt>
      <trkpt lat="47.7123" lon="-0.96075">
        <ele>63.09</ele>
        <time>2017-09-17T07:57:10Z</time>
      </trkpt>
      <trkpt lat="47.71229" lon="-0.96107">
        <ele>62.92</ele>
        <time>2017-09-17T07:57:16Z</time>
      </trkpt>
      <trkpt lat="47.71231" lon="-0.96136">
        <ele>62.4</ele>
        <time>2017-09-17T07:57:21Z</time>
      </trkpt>
      <trkpt lat="47.71235" lon="-0.96169">
        <ele>61.51</ele>
        <time>2017-09-17T07:57:26Z</time>
      </trkpt>
      <trkpt lat="47.71236" lon="-0.96201">
        <ele>61.2</ele>
        <time>2017-09-17T07:57:32Z</time>
      </trkpt>
      <trkpt lat="47.71243" lon="-0.9623">
        <ele>60.56</ele>
        <time>2017-09-17T07:57:37Z</time>
      </trkpt>
      <trkpt lat="47.71245" lon="-0.96258">
        <ele>60.5</ele>
        <time>2017-09-17T07:57:42Z</time>
      </trkpt>
      <trkpt lat="47.7125" lon="-0.96289">
        <ele>59.83</ele>
        <time>2017-09-17T07:57:47Z</time>
      </trkpt>
      <trkpt lat="47.71256" lon="-0.96317">
        <ele>60.16</ele>
        <time>2017-09-17T07:57:52Z</time>
      </trkpt>
      <trkpt lat="47.71264" lon="-0.9634">
        <ele>59.88</ele>
        <time>2017-09-17T07:57:56Z</time>
      </trkpt>
      <trkpt lat="47.71277" lon="-0.96362">
        <ele>60.23</ele>
        <time>2017-09-17T07:58:00Z</time>
      </trkpt>
      <trkpt lat="47.71296" lon="-0.96376">
        <ele>60.93</ele>
        <time>2017-09-17T07:58:06Z</time>
      </trkpt>
      <trkpt lat="47.71314" lon="-0.96388">
        <ele>61.85</ele>
        <time>2017-09-17T07:58:11Z</time>
      </trkpt>
      <trkpt lat="47.71333" lon="-0.96404">
        <ele>62.65</ele>
        <time>2017-09-17T07:58:16Z</time>
      </trkpt>
      <trkpt lat="47.71348" lon="-0.96419">
        <ele>64.48</ele>
        <time>2017-09-17T07:58:23Z</time>
      </trkpt>
      <trkpt lat="47.71371" lon="-0.96436">
        <ele>70</ele>
        <time>2017-09-17T07:58:45Z</time>
      </trkpt>
      <trkpt lat="47.71389" lon="-0.96438">
        <ele>73.31</ele>
        <time>2017-09-17T07:59:00Z</time>
      </trkpt>
      <trkpt lat="47.7141" lon="-0.9644">
        <ele>75.24</ele>
        <time>2017-09-17T07:59:19Z</time>
      </trkpt>
      <trkpt lat="47.71427" lon="-0.96451">
        <ele>76.45</ele>
        <time>2017-09-17T07:59:33Z</time>
      </trkpt>
      <trkpt lat="47.71438" lon="-0.96476">
        <ele>76.8</ele>
        <time>2017-09-17T07:59:43Z</time>
      </trkpt>
      <trkpt lat="47.71444" lon="-0.96503">
        <ele>76.78</ele>
        <time>2017-09-17T07:59:51Z</time>
      </trkpt>
      <trkpt lat="47.71444" lon="-0.96532">
        <ele>76.4</ele>
        <time>2017-09-17T07:59:59Z</time>
      </trkpt>
      <trkpt lat="47.7146" lon="-0.96548">
        <ele>77.43</ele>
        <time>2017-09-17T08:00:07Z</time>
      </trkpt>
      <trkpt lat="47.71479" lon="-0.96552">
        <ele>77.87</ele>
        <time>2017-09-17T08:00:13Z</time>
      </trkpt>
      <trkpt lat="47.71496" lon="-0.9654">
        <ele>77.41</ele>
        <time>2017-09-17T08:00:18Z</time>
      </trkpt>
      <trkpt lat="47.71514" lon="-0.9653">
        <ele>77.85</ele>
        <time>2017-09-17T08:00:25Z</time>
      </trkpt>
      <trkpt lat="47.71527" lon="-0.96555">
        <ele>77.7</ele>
        <time>2017-09-17T08:00:30Z</time>
      </trkpt>
      <trkpt lat="47.71536" lon="-0.96578">
        <ele>77.58</ele>
        <time>2017-09-17T08:00:34Z</time>
      </trkpt>
      <trkpt lat="47.71545" lon="-0.96601">
        <ele>77.28</ele>
        <time>2017-09-17T08:00:38Z</time>
      </trkpt>
      <trkpt lat="47.71565" lon="-0.96605">
        <ele>79.48</ele>
        <time>2017-09-17T08:00:56Z</time>
      </trkpt>
      <trkpt lat="47.71585" lon="-0.96595">
        <ele>80.55</ele>
        <time>2017-09-17T08:01:01Z</time>
      </trkpt>
      <trkpt lat="47.71603" lon="-0.96586">
        <ele>81.23</ele>
        <time>2017-09-17T08:01:05Z</time>
      </trkpt>
      <trkpt lat="47.71621" lon="-0.96577">
        <ele>81.63</ele>
        <time>2017-09-17T08:01:09Z</time>
      </trkpt>
      <trkpt lat="47.71639" lon="-0.9657">
        <ele>81.97</ele>
        <time>2017-09-17T08:01:13Z</time>
      </trkpt>
      <trkpt lat="47.71658" lon="-0.96564">
        <ele>82.35</ele>
        <time>2017-09-17T08:01:18Z</time>
      </trkpt>
      <trkpt lat="47.71675" lon="-0.96554">
        <ele>82.56</ele>
        <time>2017-09-17T08:01:22Z</time>
      </trkpt>
      <trkpt lat="47.71694" lon="-0.96544">
        <ele>82.58</ele>
        <time>2017-09-17T08:01:26Z</time>
      </trkpt>
      <trkpt lat="47.71715" lon="-0.96536">
        <ele>83.16</ele>
        <time>2017-09-17T08:01:30Z</time>
      </trkpt>
      <trkpt lat="47.71735" lon="-0.96529">
        <ele>83.37</ele>
        <time>2017-09-17T08:01:34Z</time>
      </trkpt>
      <trkpt lat="47.71754" lon="-0.9652">
        <ele>83.11</ele>
        <time>2017-09-17T08:01:38Z</time>
      </trkpt>
      <trkpt lat="47.71773" lon="-0.96513">
        <ele>82.5</ele>
        <time>2017-09-17T08:01:42Z</time>
      </trkpt>
      <trkpt lat="47.71794" lon="-0.96506">
        <ele>82.87</ele>
        <time>2017-09-17T08:01:47Z</time>
      </trkpt>
      <trkpt lat="47.71814" lon="-0.96501">
        <ele>83.26</ele>
        <time>2017-09-17T08:01:52Z</time>
      </trkpt>
      <trkpt lat="47.71836" lon="-0.96495">
        <ele>83.85</ele>
        <time>2017-09-17T08:01:57Z</time>
      </trkpt>
      <trkpt lat="47.71857" lon="-0.96488">
        <ele>84.26</ele>
        <time>2017-09-17T08:02:02Z</time>
      </trkpt>
      <trkpt lat="47.71879" lon="-0.96483">
        <ele>84.57</ele>
        <time>2017-09-17T08:02:07Z</time>
      </trkpt>
      <trkpt lat="47.71898" lon="-0.96475">
        <ele>84.95</ele>
        <time>2017-09-17T08:02:12Z</time>
      </trkpt>
      <trkpt lat="47.71919" lon="-0.96473">
        <ele>86.07</ele>
        <time>2017-09-17T08:02:17Z</time>
      </trkpt>
      <trkpt lat="47.71939" lon="-0.96471">
        <ele>86.27</ele>
        <time>2017-09-17T08:02:22Z</time>
      </trkpt>
      <trkpt lat="47.7196" lon="-0.96468">
        <ele>86.08</ele>
        <time>2017-09-17T08:02:27Z</time>
      </trkpt>
      <trkpt lat="47.71979" lon="-0.96466">
        <ele>86.48</ele>
        <time>2017-09-17T08:02:32Z</time>
      </trkpt>
      <trkpt lat="47.71998" lon="-0.96464">
        <ele>87.67</ele>
        <time>2017-09-17T08:02:37Z</time>
      </trkpt>
      <trkpt lat="47.72017" lon="-0.96463">
        <ele>87.23</ele>
        <time>2017-09-17T08:02:42Z</time>
      </trkpt>
      <trkpt lat="47.71996" lon="-0.96464">
        <ele>86.12</ele>
        <time>2017-09-17T08:05:22Z</time>
      </trkpt>
      <trkpt lat="47.71973" lon="-0.96467">
        <ele>85.78</ele>
        <time>2017-09-17T08:05:26Z</time>
      </trkpt>
      <trkpt lat="47.71954" lon="-0.96468">
        <ele>85.88</ele>
        <time>2017-09-17T08:05:29Z</time>
      </trkpt>
      <trkpt lat="47.71934" lon="-0.9647">
        <ele>85.88</ele>
        <time>2017-09-17T08:05:32Z</time>
      </trkpt>
      <trkpt lat="47.71912" lon="-0.96472">
        <ele>85.98</ele>
        <time>2017-09-17T08:05:35Z</time>
      </trkpt>
      <trkpt lat="47.71889" lon="-0.96477">
        <ele>85.45</ele>
        <time>2017-09-17T08:05:38Z</time>
      </trkpt>
      <trkpt lat="47.71868" lon="-0.96484">
        <ele>84.73</ele>
        <time>2017-09-17T08:05:41Z</time>
      </trkpt>
      <trkpt lat="47.71847" lon="-0.96491">
        <ele>83.7</ele>
        <time>2017-09-17T08:05:44Z</time>
      </trkpt>
      <trkpt lat="47.71826" lon="-0.96498">
        <ele>82.93</ele>
        <time>2017-09-17T08:05:47Z</time>
      </trkpt>
      <trkpt lat="47.71805" lon="-0.96505">
        <ele>82.9</ele>
        <time>2017-09-17T08:05:50Z</time>
      </trkpt>
      <trkpt lat="47.71784" lon="-0.96511">
        <ele>82.15</ele>
        <time>2017-09-17T08:05:53Z</time>
      </trkpt>
      <trkpt lat="47.7176" lon="-0.96517">
        <ele>81.16</ele>
        <time>2017-09-17T08:05:56Z</time>
      </trkpt>
      <trkpt lat="47.71736" lon="-0.96524">
        <ele>80.42</ele>
        <time>2017-09-17T08:05:59Z</time>
      </trkpt>
      <trkpt lat="47.71711" lon="-0.96532">
        <ele>80.08</ele>
        <time>2017-09-17T08:06:02Z</time>
      </trkpt>
      <trkpt lat="47.71687" lon="-0.96541">
        <ele>79.69</ele>
        <time>2017-09-17T08:06:05Z</time>
      </trkpt>
      <trkpt lat="47.71667" lon="-0.96551">
        <ele>79.39</ele>
        <time>2017-09-17T08:06:08Z</time>
      </trkpt>
      <trkpt lat="47.71649" lon="-0.9656">
        <ele>79.2</ele>
        <time>2017-09-17T08:06:11Z</time>
      </trkpt>
      <trkpt lat="47.71632" lon="-0.96567">
        <ele>78.63</ele>
        <time>2017-09-17T08:06:14Z</time>
      </trkpt>
      <trkpt lat="47.71614" lon="-0.96575">
        <ele>78.13</ele>
        <time>2017-09-17T08:06:17Z</time>
      </trkpt>
      <trkpt lat="47.71596" lon="-0.96585">
        <ele>78.18</ele>
        <time>2017-09-17T08:06:20Z</time>
      </trkpt>
      <trkpt lat="47.71578" lon="-0.96595">
        <ele>78.37</ele>
        <time>2017-09-17T08:06:23Z</time>
      </trkpt>
      <trkpt lat="47.71561" lon="-0.96604">
        <ele>78.65</ele>
        <time>2017-09-17T08:06:26Z</time>
      </trkpt>
      <trkpt lat="47.71544" lon="-0.96612">
        <ele>79.15</ele>
        <time>2017-09-17T08:06:30Z</time>
      </trkpt>
      <trkpt lat="47.71523" lon="-0.96619">
        <ele>79.46</ele>
        <time>2017-09-17T08:06:38Z</time>
      </trkpt>
      <trkpt lat="47.71506" lon="-0.96636">
        <ele>79.4</ele>
        <time>2017-09-17T08:06:43Z</time>
      </trkpt>
      <trkpt lat="47.71497" lon="-0.96661">
        <ele>78.47</ele>
        <time>2017-09-17T08:06:47Z</time>
      </trkpt>
      <trkpt lat="47.71482" lon="-0.96676">
        <ele>77.61</ele>
        <time>2017-09-17T08:06:51Z</time>
      </trkpt>
      <trkpt lat="47.71463" lon="-0.96672">
        <ele>77.3</ele>
        <time>2017-09-17T08:06:55Z</time>
      </trkpt>
      <trkpt lat="47.71442" lon="-0.96675">
        <ele>76.25</ele>
        <time>2017-09-17T08:07:01Z</time>
      </trkpt>
      <trkpt lat="47.71419" lon="-0.96681">
        <ele>74.3</ele>
        <time>2017-09-17T08:07:05Z</time>
      </trkpt>
      <trkpt lat="47.71398" lon="-0.96689">
        <ele>73.6</ele>
        <time>2017-09-17T08:07:09Z</time>
      </trkpt>
      <trkpt lat="47.71379" lon="-0.967">
        <ele>74.07</ele>
        <time>2017-09-17T08:07:14Z</time>
      </trkpt>
      <trkpt lat="47.71365" lon="-0.96718">
        <ele>73.8</ele>
        <time>2017-09-17T08:07:20Z</time>
      </trkpt>
      <trkpt lat="47.71358" lon="-0.96746">
        <ele>72.75</ele>
        <time>2017-09-17T08:07:25Z</time>
      </trkpt>
      <trkpt lat="47.71349" lon="-0.96772">
        <ele>72.56</ele>
        <time>2017-09-17T08:07:32Z</time>
      </trkpt>
      <trkpt lat="47.71334" lon="-0.96792">
        <ele>73.38</ele>
        <time>2017-09-17T08:07:39Z</time>
      </trkpt>
      <trkpt lat="47.71316" lon="-0.96802">
        <ele>73.75</ele>
        <time>2017-09-17T08:07:45Z</time>
      </trkpt>
      <trkpt lat="47.71296" lon="-0.96811">
        <ele>74.46</ele>
        <time>2017-09-17T08:07:52Z</time>
      </trkpt>
      <trkpt lat="47.71277" lon="-0.96818">
        <ele>75.43</ele>
        <time>2017-09-17T08:07:59Z</time>
      </trkpt>
      <trkpt lat="47.71258" lon="-0.96825">
        <ele>76.63</ele>
        <time>2017-09-17T08:08:06Z</time>
      </trkpt>
      <trkpt lat="47.71239" lon="-0.96833">
        <ele>78.03</ele>
        <time>2017-09-17T08:08:13Z</time>
      </trkpt>
      <trkpt lat="47.7122" lon="-0.9684">
        <ele>79.23</ele>
        <time>2017-09-17T08:08:20Z</time>
      </trkpt>
      <trkpt lat="47.71201" lon="-0.96846">
        <ele>80.73</ele>
        <time>2017-09-17T08:08:27Z</time>
      </trkpt>
      <trkpt lat="47.71182" lon="-0.96851">
        <ele>81.45</ele>
        <time>2017-09-17T08:08:33Z</time>
      </trkpt>
      <trkpt lat="47.71162" lon="-0.96857">
        <ele>81.68</ele>
        <time>2017-09-17T08:08:39Z</time>
      </trkpt>
      <trkpt lat="47.71142" lon="-0.96861">
        <ele>81.6</ele>
        <time>2017-09-17T08:08:44Z</time>
      </trkpt>
      <trkpt lat="47.71124" lon="-0.96864">
        <ele>80.83</ele>
        <time>2017-09-17T08:08:48Z</time>
      </trkpt>
      <trkpt lat="47.71106" lon="-0.96866">
        <ele>80.78</ele>
        <time>2017-09-17T08:08:52Z</time>
      </trkpt>
      <trkpt lat="47.71084" lon="-0.9687">
        <ele>80.86</ele>
        <time>2017-09-17T08:08:57Z</time>
      </trkpt>
      <trkpt lat="47.71066" lon="-0.96873">
        <ele>80.97</ele>
        <time>2017-09-17T08:09:01Z</time>
      </trkpt>
      <trkpt lat="47.71045" lon="-0.96877">
        <ele>81.18</ele>
        <time>2017-09-17T08:09:06Z</time>
      </trkpt>
      <trkpt lat="47.71026" lon="-0.96882">
        <ele>81.55</ele>
        <time>2017-09-17T08:09:11Z</time>
      </trkpt>
      <trkpt lat="47.71005" lon="-0.96891">
        <ele>82.07</ele>
        <time>2017-09-17T08:09:17Z</time>
      </trkpt>
      <trkpt lat="47.7099" lon="-0.96909">
        <ele>82.67</ele>
        <time>2017-09-17T08:09:23Z</time>
      </trkpt>
      <trkpt lat="47.7098" lon="-0.96933">
        <ele>83.53</ele>
        <time>2017-09-17T08:09:29Z</time>
      </trkpt>
      <trkpt lat="47.70971" lon="-0.96957">
        <ele>84.53</ele>
        <time>2017-09-17T08:09:35Z</time>
      </trkpt>
      <trkpt lat="47.70969" lon="-0.96985">
        <ele>85.07</ele>
        <time>2017-09-17T08:09:42Z</time>
      </trkpt>
      <trkpt lat="47.7096" lon="-0.97012">
        <ele>86.15</ele>
        <time>2017-09-17T08:09:49Z</time>
      </trkpt>
      <trkpt lat="47.7095" lon="-0.97038">
        <ele>87.25</ele>
        <time>2017-09-17T08:09:56Z</time>
      </trkpt>
      <trkpt lat="47.70942" lon="-0.97063">
        <ele>88.03</ele>
        <time>2017-09-17T08:10:02Z</time>
      </trkpt>
      <trkpt lat="47.70937" lon="-0.97089">
        <ele>88.85</ele>
        <time>2017-09-17T08:10:08Z</time>
      </trkpt>
      <trkpt lat="47.70932" lon="-0.97116">
        <ele>89.73</ele>
        <time>2017-09-17T08:10:14Z</time>
      </trkpt>
      <trkpt lat="47.70927" lon="-0.97144">
        <ele>90.93</ele>
        <time>2017-09-17T08:10:20Z</time>
      </trkpt>
      <trkpt lat="47.70922" lon="-0.97172">
        <ele>91.93</ele>
        <time>2017-09-17T08:10:26Z</time>
      </trkpt>
      <trkpt lat="47.70918" lon="-0.97201">
        <ele>92.45</ele>
        <time>2017-09-17T08:10:32Z</time>
      </trkpt>
      <trkpt lat="47.70929" lon="-0.97227">
        <ele>92.96</ele>
        <time>2017-09-17T08:10:38Z</time>
      </trkpt>
      <trkpt lat="47.70939" lon="-0.97253">
        <ele>93.08</ele>
        <time>2017-09-17T08:10:43Z</time>
      </trkpt>
      <trkpt lat="47.70949" lon="-0.97278">
        <ele>93.08</ele>
        <time>2017-09-17T08:10:47Z</time>
      </trkpt>
      <trkpt lat="47.7096" lon="-0.97304">
        <ele>93.08</ele>
        <time>2017-09-17T08:10:51Z</time>
      </trkpt>
      <trkpt lat="47.70971" lon="-0.97331">
        <ele>93.37</ele>
        <time>2017-09-17T08:10:55Z</time>
      </trkpt>
      <trkpt lat="47.70983" lon="-0.97358">
        <ele>93.2</ele>
        <time>2017-09-17T08:10:59Z</time>
      </trkpt>
      <trkpt lat="47.70996" lon="-0.97384">
        <ele>92.9</ele>
        <time>2017-09-17T08:11:03Z</time>
      </trkpt>
      <trkpt lat="47.7101" lon="-0.97412">
        <ele>92.32</ele>
        <time>2017-09-17T08:11:07Z</time>
      </trkpt>
      <trkpt lat="47.71023" lon="-0.97433">
        <ele>91.89</ele>
        <time>2017-09-17T08:11:10Z</time>
      </trkpt>
      <trkpt lat="47.71035" lon="-0.97457">
        <ele>91.76</ele>
        <time>2017-09-17T08:11:13Z</time>
      </trkpt>
      <trkpt lat="47.71047" lon="-0.97481">
        <ele>91.86</ele>
        <time>2017-09-17T08:11:16Z</time>
      </trkpt>
      <trkpt lat="47.71059" lon="-0.97505">
        <ele>92.13</ele>
        <time>2017-09-17T08:11:19Z</time>
      </trkpt>
      <trkpt lat="47.71076" lon="-0.97523">
        <ele>92.45</ele>
        <time>2017-09-17T08:11:22Z</time>
      </trkpt>
      <trkpt lat="47.71096" lon="-0.97536">
        <ele>92.56</ele>
        <time>2017-09-17T08:11:25Z</time>
      </trkpt>
      <trkpt lat="47.71118" lon="-0.97545">
        <ele>92.46</ele>
        <time>2017-09-17T08:11:28Z</time>
      </trkpt>
      <trkpt lat="47.71141" lon="-0.97553">
        <ele>91.45</ele>
        <time>2017-09-17T08:11:31Z</time>
      </trkpt>
      <trkpt lat="47.71165" lon="-0.9755">
        <ele>90.51</ele>
        <time>2017-09-17T08:11:34Z</time>
      </trkpt>
      <trkpt lat="47.7119" lon="-0.97534">
        <ele>87.27</ele>
        <time>2017-09-17T08:11:37Z</time>
      </trkpt>
      <trkpt lat="47.71214" lon="-0.9752">
        <ele>84.95</ele>
        <time>2017-09-17T08:11:40Z</time>
      </trkpt>
      <trkpt lat="47.71237" lon="-0.97507">
        <ele>83.66</ele>
        <time>2017-09-17T08:11:43Z</time>
      </trkpt>
      <trkpt lat="47.7126" lon="-0.97496">
        <ele>82.83</ele>
        <time>2017-09-17T08:11:46Z</time>
      </trkpt>
      <trkpt lat="47.71282" lon="-0.97486">
        <ele>82.86</ele>
        <time>2017-09-17T08:11:49Z</time>
      </trkpt>
      <trkpt lat="47.71302" lon="-0.97476">
        <ele>83.15</ele>
        <time>2017-09-17T08:11:52Z</time>
      </trkpt>
      <trkpt lat="47.71321" lon="-0.97468">
        <ele>83.36</ele>
        <time>2017-09-17T08:11:55Z</time>
      </trkpt>
      <trkpt lat="47.71339" lon="-0.9746">
        <ele>83.85</ele>
        <time>2017-09-17T08:11:58Z</time>
      </trkpt>
      <trkpt lat="47.71356" lon="-0.97454">
        <ele>84.07</ele>
        <time>2017-09-17T08:12:01Z</time>
      </trkpt>
      <trkpt lat="47.71377" lon="-0.97445">
        <ele>84.18</ele>
        <time>2017-09-17T08:12:05Z</time>
      </trkpt>
      <trkpt lat="47.71395" lon="-0.97438">
        <ele>84.53</ele>
        <time>2017-09-17T08:12:08Z</time>
      </trkpt>
      <trkpt lat="47.71417" lon="-0.97428">
        <ele>84.3</ele>
        <time>2017-09-17T08:12:12Z</time>
      </trkpt>
      <trkpt lat="47.71435" lon="-0.97422">
        <ele>84</ele>
        <time>2017-09-17T08:12:15Z</time>
      </trkpt>
      <trkpt lat="47.71457" lon="-0.97414">
        <ele>84.04</ele>
        <time>2017-09-17T08:12:18Z</time>
      </trkpt>
      <trkpt lat="47.71475" lon="-0.97407">
        <ele>84.18</ele>
        <time>2017-09-17T08:12:21Z</time>
      </trkpt>
      <trkpt lat="47.71499" lon="-0.97398">
        <ele>83.9</ele>
        <time>2017-09-17T08:12:25Z</time>
      </trkpt>
      <trkpt lat="47.71518" lon="-0.97389">
        <ele>83.72</ele>
        <time>2017-09-17T08:12:28Z</time>
      </trkpt>
      <trkpt lat="47.71536" lon="-0.9738">
        <ele>83.4</ele>
        <time>2017-09-17T08:12:31Z</time>
      </trkpt>
      <trkpt lat="47.71554" lon="-0.97374">
        <ele>83.44</ele>
        <time>2017-09-17T08:12:34Z</time>
      </trkpt>
      <trkpt lat="47.71574" lon="-0.97362">
        <ele>83.03</ele>
        <time>2017-09-17T08:12:38Z</time>
      </trkpt>
      <trkpt lat="47.71592" lon="-0.97374">
        <ele>81.85</ele>
        <time>2017-09-17T08:12:42Z</time>
      </trkpt>
      <trkpt lat="47.71604" lon="-0.97403">
        <ele>81.23</ele>
        <time>2017-09-17T08:12:46Z</time>
      </trkpt>
      <trkpt lat="47.71615" lon="-0.97434">
        <ele>81.42</ele>
        <time>2017-09-17T08:12:50Z</time>
      </trkpt>
      <trkpt lat="47.71614" lon="-0.97468">
        <ele>81.19</ele>
        <time>2017-09-17T08:12:55Z</time>
      </trkpt>
      <trkpt lat="47.71618" lon="-0.97496">
        <ele>80.83</ele>
        <time>2017-09-17T08:12:58Z</time>
      </trkpt>
      <trkpt lat="47.7162" lon="-0.97525">
        <ele>80.32</ele>
        <time>2017-09-17T08:13:01Z</time>
      </trkpt>
      <trkpt lat="47.7162" lon="-0.97557">
        <ele>79.78</ele>
        <time>2017-09-17T08:13:05Z</time>
      </trkpt>
      <trkpt lat="47.71622" lon="-0.9759">
        <ele>79.66</ele>
        <time>2017-09-17T08:13:09Z</time>
      </trkpt>
      <trkpt lat="47.71625" lon="-0.97617">
        <ele>79.5</ele>
        <time>2017-09-17T08:13:12Z</time>
      </trkpt>
      <trkpt lat="47.71631" lon="-0.9765">
        <ele>78.91</ele>
        <time>2017-09-17T08:13:16Z</time>
      </trkpt>
      <trkpt lat="47.71641" lon="-0.97679">
        <ele>78.38</ele>
        <time>2017-09-17T08:13:20Z</time>
      </trkpt>
      <trkpt lat="47.71648" lon="-0.97705">
        <ele>78.16</ele>
        <time>2017-09-17T08:13:24Z</time>
      </trkpt>
      <trkpt lat="47.71656" lon="-0.9773">
        <ele>77.8</ele>
        <time>2017-09-17T08:13:28Z</time>
      </trkpt>
      <trkpt lat="47.71667" lon="-0.97759">
        <ele>77.52</ele>
        <time>2017-09-17T08:13:33Z</time>
      </trkpt>
      <trkpt lat="47.71676" lon="-0.97783">
        <ele>77.38</ele>
        <time>2017-09-17T08:13:37Z</time>
      </trkpt>
      <trkpt lat="47.71688" lon="-0.97811">
        <ele>77.38</ele>
        <time>2017-09-17T08:13:42Z</time>
      </trkpt>
      <trkpt lat="47.717" lon="-0.97838">
        <ele>77.75</ele>
        <time>2017-09-17T08:13:47Z</time>
      </trkpt>
      <trkpt lat="47.71709" lon="-0.97863">
        <ele>78.06</ele>
        <time>2017-09-17T08:13:52Z</time>
      </trkpt>
      <trkpt lat="47.71719" lon="-0.97887">
        <ele>79.01</ele>
        <time>2017-09-17T08:13:57Z</time>
      </trkpt>
      <trkpt lat="47.7173" lon="-0.97915">
        <ele>80.03</ele>
        <time>2017-09-17T08:14:03Z</time>
      </trkpt>
      <trkpt lat="47.71738" lon="-0.9794">
        <ele>80.45</ele>
        <time>2017-09-17T08:14:08Z</time>
      </trkpt>
      <trkpt lat="47.71746" lon="-0.97967">
        <ele>81.05</ele>
        <time>2017-09-17T08:14:13Z</time>
      </trkpt>
      <trkpt lat="47.71754" lon="-0.97994">
        <ele>81.46</ele>
        <time>2017-09-17T08:14:18Z</time>
      </trkpt>
      <trkpt lat="47.71761" lon="-0.98023">
        <ele>82.07</ele>
        <time>2017-09-17T08:14:23Z</time>
      </trkpt>
      <trkpt lat="47.71769" lon="-0.98054">
        <ele>82.38</ele>
        <time>2017-09-17T08:14:28Z</time>
      </trkpt>
      <trkpt lat="47.71777" lon="-0.98085">
        <ele>82.85</ele>
        <time>2017-09-17T08:14:33Z</time>
      </trkpt>
      <trkpt lat="47.71785" lon="-0.9811">
        <ele>82.97</ele>
        <time>2017-09-17T08:14:37Z</time>
      </trkpt>
      <trkpt lat="47.71792" lon="-0.98141">
        <ele>83.35</ele>
        <time>2017-09-17T08:14:42Z</time>
      </trkpt>
      <trkpt lat="47.71801" lon="-0.98165">
        <ele>83.56</ele>
        <time>2017-09-17T08:14:46Z</time>
      </trkpt>
      <trkpt lat="47.71809" lon="-0.98192">
        <ele>83.77</ele>
        <time>2017-09-17T08:14:51Z</time>
      </trkpt>
      <trkpt lat="47.71818" lon="-0.98221">
        <ele>84.25</ele>
        <time>2017-09-17T08:14:56Z</time>
      </trkpt>
      <trkpt lat="47.71826" lon="-0.98246">
        <ele>84.48</ele>
        <time>2017-09-17T08:15:00Z</time>
      </trkpt>
      <trkpt lat="47.71834" lon="-0.98271">
        <ele>84.93</ele>
        <time>2017-09-17T08:15:04Z</time>
      </trkpt>
      <trkpt lat="47.71839" lon="-0.98301">
        <ele>85.28</ele>
        <time>2017-09-17T08:15:09Z</time>
      </trkpt>
      <trkpt lat="47.71822" lon="-0.98309">
        <ele>85.2</ele>
        <time>2017-09-17T08:15:13Z</time>
      </trkpt>
      <trkpt lat="47.71805" lon="-0.98321">
        <ele>84.72</ele>
        <time>2017-09-17T08:15:17Z</time>
      </trkpt>
      <trkpt lat="47.71789" lon="-0.98334">
        <ele>84.3</ele>
        <time>2017-09-17T08:15:23Z</time>
      </trkpt>
      <trkpt lat="47.71794" lon="-0.98364">
        <ele>85.67</ele>
        <time>2017-09-17T08:21:22Z</time>
      </trkpt>
      <trkpt lat="47.71799" lon="-0.98389">
        <ele>85.4</ele>
        <time>2017-09-17T08:21:26Z</time>
      </trkpt>
      <trkpt lat="47.71806" lon="-0.98416">
        <ele>85.1</ele>
        <time>2017-09-17T08:21:30Z</time>
      </trkpt>
      <trkpt lat="47.7181" lon="-0.98443">
        <ele>84.9</ele>
        <time>2017-09-17T08:21:34Z</time>
      </trkpt>
      <trkpt lat="47.71795" lon="-0.98459">
        <ele>85.26</ele>
        <time>2017-09-17T08:21:40Z</time>
      </trkpt>
      <trkpt lat="47.71774" lon="-0.98483">
        <ele>88.26</ele>
        <time>2017-09-17T08:22:00Z</time>
      </trkpt>
      <trkpt lat="47.71781" lon="-0.98512">
        <ele>89.47</ele>
        <time>2017-09-17T08:22:11Z</time>
      </trkpt>
      <trkpt lat="47.71781" lon="-0.98541">
        <ele>89.56</ele>
        <time>2017-09-17T08:22:19Z</time>
      </trkpt>
      <trkpt lat="47.71766" lon="-0.98561">
        <ele>90.35</ele>
        <time>2017-09-17T08:22:25Z</time>
      </trkpt>
      <trkpt lat="47.71748" lon="-0.98575">
        <ele>91.11</ele>
        <time>2017-09-17T08:22:31Z</time>
      </trkpt>
      <trkpt lat="47.71734" lon="-0.98598">
        <ele>92.07</ele>
        <time>2017-09-17T08:22:37Z</time>
      </trkpt>
      <trkpt lat="47.71712" lon="-0.98598">
        <ele>91.57</ele>
        <time>2017-09-17T08:22:44Z</time>
      </trkpt>
      <trkpt lat="47.71693" lon="-0.98601">
        <ele>90.43</ele>
        <time>2017-09-17T08:22:48Z</time>
      </trkpt>
      <trkpt lat="47.71673" lon="-0.98603">
        <ele>90.18</ele>
        <time>2017-09-17T08:22:53Z</time>
      </trkpt>
      <trkpt lat="47.71653" lon="-0.98614">
        <ele>90.27</ele>
        <time>2017-09-17T08:22:58Z</time>
      </trkpt>
      <trkpt lat="47.71634" lon="-0.98623">
        <ele>90.95</ele>
        <time>2017-09-17T08:23:03Z</time>
      </trkpt>
      <trkpt lat="47.71616" lon="-0.98632">
        <ele>91.08</ele>
        <time>2017-09-17T08:23:08Z</time>
      </trkpt>
      <trkpt lat="47.71598" lon="-0.9864">
        <ele>91.27</ele>
        <time>2017-09-17T08:23:13Z</time>
      </trkpt>
      <trkpt lat="47.71581" lon="-0.98657">
        <ele>91.38</ele>
        <time>2017-09-17T08:23:18Z</time>
      </trkpt>
      <trkpt lat="47.71565" lon="-0.98677">
        <ele>91.46</ele>
        <time>2017-09-17T08:23:23Z</time>
      </trkpt>
      <trkpt lat="47.71565" lon="-0.9871">
        <ele>91.12</ele>
        <time>2017-09-17T08:23:29Z</time>
      </trkpt>
      <trkpt lat="47.71569" lon="-0.98736">
        <ele>91.06</ele>
        <time>2017-09-17T08:23:33Z</time>
      </trkpt>
      <trkpt lat="47.7157" lon="-0.98763">
        <ele>91.45</ele>
        <time>2017-09-17T08:23:39Z</time>
      </trkpt>
      <trkpt lat="47.71572" lon="-0.98795">
        <ele>91.98</ele>
        <time>2017-09-17T08:23:45Z</time>
      </trkpt>
      <trkpt lat="47.7158" lon="-0.98823">
        <ele>91.8</ele>
        <time>2017-09-17T08:23:49Z</time>
      </trkpt>
      <trkpt lat="47.71587" lon="-0.98855">
        <ele>91.78</ele>
        <time>2017-09-17T08:23:53Z</time>
      </trkpt>
      <trkpt lat="47.71596" lon="-0.98886">
        <ele>92.45</ele>
        <time>2017-09-17T08:23:57Z</time>
      </trkpt>
      <trkpt lat="47.71605" lon="-0.98918">
        <ele>92.52</ele>
        <time>2017-09-17T08:24:01Z</time>
      </trkpt>
      <trkpt lat="47.71611" lon="-0.98944">
        <ele>92.01</ele>
        <time>2017-09-17T08:24:04Z</time>
      </trkpt>
      <trkpt lat="47.71617" lon="-0.9897">
        <ele>91.78</ele>
        <time>2017-09-17T08:24:07Z</time>
      </trkpt>
      <trkpt lat="47.71623" lon="-0.98997">
        <ele>91.21</ele>
        <time>2017-09-17T08:24:10Z</time>
      </trkpt>
      <trkpt lat="47.71629" lon="-0.99024">
        <ele>90.98</ele>
        <time>2017-09-17T08:24:13Z</time>
      </trkpt>
      <trkpt lat="47.71636" lon="-0.99052">
        <ele>91.16</ele>
        <time>2017-09-17T08:24:16Z</time>
      </trkpt>
      <trkpt lat="47.71645" lon="-0.99082">
        <ele>91.38</ele>
        <time>2017-09-17T08:24:20Z</time>
      </trkpt>
      <trkpt lat="47.71633" lon="-0.99104">
        <ele>93.23</ele>
        <time>2017-09-17T08:24:29Z</time>
      </trkpt>
      <trkpt lat="47.7162" lon="-0.99127">
        <ele>93.6</ele>
        <time>2017-09-17T08:24:37Z</time>
      </trkpt>
      <trkpt lat="47.71611" lon="-0.99152">
        <ele>91.81</ele>
        <time>2017-09-17T08:24:46Z</time>
      </trkpt>
      <trkpt lat="47.71593" lon="-0.99178">
        <ele>88.66</ele>
        <time>2017-09-17T08:24:59Z</time>
      </trkpt>
      <trkpt lat="47.71589" lon="-0.99206">
        <ele>86.1</ele>
        <time>2017-09-17T08:25:06Z</time>
      </trkpt>
      <trkpt lat="47.71573" lon="-0.99222">
        <ele>83.83</ele>
        <time>2017-09-17T08:25:16Z</time>
      </trkpt>
      <trkpt lat="47.71554" lon="-0.99247">
        <ele>81.18</ele>
        <time>2017-09-17T08:25:30Z</time>
      </trkpt>
      <trkpt lat="47.71539" lon="-0.99266">
        <ele>78.18</ele>
        <time>2017-09-17T08:25:42Z</time>
      </trkpt>
      <trkpt lat="47.71528" lon="-0.99296">
        <ele>74.14</ele>
        <time>2017-09-17T08:25:58Z</time>
      </trkpt>
      <trkpt lat="47.71512" lon="-0.99312">
        <ele>70.48</ele>
        <time>2017-09-17T08:26:08Z</time>
      </trkpt>
      <trkpt lat="47.71495" lon="-0.99327">
        <ele>67.43</ele>
        <time>2017-09-17T08:26:15Z</time>
      </trkpt>
      <trkpt lat="47.71482" lon="-0.99346">
        <ele>65.23</ele>
        <time>2017-09-17T08:26:23Z</time>
      </trkpt>
      <trkpt lat="47.7149" lon="-0.99371">
        <ele>64.56</ele>
        <time>2017-09-17T08:26:29Z</time>
      </trkpt>
      <trkpt lat="47.71504" lon="-0.99389">
        <ele>62.65</ele>
        <time>2017-09-17T08:26:35Z</time>
      </trkpt>
      <trkpt lat="47.7152" lon="-0.99401">
        <ele>61.7</ele>
        <time>2017-09-17T08:26:43Z</time>
      </trkpt>
      <trkpt lat="47.71536" lon="-0.99414">
        <ele>61.1</ele>
        <time>2017-09-17T08:26:51Z</time>
      </trkpt>
      <trkpt lat="47.71554" lon="-0.99424">
        <ele>60.8</ele>
        <time>2017-09-17T08:26:58Z</time>
      </trkpt>
      <trkpt lat="47.71572" lon="-0.99428">
        <ele>59.44</ele>
        <time>2017-09-17T08:27:04Z</time>
      </trkpt>
      <trkpt lat="47.71591" lon="-0.99433">
        <ele>58.4</ele>
        <time>2017-09-17T08:27:10Z</time>
      </trkpt>
      <trkpt lat="47.71607" lon="-0.9945">
        <ele>57.75</ele>
        <time>2017-09-17T08:27:16Z</time>
      </trkpt>
      <trkpt lat="47.71624" lon="-0.99462">
        <ele>57.57</ele>
        <time>2017-09-17T08:27:22Z</time>
      </trkpt>
      <trkpt lat="47.71644" lon="-0.99468">
        <ele>57.86</ele>
        <time>2017-09-17T08:27:29Z</time>
      </trkpt>
      <trkpt lat="47.71665" lon="-0.99466">
        <ele>58.03</ele>
        <time>2017-09-17T08:27:37Z</time>
      </trkpt>
      <trkpt lat="47.71683" lon="-0.9948">
        <ele>56.13</ele>
        <time>2017-09-17T08:27:43Z</time>
      </trkpt>
      <trkpt lat="47.71694" lon="-0.99504">
        <ele>54.97</ele>
        <time>2017-09-17T08:27:48Z</time>
      </trkpt>
      <trkpt lat="47.71703" lon="-0.9953">
        <ele>54.08</ele>
        <time>2017-09-17T08:27:53Z</time>
      </trkpt>
      <trkpt lat="47.71712" lon="-0.99558">
        <ele>53.74</ele>
        <time>2017-09-17T08:27:58Z</time>
      </trkpt>
      <trkpt lat="47.71719" lon="-0.99584">
        <ele>53.47</ele>
        <time>2017-09-17T08:28:04Z</time>
      </trkpt>
      <trkpt lat="47.71712" lon="-0.99609">
        <ele>55.25</ele>
        <time>2017-09-17T08:28:16Z</time>
      </trkpt>
      <trkpt lat="47.71719" lon="-0.99639">
        <ele>55.3</ele>
        <time>2017-09-17T08:28:24Z</time>
      </trkpt>
      <trkpt lat="47.71718" lon="-0.99669">
        <ele>55.12</ele>
        <time>2017-09-17T08:28:32Z</time>
      </trkpt>
      <trkpt lat="47.7172" lon="-0.99696">
        <ele>54.49</ele>
        <time>2017-09-17T08:28:39Z</time>
      </trkpt>
      <trkpt lat="47.71727" lon="-0.99722">
        <ele>54.02</ele>
        <time>2017-09-17T08:28:46Z</time>
      </trkpt>
      <trkpt lat="47.71737" lon="-0.99747">
        <ele>52.64</ele>
        <time>2017-09-17T08:28:54Z</time>
      </trkpt>
      <trkpt lat="47.71732" lon="-0.99773">
        <ele>51.39</ele>
        <time>2017-09-17T08:29:04Z</time>
      </trkpt>
      <trkpt lat="47.71713" lon="-0.99777">
        <ele>52.94</ele>
        <time>2017-09-17T08:29:14Z</time>
      </trkpt>
      <trkpt lat="47.71704" lon="-0.99753">
        <ele>61.83</ele>
        <time>2017-09-17T08:29:30Z</time>
      </trkpt>
      <trkpt lat="47.71699" lon="-0.99725">
        <ele>73.37</ele>
        <time>2017-09-17T08:29:44Z</time>
      </trkpt>
      <trkpt lat="47.71681" lon="-0.9972">
        <ele>80.54</ele>
        <time>2017-09-17T08:30:01Z</time>
      </trkpt>
      <trkpt lat="47.71684" lon="-0.99748">
        <ele>81.66</ele>
        <time>2017-09-17T08:30:10Z</time>
      </trkpt>
      <trkpt lat="47.71666" lon="-0.99759">
        <ele>83.66</ele>
        <time>2017-09-17T08:30:23Z</time>
      </trkpt>
      <trkpt lat="47.71643" lon="-0.99744">
        <ele>89.26</ele>
        <time>2017-09-17T08:30:35Z</time>
      </trkpt>
      <trkpt lat="47.71626" lon="-0.99758">
        <ele>92.19</ele>
        <time>2017-09-17T08:30:47Z</time>
      </trkpt>
      <trkpt lat="47.7162" lon="-0.99786">
        <ele>92.1</ele>
        <time>2017-09-17T08:30:55Z</time>
      </trkpt>
      <trkpt lat="47.71614" lon="-0.99813">
        <ele>91.55</ele>
        <time>2017-09-17T08:31:03Z</time>
      </trkpt>
      <trkpt lat="47.71596" lon="-0.99826">
        <ele>90.61</ele>
        <time>2017-09-17T08:31:11Z</time>
      </trkpt>
      <trkpt lat="47.71581" lon="-0.99843">
        <ele>89.84</ele>
        <time>2017-09-17T08:31:18Z</time>
      </trkpt>
      <trkpt lat="47.71566" lon="-0.99865">
        <ele>88.38</ele>
        <time>2017-09-17T08:31:24Z</time>
      </trkpt>
      <trkpt lat="47.71575" lon="-0.99889">
        <ele>89.51</ele>
        <time>2017-09-17T08:31:32Z</time>
      </trkpt>
      <trkpt lat="47.71587" lon="-0.99912">
        <ele>91.3</ele>
        <time>2017-09-17T08:31:39Z</time>
      </trkpt>
      <trkpt lat="47.71598" lon="-0.99934">
        <ele>92.97</ele>
        <time>2017-09-17T08:31:45Z</time>
      </trkpt>
      <trkpt lat="47.71607" lon="-0.99957">
        <ele>92.98</ele>
        <time>2017-09-17T08:31:52Z</time>
      </trkpt>
      <trkpt lat="47.71627" lon="-0.99962">
        <ele>93.25</ele>
        <time>2017-09-17T08:31:59Z</time>
      </trkpt>
      <trkpt lat="47.71648" lon="-0.99955">
        <ele>93.47</ele>
        <time>2017-09-17T08:32:05Z</time>
      </trkpt>
      <trkpt lat="47.7167" lon="-0.99949">
        <ele>94.69</ele>
        <time>2017-09-17T08:32:10Z</time>
      </trkpt>
      <trkpt lat="47.7169" lon="-0.99936">
        <ele>96.02</ele>
        <time>2017-09-17T08:32:14Z</time>
      </trkpt>
      <trkpt lat="47.71707" lon="-0.99928">
        <ele>96.18</ele>
        <time>2017-09-17T08:32:18Z</time>
      </trkpt>
      <trkpt lat="47.71726" lon="-0.99912">
        <ele>96.08</ele>
        <time>2017-09-17T08:32:23Z</time>
      </trkpt>
      <trkpt lat="47.71746" lon="-0.99896">
        <ele>96.46</ele>
        <time>2017-09-17T08:32:29Z</time>
      </trkpt>
      <trkpt lat="47.71758" lon="-0.99875">
        <ele>96.38</ele>
        <time>2017-09-17T08:32:32Z</time>
      </trkpt>
      <trkpt lat="47.7177" lon="-0.99846">
        <ele>95.16</ele>
        <time>2017-09-17T08:32:35Z</time>
      </trkpt>
      <trkpt lat="47.71782" lon="-0.99819">
        <ele>94.88</ele>
        <time>2017-09-17T08:32:38Z</time>
      </trkpt>
      <trkpt lat="47.71793" lon="-0.99795">
        <ele>94.98</ele>
        <time>2017-09-17T08:32:41Z</time>
      </trkpt>
      <trkpt lat="47.71803" lon="-0.99769">
        <ele>95.59</ele>
        <time>2017-09-17T08:32:45Z</time>
      </trkpt>
      <trkpt lat="47.71814" lon="-0.99791">
        <ele>95.88</ele>
        <time>2017-09-17T08:32:54Z</time>
      </trkpt>
      <trkpt lat="47.71823" lon="-0.99816">
        <ele>96.41</ele>
        <time>2017-09-17T08:32:58Z</time>
      </trkpt>
      <trkpt lat="47.71832" lon="-0.99843">
        <ele>97.72</ele>
        <time>2017-09-17T08:33:03Z</time>
      </trkpt>
      <trkpt lat="47.71838" lon="-0.99872">
        <ele>98.61</ele>
        <time>2017-09-17T08:33:08Z</time>
      </trkpt>
      <trkpt lat="47.71844" lon="-0.999">
        <ele>99.81</ele>
        <time>2017-09-17T08:33:13Z</time>
      </trkpt>
      <trkpt lat="47.71851" lon="-0.99929">
        <ele>100.85</ele>
        <time>2017-09-17T08:33:18Z</time>
      </trkpt>
      <trkpt lat="47.71856" lon="-0.99956">
        <ele>101.33</ele>
        <time>2017-09-17T08:33:22Z</time>
      </trkpt>
      <trkpt lat="47.71864" lon="-0.99981">
        <ele>102.13</ele>
        <time>2017-09-17T08:33:27Z</time>
      </trkpt>
      <trkpt lat="47.71871" lon="-1.00006">
        <ele>102.48</ele>
        <time>2017-09-17T08:33:32Z</time>
      </trkpt>
      <trkpt lat="47.71879" lon="-1.00033">
        <ele>102.21</ele>
        <time>2017-09-17T08:33:36Z</time>
      </trkpt>
      <trkpt lat="47.71888" lon="-1.00062">
        <ele>101.88</ele>
        <time>2017-09-17T08:33:40Z</time>
      </trkpt>
      <trkpt lat="47.71897" lon="-1.00093">
        <ele>102.25</ele>
        <time>2017-09-17T08:33:44Z</time>
      </trkpt>
      <trkpt lat="47.71902" lon="-1.00122">
        <ele>101.94</ele>
        <time>2017-09-17T08:33:48Z</time>
      </trkpt>
      <trkpt lat="47.71908" lon="-1.00157">
        <ele>100.49</ele>
        <time>2017-09-17T08:33:52Z</time>
      </trkpt>
      <trkpt lat="47.71918" lon="-1.00182">
        <ele>100.63</ele>
        <time>2017-09-17T08:33:57Z</time>
      </trkpt>
      <trkpt lat="47.71934" lon="-1.00168">
        <ele>102.85</ele>
        <time>2017-09-17T08:34:09Z</time>
      </trkpt>
      <trkpt lat="47.71951" lon="-1.0016">
        <ele>103.58</ele>
        <time>2017-09-17T08:34:16Z</time>
      </trkpt>
      <trkpt lat="47.71971" lon="-1.00153">
        <ele>104.06</ele>
        <time>2017-09-17T08:34:24Z</time>
      </trkpt>
      <trkpt lat="47.71988" lon="-1.00132">
        <ele>104.7</ele>
        <time>2017-09-17T08:34:31Z</time>
      </trkpt>
      <trkpt lat="47.72002" lon="-1.00113">
        <ele>104.51</ele>
        <time>2017-09-17T08:34:36Z</time>
      </trkpt>
      <trkpt lat="47.72017" lon="-1.00097">
        <ele>103.43</ele>
        <time>2017-09-17T08:34:42Z</time>
      </trkpt>
      <trkpt lat="47.72035" lon="-1.00091">
        <ele>101.65</ele>
        <time>2017-09-17T08:34:48Z</time>
      </trkpt>
      <trkpt lat="47.72054" lon="-1.00083">
        <ele>100.68</ele>
        <time>2017-09-17T08:34:54Z</time>
      </trkpt>
      <trkpt lat="47.72069" lon="-1.00064">
        <ele>99.7</ele>
        <time>2017-09-17T08:34:58Z</time>
      </trkpt>
      <trkpt lat="47.72086" lon="-1.00037">
        <ele>98</ele>
        <time>2017-09-17T08:35:02Z</time>
      </trkpt>
      <trkpt lat="47.72097" lon="-1.00016">
        <ele>96.5</ele>
        <time>2017-09-17T08:35:05Z</time>
      </trkpt>
      <trkpt lat="47.72107" lon="-0.99993">
        <ele>95.2</ele>
        <time>2017-09-17T08:35:08Z</time>
      </trkpt>
      <trkpt lat="47.7212" lon="-0.99966">
        <ele>93.56</ele>
        <time>2017-09-17T08:35:12Z</time>
      </trkpt>
      <trkpt lat="47.72131" lon="-0.99944">
        <ele>92.25</ele>
        <time>2017-09-17T08:35:16Z</time>
      </trkpt>
      <trkpt lat="47.72144" lon="-0.9992">
        <ele>90.96</ele>
        <time>2017-09-17T08:35:20Z</time>
      </trkpt>
      <trkpt lat="47.72158" lon="-0.99895">
        <ele>89.24</ele>
        <time>2017-09-17T08:35:25Z</time>
      </trkpt>
      <trkpt lat="47.72171" lon="-0.99874">
        <ele>88.85</ele>
        <time>2017-09-17T08:35:31Z</time>
      </trkpt>
      <trkpt lat="47.72176" lon="-0.99845">
        <ele>88.86</ele>
        <time>2017-09-17T08:35:37Z</time>
      </trkpt>
      <trkpt lat="47.72184" lon="-0.99814">
        <ele>89.35</ele>
        <time>2017-09-17T08:35:42Z</time>
      </trkpt>
      <trkpt lat="47.72191" lon="-0.99785">
        <ele>89.58</ele>
        <time>2017-09-17T08:35:46Z</time>
      </trkpt>
      <trkpt lat="47.72205" lon="-0.99763">
        <ele>89.58</ele>
        <time>2017-09-17T08:35:51Z</time>
      </trkpt>
      <trkpt lat="47.72222" lon="-0.9975">
        <ele>89.12</ele>
        <time>2017-09-17T08:35:56Z</time>
      </trkpt>
      <trkpt lat="47.7224" lon="-0.99769">
        <ele>88.31</ele>
        <time>2017-09-17T08:36:01Z</time>
      </trkpt>
      <trkpt lat="47.72257" lon="-0.99785">
        <ele>87.13</ele>
        <time>2017-09-17T08:36:06Z</time>
      </trkpt>
      <trkpt lat="47.72275" lon="-0.99792">
        <ele>85.83</ele>
        <time>2017-09-17T08:36:10Z</time>
      </trkpt>
      <trkpt lat="47.72297" lon="-0.99798">
        <ele>84.83</ele>
        <time>2017-09-17T08:36:14Z</time>
      </trkpt>
      <trkpt lat="47.72316" lon="-0.99802">
        <ele>83.94</ele>
        <time>2017-09-17T08:36:17Z</time>
      </trkpt>
      <trkpt lat="47.72334" lon="-0.99809">
        <ele>83.52</ele>
        <time>2017-09-17T08:36:20Z</time>
      </trkpt>
      <trkpt lat="47.72355" lon="-0.99815">
        <ele>83.14</ele>
        <time>2017-09-17T08:36:23Z</time>
      </trkpt>
      <trkpt lat="47.72379" lon="-0.99819">
        <ele>82.69</ele>
        <time>2017-09-17T08:36:26Z</time>
      </trkpt>
      <trkpt lat="47.724" lon="-0.99823">
        <ele>82.38</ele>
        <time>2017-09-17T08:36:29Z</time>
      </trkpt>
      <trkpt lat="47.72422" lon="-0.99827">
        <ele>82.2</ele>
        <time>2017-09-17T08:36:33Z</time>
      </trkpt>
      <trkpt lat="47.72435" lon="-0.99852">
        <ele>81.78</ele>
        <time>2017-09-17T08:36:41Z</time>
      </trkpt>
      <trkpt lat="47.72456" lon="-0.99859">
        <ele>81.61</ele>
        <time>2017-09-17T08:36:47Z</time>
      </trkpt>
      <trkpt lat="47.72474" lon="-0.99865">
        <ele>79.94</ele>
        <time>2017-09-17T08:36:51Z</time>
      </trkpt>
      <trkpt lat="47.72475" lon="-0.99896">
        <ele>79.88</ele>
        <time>2017-09-17T08:36:59Z</time>
      </trkpt>
      <trkpt lat="47.72473" lon="-0.99926">
        <ele>80.65</ele>
        <time>2017-09-17T08:37:06Z</time>
      </trkpt>
      <trkpt lat="47.72473" lon="-0.99955">
        <ele>81.43</ele>
        <time>2017-09-17T08:37:14Z</time>
      </trkpt>
      <trkpt lat="47.72465" lon="-0.99979">
        <ele>84.7</ele>
        <time>2017-09-17T08:37:25Z</time>
      </trkpt>
      <trkpt lat="47.72458" lon="-1.00006">
        <ele>86.83</ele>
        <time>2017-09-17T08:37:34Z</time>
      </trkpt>
      <trkpt lat="47.72448" lon="-1.0003">
        <ele>88.61</ele>
        <time>2017-09-17T08:37:42Z</time>
      </trkpt>
      <trkpt lat="47.72432" lon="-1.00052">
        <ele>89.65</ele>
        <time>2017-09-17T08:37:47Z</time>
      </trkpt>
      <trkpt lat="47.72418" lon="-1.00075">
        <ele>90.25</ele>
        <time>2017-09-17T08:37:52Z</time>
      </trkpt>
      <trkpt lat="47.72401" lon="-1.00089">
        <ele>91.13</ele>
        <time>2017-09-17T08:37:57Z</time>
      </trkpt>
      <trkpt lat="47.72382" lon="-1.00096">
        <ele>91.85</ele>
        <time>2017-09-17T08:38:03Z</time>
      </trkpt>
      <trkpt lat="47.72364" lon="-1.00104">
        <ele>92.08</ele>
        <time>2017-09-17T08:38:09Z</time>
      </trkpt>
      <trkpt lat="47.72344" lon="-1.0011">
        <ele>91.7</ele>
        <time>2017-09-17T08:38:16Z</time>
      </trkpt>
      <trkpt lat="47.72325" lon="-1.00121">
        <ele>90.61</ele>
        <time>2017-09-17T08:38:22Z</time>
      </trkpt>
      <trkpt lat="47.72307" lon="-1.0013">
        <ele>90.08</ele>
        <time>2017-09-17T08:38:28Z</time>
      </trkpt>
      <trkpt lat="47.72288" lon="-1.0014">
        <ele>89.45</ele>
        <time>2017-09-17T08:38:34Z</time>
      </trkpt>
      <trkpt lat="47.7227" lon="-1.00147">
        <ele>88.07</ele>
        <time>2017-09-17T08:38:39Z</time>
      </trkpt>
      <trkpt lat="47.72252" lon="-1.00159">
        <ele>86.81</ele>
        <time>2017-09-17T08:38:44Z</time>
      </trkpt>
      <trkpt lat="47.7223" lon="-1.00171">
        <ele>85.34</ele>
        <time>2017-09-17T08:38:50Z</time>
      </trkpt>
      <trkpt lat="47.72212" lon="-1.00179">
        <ele>84.2</ele>
        <time>2017-09-17T08:38:55Z</time>
      </trkpt>
      <trkpt lat="47.72193" lon="-1.0019">
        <ele>83.7</ele>
        <time>2017-09-17T08:39:01Z</time>
      </trkpt>
      <trkpt lat="47.72173" lon="-1.00202">
        <ele>82.82</ele>
        <time>2017-09-17T08:39:07Z</time>
      </trkpt>
      <trkpt lat="47.72155" lon="-1.00215">
        <ele>82.36</ele>
        <time>2017-09-17T08:39:13Z</time>
      </trkpt>
      <trkpt lat="47.72136" lon="-1.0022">
        <ele>82.25</ele>
        <time>2017-09-17T08:39:19Z</time>
      </trkpt>
      <trkpt lat="47.72116" lon="-1.00228">
        <ele>82.66</ele>
        <time>2017-09-17T08:39:26Z</time>
      </trkpt>
      <trkpt lat="47.72097" lon="-1.00237">
        <ele>81.8</ele>
        <time>2017-09-17T08:39:33Z</time>
      </trkpt>
      <trkpt lat="47.72079" lon="-1.00245">
        <ele>81.41</ele>
        <time>2017-09-17T08:39:38Z</time>
      </trkpt>
      <trkpt lat="47.72059" lon="-1.00255">
        <ele>80.72</ele>
        <time>2017-09-17T08:39:44Z</time>
      </trkpt>
      <trkpt lat="47.72041" lon="-1.00263">
        <ele>80.3</ele>
        <time>2017-09-17T08:39:48Z</time>
      </trkpt>
      <trkpt lat="47.72023" lon="-1.00273">
        <ele>79.98</ele>
        <time>2017-09-17T08:39:52Z</time>
      </trkpt>
      <trkpt lat="47.72005" lon="-1.00284">
        <ele>79.78</ele>
        <time>2017-09-17T08:39:57Z</time>
      </trkpt>
      <trkpt lat="47.71987" lon="-1.00296">
        <ele>80.47</ele>
        <time>2017-09-17T08:40:03Z</time>
      </trkpt>
      <trkpt lat="47.71969" lon="-1.00305">
        <ele>80.93</ele>
        <time>2017-09-17T08:40:12Z</time>
      </trkpt>
      <trkpt lat="47.71951" lon="-1.00312">
        <ele>81.12</ele>
        <time>2017-09-17T08:40:20Z</time>
      </trkpt>
      <trkpt lat="47.71933" lon="-1.00323">
        <ele>81.26</ele>
        <time>2017-09-17T08:40:25Z</time>
      </trkpt>
      <trkpt lat="47.71916" lon="-1.00335">
        <ele>81.24</ele>
        <time>2017-09-17T08:40:32Z</time>
      </trkpt>
      <trkpt lat="47.71897" lon="-1.00344">
        <ele>82.06</ele>
        <time>2017-09-17T08:40:38Z</time>
      </trkpt>
      <trkpt lat="47.71879" lon="-1.00352">
        <ele>83.47</ele>
        <time>2017-09-17T08:40:44Z</time>
      </trkpt>
      <trkpt lat="47.7186" lon="-1.00362">
        <ele>82.67</ele>
        <time>2017-09-17T08:40:51Z</time>
      </trkpt>
      <trkpt lat="47.71842" lon="-1.00371">
        <ele>82.2</ele>
        <time>2017-09-17T08:40:58Z</time>
      </trkpt>
      <trkpt lat="47.71823" lon="-1.00363">
        <ele>83.46</ele>
        <time>2017-09-17T08:41:05Z</time>
      </trkpt>
      <trkpt lat="47.71804" lon="-1.00351">
        <ele>85.84</ele>
        <time>2017-09-17T08:41:13Z</time>
      </trkpt>
      <trkpt lat="47.71784" lon="-1.00343">
        <ele>86.61</ele>
        <time>2017-09-17T08:41:18Z</time>
      </trkpt>
      <trkpt lat="47.71767" lon="-1.00334">
        <ele>86.24</ele>
        <time>2017-09-17T08:41:22Z</time>
      </trkpt>
      <trkpt lat="47.71748" lon="-1.00327">
        <ele>86.2</ele>
        <time>2017-09-17T08:41:27Z</time>
      </trkpt>
      <trkpt lat="47.71732" lon="-1.00317">
        <ele>88.49</ele>
        <time>2017-09-17T08:41:32Z</time>
      </trkpt>
      <trkpt lat="47.71713" lon="-1.00305">
        <ele>89.4</ele>
        <time>2017-09-17T08:41:39Z</time>
      </trkpt>
      <trkpt lat="47.71694" lon="-1.00292">
        <ele>90.94</ele>
        <time>2017-09-17T08:41:46Z</time>
      </trkpt>
      <trkpt lat="47.71675" lon="-1.00276">
        <ele>90.78</ele>
        <time>2017-09-17T08:41:50Z</time>
      </trkpt>
      <trkpt lat="47.71655" lon="-1.00262">
        <ele>90.39</ele>
        <time>2017-09-17T08:41:55Z</time>
      </trkpt>
      <trkpt lat="47.71636" lon="-1.00249">
        <ele>90.97</ele>
        <time>2017-09-17T08:42:00Z</time>
      </trkpt>
      <trkpt lat="47.7162" lon="-1.00234">
        <ele>91.25</ele>
        <time>2017-09-17T08:42:05Z</time>
      </trkpt>
      <trkpt lat="47.71605" lon="-1.00219">
        <ele>92.13</ele>
        <time>2017-09-17T08:42:10Z</time>
      </trkpt>
      <trkpt lat="47.71589" lon="-1.00203">
        <ele>93.14</ele>
        <time>2017-09-17T08:42:15Z</time>
      </trkpt>
      <trkpt lat="47.71572" lon="-1.00189">
        <ele>93.58</ele>
        <time>2017-09-17T08:42:19Z</time>
      </trkpt>
      <trkpt lat="47.71557" lon="-1.00175">
        <ele>94.15</ele>
        <time>2017-09-17T08:42:23Z</time>
      </trkpt>
      <trkpt lat="47.71532" lon="-1.00158">
        <ele>93.39</ele>
        <time>2017-09-17T08:42:27Z</time>
      </trkpt>
      <trkpt lat="47.71511" lon="-1.00148">
        <ele>92.24</ele>
        <time>2017-09-17T08:42:30Z</time>
      </trkpt>
      <trkpt lat="47.7149" lon="-1.00138">
        <ele>92.24</ele>
        <time>2017-09-17T08:42:42Z</time>
      </trkpt>
      <trkpt lat="47.71476" lon="-1.00113">
        <ele>94.96</ele>
        <time>2017-09-17T08:42:50Z</time>
      </trkpt>
      <trkpt lat="47.71463" lon="-1.00091">
        <ele>96.82</ele>
        <time>2017-09-17T08:42:56Z</time>
      </trkpt>
      <trkpt lat="47.7146" lon="-1.00061">
        <ele>103.09</ele>
        <time>2017-09-17T08:43:11Z</time>
      </trkpt>
      <trkpt lat="47.71449" lon="-1.00038">
        <ele>107.66</ele>
        <time>2017-09-17T08:43:22Z</time>
      </trkpt>
      <trkpt lat="47.71442" lon="-1.00011">
        <ele>108.45</ele>
        <time>2017-09-17T08:43:28Z</time>
      </trkpt>
      <trkpt lat="47.71437" lon="-0.99985">
        <ele>108.51</ele>
        <time>2017-09-17T08:43:33Z</time>
      </trkpt>
      <trkpt lat="47.7143" lon="-0.99957">
        <ele>109.92</ele>
        <time>2017-09-17T08:43:38Z</time>
      </trkpt>
      <trkpt lat="47.71423" lon="-0.99929">
        <ele>111.3</ele>
        <time>2017-09-17T08:43:43Z</time>
      </trkpt>
      <trkpt lat="47.71413" lon="-0.99906">
        <ele>112.72</ele>
        <time>2017-09-17T08:43:48Z</time>
      </trkpt>
      <trkpt lat="47.71398" lon="-0.99882">
        <ele>113.93</ele>
        <time>2017-09-17T08:43:53Z</time>
      </trkpt>
      <trkpt lat="47.71384" lon="-0.99864">
        <ele>113.71</ele>
        <time>2017-09-17T08:43:56Z</time>
      </trkpt>
      <trkpt lat="47.71366" lon="-0.99851">
        <ele>111.62</ele>
        <time>2017-09-17T08:44:00Z</time>
      </trkpt>
      <trkpt lat="47.71346" lon="-0.99852">
        <ele>111.61</ele>
        <time>2017-09-17T08:44:05Z</time>
      </trkpt>
      <trkpt lat="47.71325" lon="-0.99864">
        <ele>111.35</ele>
        <time>2017-09-17T08:44:10Z</time>
      </trkpt>
      <trkpt lat="47.71306" lon="-0.99872">
        <ele>110.35</ele>
        <time>2017-09-17T08:44:14Z</time>
      </trkpt>
      <trkpt lat="47.71288" lon="-0.9988">
        <ele>108.83</ele>
        <time>2017-09-17T08:44:18Z</time>
      </trkpt>
      <trkpt lat="47.71307" lon="-0.99877">
        <ele>109.8</ele>
        <time>2017-09-17T08:44:43Z</time>
      </trkpt>
      <trkpt lat="47.71328" lon="-0.9987">
        <ele>110.13</ele>
        <time>2017-09-17T08:44:49Z</time>
      </trkpt>
      <trkpt lat="47.71346" lon="-0.99859">
        <ele>109.79</ele>
        <time>2017-09-17T08:44:54Z</time>
      </trkpt>
      <trkpt lat="47.71365" lon="-0.99858">
        <ele>110.19</ele>
        <time>2017-09-17T08:45:05Z</time>
      </trkpt>
      <trkpt lat="47.71369" lon="-0.99832">
        <ele>111.66</ele>
        <time>2017-09-17T08:45:20Z</time>
      </trkpt>
      <trkpt lat="47.71362" lon="-0.99857">
        <ele>113.73</ele>
        <time>2017-09-17T08:45:46Z</time>
      </trkpt>
      <trkpt lat="47.71367" lon="-0.9983">
        <ele>114.3</ele>
        <time>2017-09-17T08:48:23Z</time>
      </trkpt>
      <trkpt lat="47.71373" lon="-0.99802">
        <ele>114.34</ele>
        <time>2017-09-17T08:48:31Z</time>
      </trkpt>
      <trkpt lat="47.71377" lon="-0.99772">
        <ele>114.49</ele>
        <time>2017-09-17T08:48:37Z</time>
      </trkpt>
      <trkpt lat="47.71382" lon="-0.99746">
        <ele>114.62</ele>
        <time>2017-09-17T08:48:43Z</time>
      </trkpt>
      <trkpt lat="47.71377" lon="-0.99718">
        <ele>112.87</ele>
        <time>2017-09-17T08:48:49Z</time>
      </trkpt>
      <trkpt lat="47.71366" lon="-0.99695">
        <ele>110.55</ele>
        <time>2017-09-17T08:48:57Z</time>
      </trkpt>
      <trkpt lat="47.71347" lon="-0.99702">
        <ele>108.89</ele>
        <time>2017-09-17T08:49:03Z</time>
      </trkpt>
      <trkpt lat="47.71329" lon="-0.9971">
        <ele>106.96</ele>
        <time>2017-09-17T08:49:07Z</time>
      </trkpt>
      <trkpt lat="47.71312" lon="-0.99718">
        <ele>106.01</ele>
        <time>2017-09-17T08:49:11Z</time>
      </trkpt>
      <trkpt lat="47.71294" lon="-0.99736">
        <ele>105.8</ele>
        <time>2017-09-17T08:49:16Z</time>
      </trkpt>
      <trkpt lat="47.71276" lon="-0.99745">
        <ele>105.42</ele>
        <time>2017-09-17T08:49:20Z</time>
      </trkpt>
      <trkpt lat="47.71257" lon="-0.99754">
        <ele>104.1</ele>
        <time>2017-09-17T08:49:25Z</time>
      </trkpt>
      <trkpt lat="47.71257" lon="-0.99782">
        <ele>104.31</ele>
        <time>2017-09-17T08:49:33Z</time>
      </trkpt>
      <trkpt lat="47.71266" lon="-0.99813">
        <ele>103.39</ele>
        <time>2017-09-17T08:49:38Z</time>
      </trkpt>
      <trkpt lat="47.71274" lon="-0.99844">
        <ele>102.72</ele>
        <time>2017-09-17T08:49:43Z</time>
      </trkpt>
      <trkpt lat="47.7128" lon="-0.99871">
        <ele>101.83</ele>
        <time>2017-09-17T08:49:48Z</time>
      </trkpt>
      <trkpt lat="47.71294" lon="-0.99888">
        <ele>101.25</ele>
        <time>2017-09-17T08:49:55Z</time>
      </trkpt>
      <trkpt lat="47.71314" lon="-0.9988">
        <ele>101.58</ele>
        <time>2017-09-17T08:50:00Z</time>
      </trkpt>
      <trkpt lat="47.71335" lon="-0.9987">
        <ele>101.89</ele>
        <time>2017-09-17T08:50:06Z</time>
      </trkpt>
      <trkpt lat="47.71354" lon="-0.99873">
        <ele>102.61</ele>
        <time>2017-09-17T08:50:11Z</time>
      </trkpt>
      <trkpt lat="47.71356" lon="-0.99902">
        <ele>103.72</ele>
        <time>2017-09-17T08:50:17Z</time>
      </trkpt>
      <trkpt lat="47.71356" lon="-0.99929">
        <ele>103.6</ele>
        <time>2017-09-17T08:50:21Z</time>
      </trkpt>
      <trkpt lat="47.71361" lon="-0.9996">
        <ele>102.91</ele>
        <time>2017-09-17T08:50:25Z</time>
      </trkpt>
      <trkpt lat="47.71366" lon="-0.99986">
        <ele>103.26</ele>
        <time>2017-09-17T08:50:29Z</time>
      </trkpt>
      <trkpt lat="47.71372" lon="-1.00016">
        <ele>104.23</ele>
        <time>2017-09-17T08:50:34Z</time>
      </trkpt>
      <trkpt lat="47.71362" lon="-1.00039">
        <ele>105.08</ele>
        <time>2017-09-17T08:50:47Z</time>
      </trkpt>
      <trkpt lat="47.71344" lon="-1.00047">
        <ele>104.86</ele>
        <time>2017-09-17T08:50:51Z</time>
      </trkpt>
      <trkpt lat="47.71327" lon="-1.00058">
        <ele>104.6</ele>
        <time>2017-09-17T08:50:55Z</time>
      </trkpt>
      <trkpt lat="47.7132" lon="-1.00083">
        <ele>103.69</ele>
        <time>2017-09-17T08:51:01Z</time>
      </trkpt>
      <trkpt lat="47.71298" lon="-1.00093">
        <ele>103.35</ele>
        <time>2017-09-17T08:51:06Z</time>
      </trkpt>
      <trkpt lat="47.7128" lon="-1.00094">
        <ele>102.41</ele>
        <time>2017-09-17T08:51:10Z</time>
      </trkpt>
      <trkpt lat="47.71266" lon="-1.00073">
        <ele>101.75</ele>
        <time>2017-09-17T08:51:14Z</time>
      </trkpt>
      <trkpt lat="47.7125" lon="-1.00055">
        <ele>101.3</ele>
        <time>2017-09-17T08:51:18Z</time>
      </trkpt>
      <trkpt lat="47.71234" lon="-1.00076">
        <ele>101.09</ele>
        <time>2017-09-17T08:51:23Z</time>
      </trkpt>
      <trkpt lat="47.71218" lon="-1.00088">
        <ele>101.55</ele>
        <time>2017-09-17T08:51:29Z</time>
      </trkpt>
      <trkpt lat="47.71197" lon="-1.00075">
        <ele>102.23</ele>
        <time>2017-09-17T08:51:36Z</time>
      </trkpt>
      <trkpt lat="47.71178" lon="-1.00075">
        <ele>102.2</ele>
        <time>2017-09-17T08:51:40Z</time>
      </trkpt>
      <trkpt lat="47.7116" lon="-1.00061">
        <ele>102.3</ele>
        <time>2017-09-17T08:51:46Z</time>
      </trkpt>
      <trkpt lat="47.7114" lon="-1.00057">
        <ele>101.15</ele>
        <time>2017-09-17T08:51:53Z</time>
      </trkpt>
      <trkpt lat="47.71127" lon="-1.00034">
        <ele>99.99</ele>
        <time>2017-09-17T08:51:58Z</time>
      </trkpt>
      <trkpt lat="47.71118" lon="-1.00009">
        <ele>99.88</ele>
        <time>2017-09-17T08:52:02Z</time>
      </trkpt>
      <trkpt lat="47.71109" lon="-0.99983">
        <ele>100.08</ele>
        <time>2017-09-17T08:52:06Z</time>
      </trkpt>
      <trkpt lat="47.71099" lon="-0.99953">
        <ele>100.3</ele>
        <time>2017-09-17T08:52:11Z</time>
      </trkpt>
      <trkpt lat="47.71088" lon="-0.99924">
        <ele>100.2</ele>
        <time>2017-09-17T08:52:15Z</time>
      </trkpt>
      <trkpt lat="47.71077" lon="-0.99896">
        <ele>100</ele>
        <time>2017-09-17T08:52:19Z</time>
      </trkpt>
      <trkpt lat="47.71066" lon="-0.99868">
        <ele>99.34</ele>
        <time>2017-09-17T08:52:23Z</time>
      </trkpt>
      <trkpt lat="47.71055" lon="-0.99837">
        <ele>98.63</ele>
        <time>2017-09-17T08:52:27Z</time>
      </trkpt>
      <trkpt lat="47.71045" lon="-0.99809">
        <ele>98.28</ele>
        <time>2017-09-17T08:52:31Z</time>
      </trkpt>
      <trkpt lat="47.71035" lon="-0.99782">
        <ele>98.26</ele>
        <time>2017-09-17T08:52:35Z</time>
      </trkpt>
      <trkpt lat="47.71024" lon="-0.99753">
        <ele>98.08</ele>
        <time>2017-09-17T08:52:39Z</time>
      </trkpt>
      <trkpt lat="47.71014" lon="-0.99727">
        <ele>97.62</ele>
        <time>2017-09-17T08:52:43Z</time>
      </trkpt>
      <trkpt lat="47.71003" lon="-0.99697">
        <ele>96.99</ele>
        <time>2017-09-17T08:52:47Z</time>
      </trkpt>
      <trkpt lat="47.70993" lon="-0.99669">
        <ele>96.08</ele>
        <time>2017-09-17T08:52:51Z</time>
      </trkpt>
      <trkpt lat="47.70983" lon="-0.99646">
        <ele>94.84</ele>
        <time>2017-09-17T08:52:54Z</time>
      </trkpt>
      <trkpt lat="47.70973" lon="-0.99619">
        <ele>94.13</ele>
        <time>2017-09-17T08:52:57Z</time>
      </trkpt>
      <trkpt lat="47.70963" lon="-0.99593">
        <ele>93.43</ele>
        <time>2017-09-17T08:53:00Z</time>
      </trkpt>
      <trkpt lat="47.70954" lon="-0.99569">
        <ele>92.61</ele>
        <time>2017-09-17T08:53:04Z</time>
      </trkpt>
      <trkpt lat="47.70969" lon="-0.9955">
        <ele>91.96</ele>
        <time>2017-09-17T08:53:14Z</time>
      </trkpt>
      <trkpt lat="47.7096" lon="-0.99526">
        <ele>92.53</ele>
        <time>2017-09-17T08:53:20Z</time>
      </trkpt>
      <trkpt lat="47.70951" lon="-0.995">
        <ele>92.94</ele>
        <time>2017-09-17T08:53:26Z</time>
      </trkpt>
      <trkpt lat="47.70942" lon="-0.99473">
        <ele>93.66</ele>
        <time>2017-09-17T08:53:32Z</time>
      </trkpt>
      <trkpt lat="47.70934" lon="-0.99447">
        <ele>94.23</ele>
        <time>2017-09-17T08:53:39Z</time>
      </trkpt>
      <trkpt lat="47.70926" lon="-0.99421">
        <ele>95.53</ele>
        <time>2017-09-17T08:53:46Z</time>
      </trkpt>
      <trkpt lat="47.70918" lon="-0.99394">
        <ele>96.15</ele>
        <time>2017-09-17T08:53:53Z</time>
      </trkpt>
      <trkpt lat="47.70907" lon="-0.99367">
        <ele>96.47</ele>
        <time>2017-09-17T08:53:59Z</time>
      </trkpt>
      <trkpt lat="47.70896" lon="-0.99344">
        <ele>96.67</ele>
        <time>2017-09-17T08:54:04Z</time>
      </trkpt>
      <trkpt lat="47.70886" lon="-0.9932">
        <ele>96.89</ele>
        <time>2017-09-17T08:54:09Z</time>
      </trkpt>
      <trkpt lat="47.70877" lon="-0.99292">
        <ele>96.32</ele>
        <time>2017-09-17T08:54:14Z</time>
      </trkpt>
      <trkpt lat="47.70872" lon="-0.99261">
        <ele>95.35</ele>
        <time>2017-09-17T08:54:19Z</time>
      </trkpt>
      <trkpt lat="47.70872" lon="-0.99229">
        <ele>94.9</ele>
        <time>2017-09-17T08:54:24Z</time>
      </trkpt>
      <trkpt lat="47.70869" lon="-0.99197">
        <ele>95</ele>
        <time>2017-09-17T08:54:29Z</time>
      </trkpt>
      <trkpt lat="47.70866" lon="-0.99167">
        <ele>95.04</ele>
        <time>2017-09-17T08:54:34Z</time>
      </trkpt>
      <trkpt lat="47.70864" lon="-0.99139">
        <ele>94.72</ele>
        <time>2017-09-17T08:54:39Z</time>
      </trkpt>
      <trkpt lat="47.70861" lon="-0.99109">
        <ele>94.93</ele>
        <time>2017-09-17T08:54:44Z</time>
      </trkpt>
      <trkpt lat="47.70857" lon="-0.99076">
        <ele>95.48</ele>
        <time>2017-09-17T08:54:49Z</time>
      </trkpt>
      <trkpt lat="47.70854" lon="-0.9905">
        <ele>95.68</ele>
        <time>2017-09-17T08:54:53Z</time>
      </trkpt>
      <trkpt lat="47.7085" lon="-0.99017">
        <ele>95.56</ele>
        <time>2017-09-17T08:54:58Z</time>
      </trkpt>
      <trkpt lat="47.70846" lon="-0.98985">
        <ele>95.48</ele>
        <time>2017-09-17T08:55:03Z</time>
      </trkpt>
      <trkpt lat="47.70842" lon="-0.98954">
        <ele>95.18</ele>
        <time>2017-09-17T08:55:08Z</time>
      </trkpt>
      <trkpt lat="47.7084" lon="-0.98925">
        <ele>95.26</ele>
        <time>2017-09-17T08:55:13Z</time>
      </trkpt>
      <trkpt lat="47.70836" lon="-0.98896">
        <ele>95.28</ele>
        <time>2017-09-17T08:55:19Z</time>
      </trkpt>
      <trkpt lat="47.70831" lon="-0.98863">
        <ele>95.26</ele>
        <time>2017-09-17T08:55:24Z</time>
      </trkpt>
      <trkpt lat="47.70827" lon="-0.98836">
        <ele>95.2</ele>
        <time>2017-09-17T08:55:28Z</time>
      </trkpt>
      <trkpt lat="47.70823" lon="-0.98808">
        <ele>95.16</ele>
        <time>2017-09-17T08:55:32Z</time>
      </trkpt>
      <trkpt lat="47.7082" lon="-0.98777">
        <ele>95.08</ele>
        <time>2017-09-17T08:55:37Z</time>
      </trkpt>
      <trkpt lat="47.70816" lon="-0.9875">
        <ele>94.99</ele>
        <time>2017-09-17T08:55:42Z</time>
      </trkpt>
      <trkpt lat="47.70812" lon="-0.98722">
        <ele>95.25</ele>
        <time>2017-09-17T08:55:46Z</time>
      </trkpt>
      <trkpt lat="47.70808" lon="-0.98693">
        <ele>95.39</ele>
        <time>2017-09-17T08:55:50Z</time>
      </trkpt>
      <trkpt lat="47.70805" lon="-0.98664">
        <ele>95.28</ele>
        <time>2017-09-17T08:55:54Z</time>
      </trkpt>
      <trkpt lat="47.70801" lon="-0.98633">
        <ele>95.2</ele>
        <time>2017-09-17T08:55:58Z</time>
      </trkpt>
      <trkpt lat="47.70798" lon="-0.98601">
        <ele>95.18</ele>
        <time>2017-09-17T08:56:02Z</time>
      </trkpt>
      <trkpt lat="47.70794" lon="-0.98571">
        <ele>95.63</ele>
        <time>2017-09-17T08:56:06Z</time>
      </trkpt>
      <trkpt lat="47.7079" lon="-0.9854">
        <ele>95.76</ele>
        <time>2017-09-17T08:56:10Z</time>
      </trkpt>
      <trkpt lat="47.70786" lon="-0.9851">
        <ele>95.7</ele>
        <time>2017-09-17T08:56:14Z</time>
      </trkpt>
      <trkpt lat="47.70781" lon="-0.9848">
        <ele>95.58</ele>
        <time>2017-09-17T08:56:18Z</time>
      </trkpt>
      <trkpt lat="47.70777" lon="-0.98451">
        <ele>95.95</ele>
        <time>2017-09-17T08:56:22Z</time>
      </trkpt>
      <trkpt lat="47.70777" lon="-0.98422">
        <ele>96.08</ele>
        <time>2017-09-17T08:56:26Z</time>
      </trkpt>
      <trkpt lat="47.70779" lon="-0.98394">
        <ele>96.36</ele>
        <time>2017-09-17T08:56:30Z</time>
      </trkpt>
      <trkpt lat="47.70779" lon="-0.98367">
        <ele>96.18</ele>
        <time>2017-09-17T08:56:34Z</time>
      </trkpt>
      <trkpt lat="47.70779" lon="-0.9834">
        <ele>96.18</ele>
        <time>2017-09-17T08:56:38Z</time>
      </trkpt>
      <trkpt lat="47.70779" lon="-0.9831">
        <ele>96.26</ele>
        <time>2017-09-17T08:56:43Z</time>
      </trkpt>
      <trkpt lat="47.70776" lon="-0.98283">
        <ele>96.63</ele>
        <time>2017-09-17T08:56:48Z</time>
      </trkpt>
      <trkpt lat="47.70772" lon="-0.98251">
        <ele>96.95</ele>
        <time>2017-09-17T08:56:53Z</time>
      </trkpt>
      <trkpt lat="47.70769" lon="-0.98224">
        <ele>97.73</ele>
        <time>2017-09-17T08:56:58Z</time>
      </trkpt>
      <trkpt lat="47.7075" lon="-0.98225">
        <ele>98.05</ele>
        <time>2017-09-17T08:57:05Z</time>
      </trkpt>
      <trkpt lat="47.70737" lon="-0.98248">
        <ele>98.28</ele>
        <time>2017-09-17T08:57:08Z</time>
      </trkpt>
      <trkpt lat="47.70723" lon="-0.98282">
        <ele>98.2</ele>
        <time>2017-09-17T08:57:11Z</time>
      </trkpt>
      <trkpt lat="47.70713" lon="-0.98307">
        <ele>98.18</ele>
        <time>2017-09-17T08:57:13Z</time>
      </trkpt>
      <trkpt lat="47.70697" lon="-0.98329">
        <ele>97.51</ele>
        <time>2017-09-17T08:57:15Z</time>
      </trkpt>
      <trkpt lat="47.70676" lon="-0.98344">
        <ele>96.65</ele>
        <time>2017-09-17T08:57:17Z</time>
      </trkpt>
      <trkpt lat="47.70654" lon="-0.9835">
        <ele>95.94</ele>
        <time>2017-09-17T08:57:19Z</time>
      </trkpt>
      <trkpt lat="47.70632" lon="-0.9835">
        <ele>95.9</ele>
        <time>2017-09-17T08:57:21Z</time>
      </trkpt>
      <trkpt lat="47.70614" lon="-0.9835">
        <ele>95.96</ele>
        <time>2017-09-17T08:57:23Z</time>
      </trkpt>
      <trkpt lat="47.70594" lon="-0.98347">
        <ele>94.9</ele>
        <time>2017-09-17T08:57:26Z</time>
      </trkpt>
      <trkpt lat="47.70589" lon="-0.98321">
        <ele>91.21</ele>
        <time>2017-09-17T08:57:31Z</time>
      </trkpt>
      <trkpt lat="47.7059" lon="-0.98294">
        <ele>89.17</ele>
        <time>2017-09-17T08:57:37Z</time>
      </trkpt>
      <trkpt lat="47.70593" lon="-0.98266">
        <ele>88.9</ele>
        <time>2017-09-17T08:57:43Z</time>
      </trkpt>
      <trkpt lat="47.70598" lon="-0.98238">
        <ele>88.66</ele>
        <time>2017-09-17T08:57:49Z</time>
      </trkpt>
      <trkpt lat="47.70602" lon="-0.98208">
        <ele>89.39</ele>
        <time>2017-09-17T08:57:55Z</time>
      </trkpt>
      <trkpt lat="47.70604" lon="-0.98177">
        <ele>89.85</ele>
        <time>2017-09-17T08:58:01Z</time>
      </trkpt>
      <trkpt lat="47.70606" lon="-0.98147">
        <ele>89.97</ele>
        <time>2017-09-17T08:58:07Z</time>
      </trkpt>
      <trkpt lat="47.70604" lon="-0.98118">
        <ele>90.47</ele>
        <time>2017-09-17T08:58:14Z</time>
      </trkpt>
      <trkpt lat="47.70587" lon="-0.98106">
        <ele>90.4</ele>
        <time>2017-09-17T08:58:20Z</time>
      </trkpt>
      <trkpt lat="47.70565" lon="-0.98099">
        <ele>89.72</ele>
        <time>2017-09-17T08:58:24Z</time>
      </trkpt>
      <trkpt lat="47.70546" lon="-0.98091">
        <ele>89.23</ele>
        <time>2017-09-17T08:58:27Z</time>
      </trkpt>
      <trkpt lat="47.70526" lon="-0.9808">
        <ele>88.53</ele>
        <time>2017-09-17T08:58:30Z</time>
      </trkpt>
      <trkpt lat="47.70506" lon="-0.98059">
        <ele>88.2</ele>
        <time>2017-09-17T08:58:33Z</time>
      </trkpt>
      <trkpt lat="47.70493" lon="-0.98039">
        <ele>87.91</ele>
        <time>2017-09-17T08:58:35Z</time>
      </trkpt>
      <trkpt lat="47.70477" lon="-0.98014">
        <ele>87.61</ele>
        <time>2017-09-17T08:58:38Z</time>
      </trkpt>
      <trkpt lat="47.70458" lon="-0.97996">
        <ele>87.1</ele>
        <time>2017-09-17T08:58:42Z</time>
      </trkpt>
      <trkpt lat="47.70437" lon="-0.9798">
        <ele>85.78</ele>
        <time>2017-09-17T08:58:45Z</time>
      </trkpt>
      <trkpt lat="47.70422" lon="-0.9796">
        <ele>85.29</ele>
        <time>2017-09-17T08:58:48Z</time>
      </trkpt>
      <trkpt lat="47.70411" lon="-0.97936">
        <ele>84.77</ele>
        <time>2017-09-17T08:58:51Z</time>
      </trkpt>
      <trkpt lat="47.704" lon="-0.97912">
        <ele>83.77</ele>
        <time>2017-09-17T08:58:54Z</time>
      </trkpt>
      <trkpt lat="47.7039" lon="-0.97888">
        <ele>83.31</ele>
        <time>2017-09-17T08:58:57Z</time>
      </trkpt>
      <trkpt lat="47.70378" lon="-0.97864">
        <ele>83.03</ele>
        <time>2017-09-17T08:59:01Z</time>
      </trkpt>
      <trkpt lat="47.70365" lon="-0.9784">
        <ele>81.74</ele>
        <time>2017-09-17T08:59:05Z</time>
      </trkpt>
      <trkpt lat="47.70354" lon="-0.97814">
        <ele>81.48</ele>
        <time>2017-09-17T08:59:09Z</time>
      </trkpt>
      <trkpt lat="47.70342" lon="-0.97785">
        <ele>80.99</ele>
        <time>2017-09-17T08:59:13Z</time>
      </trkpt>
      <trkpt lat="47.70331" lon="-0.97759">
        <ele>81</ele>
        <time>2017-09-17T08:59:17Z</time>
      </trkpt>
      <trkpt lat="47.70319" lon="-0.9773">
        <ele>80.68</ele>
        <time>2017-09-17T08:59:21Z</time>
      </trkpt>
      <trkpt lat="47.70307" lon="-0.97702">
        <ele>80.48</ele>
        <time>2017-09-17T08:59:25Z</time>
      </trkpt>
      <trkpt lat="47.70295" lon="-0.97676">
        <ele>80.51</ele>
        <time>2017-09-17T08:59:29Z</time>
      </trkpt>
      <trkpt lat="47.70284" lon="-0.97652">
        <ele>80.24</ele>
        <time>2017-09-17T08:59:32Z</time>
      </trkpt>
      <trkpt lat="47.70275" lon="-0.97628">
        <ele>79.81</ele>
        <time>2017-09-17T08:59:35Z</time>
      </trkpt>
      <trkpt lat="47.70262" lon="-0.97605">
        <ele>79.78</ele>
        <time>2017-09-17T08:59:39Z</time>
      </trkpt>
      <trkpt lat="47.70252" lon="-0.97581">
        <ele>79.33</ele>
        <time>2017-09-17T08:59:42Z</time>
      </trkpt>
      <trkpt lat="47.70244" lon="-0.97552">
        <ele>78.7</ele>
        <time>2017-09-17T08:59:46Z</time>
      </trkpt>
      <trkpt lat="47.70237" lon="-0.9752">
        <ele>79.13</ele>
        <time>2017-09-17T08:59:50Z</time>
      </trkpt>
      <trkpt lat="47.70222" lon="-0.97502">
        <ele>79.6</ele>
        <time>2017-09-17T08:59:55Z</time>
      </trkpt>
      <trkpt lat="47.70209" lon="-0.97477">
        <ele>78.16</ele>
        <time>2017-09-17T09:00:01Z</time>
      </trkpt>
      <trkpt lat="47.70201" lon="-0.97448">
        <ele>78.18</ele>
        <time>2017-09-17T09:00:05Z</time>
      </trkpt>
      <trkpt lat="47.70193" lon="-0.97421">
        <ele>77.63</ele>
        <time>2017-09-17T09:00:09Z</time>
      </trkpt>
      <trkpt lat="47.70187" lon="-0.97394">
        <ele>77.1</ele>
        <time>2017-09-17T09:00:13Z</time>
      </trkpt>
      <trkpt lat="47.7018" lon="-0.97366">
        <ele>76.8</ele>
        <time>2017-09-17T09:00:17Z</time>
      </trkpt>
      <trkpt lat="47.70174" lon="-0.97337">
        <ele>76.86</ele>
        <time>2017-09-17T09:00:21Z</time>
      </trkpt>
      <trkpt lat="47.7017" lon="-0.97306">
        <ele>76.72</ele>
        <time>2017-09-17T09:00:25Z</time>
      </trkpt>
      <trkpt lat="47.70165" lon="-0.97278">
        <ele>76.6</ele>
        <time>2017-09-17T09:00:29Z</time>
      </trkpt>
      <trkpt lat="47.70163" lon="-0.97248">
        <ele>75.88</ele>
        <time>2017-09-17T09:00:33Z</time>
      </trkpt>
      <trkpt lat="47.70161" lon="-0.97217">
        <ele>75.03</ele>
        <time>2017-09-17T09:00:37Z</time>
      </trkpt>
      <trkpt lat="47.70159" lon="-0.97185">
        <ele>74.96</ele>
        <time>2017-09-17T09:00:41Z</time>
      </trkpt>
      <trkpt lat="47.70156" lon="-0.97151">
        <ele>74.59</ele>
        <time>2017-09-17T09:00:45Z</time>
      </trkpt>
      <trkpt lat="47.70152" lon="-0.97117">
        <ele>73.7</ele>
        <time>2017-09-17T09:00:49Z</time>
      </trkpt>
      <trkpt lat="47.70148" lon="-0.97087">
        <ele>72.75</ele>
        <time>2017-09-17T09:00:53Z</time>
      </trkpt>
      <trkpt lat="47.70144" lon="-0.97054">
        <ele>72.38</ele>
        <time>2017-09-17T09:00:57Z</time>
      </trkpt>
      <trkpt lat="47.70141" lon="-0.97024">
        <ele>71.89</ele>
        <time>2017-09-17T09:01:01Z</time>
      </trkpt>
      <trkpt lat="47.70138" lon="-0.96997">
        <ele>71.7</ele>
        <time>2017-09-17T09:01:05Z</time>
      </trkpt>
      <trkpt lat="47.70136" lon="-0.96969">
        <ele>72.13</ele>
        <time>2017-09-17T09:01:09Z</time>
      </trkpt>
      <trkpt lat="47.70134" lon="-0.96941">
        <ele>72.85</ele>
        <time>2017-09-17T09:01:13Z</time>
      </trkpt>
      <trkpt lat="47.70125" lon="-0.9691">
        <ele>72.96</ele>
        <time>2017-09-17T09:01:17Z</time>
      </trkpt>
      <trkpt lat="47.70119" lon="-0.96881">
        <ele>72.88</ele>
        <time>2017-09-17T09:01:21Z</time>
      </trkpt>
      <trkpt lat="47.70111" lon="-0.96848">
        <ele>73.06</ele>
        <time>2017-09-17T09:01:25Z</time>
      </trkpt>
      <trkpt lat="47.70102" lon="-0.96816">
        <ele>72.7</ele>
        <time>2017-09-17T09:01:29Z</time>
      </trkpt>
      <trkpt lat="47.70094" lon="-0.96785">
        <ele>72.43</ele>
        <time>2017-09-17T09:01:33Z</time>
      </trkpt>
      <trkpt lat="47.70085" lon="-0.96753">
        <ele>72.28</ele>
        <time>2017-09-17T09:01:37Z</time>
      </trkpt>
      <trkpt lat="47.70075" lon="-0.96723">
        <ele>72.48</ele>
        <time>2017-09-17T09:01:41Z</time>
      </trkpt>
      <trkpt lat="47.70065" lon="-0.96693">
        <ele>72.57</ele>
        <time>2017-09-17T09:01:45Z</time>
      </trkpt>
      <trkpt lat="47.70054" lon="-0.96666">
        <ele>72.46</ele>
        <time>2017-09-17T09:01:49Z</time>
      </trkpt>
      <trkpt lat="47.70043" lon="-0.96638">
        <ele>71.98</ele>
        <time>2017-09-17T09:01:53Z</time>
      </trkpt>
      <trkpt lat="47.70031" lon="-0.96612">
        <ele>70.78</ele>
        <time>2017-09-17T09:01:57Z</time>
      </trkpt>
      <trkpt lat="47.7002" lon="-0.96587">
        <ele>70.38</ele>
        <time>2017-09-17T09:02:01Z</time>
      </trkpt>
      <trkpt lat="47.70008" lon="-0.9656">
        <ele>69.73</ele>
        <time>2017-09-17T09:02:05Z</time>
      </trkpt>
      <trkpt lat="47.69995" lon="-0.96535">
        <ele>69.52</ele>
        <time>2017-09-17T09:02:09Z</time>
      </trkpt>
      <trkpt lat="47.69983" lon="-0.96509">
        <ele>68.61</ele>
        <time>2017-09-17T09:02:13Z</time>
      </trkpt>
      <trkpt lat="47.6997" lon="-0.96483">
        <ele>68.2</ele>
        <time>2017-09-17T09:02:17Z</time>
      </trkpt>
      <trkpt lat="47.69957" lon="-0.96456">
        <ele>67.31</ele>
        <time>2017-09-17T09:02:21Z</time>
      </trkpt>
      <trkpt lat="47.69945" lon="-0.9643">
        <ele>66.98</ele>
        <time>2017-09-17T09:02:25Z</time>
      </trkpt>
      <trkpt lat="47.69933" lon="-0.96405">
        <ele>67.27</ele>
        <time>2017-09-17T09:02:29Z</time>
      </trkpt>
      <trkpt lat="47.69922" lon="-0.96381">
        <ele>67.47</ele>
        <time>2017-09-17T09:02:33Z</time>
      </trkpt>
      <trkpt lat="47.69909" lon="-0.96353">
        <ele>67.57</ele>
        <time>2017-09-17T09:02:37Z</time>
      </trkpt>
      <trkpt lat="47.69895" lon="-0.96326">
        <ele>67.59</ele>
        <time>2017-09-17T09:02:41Z</time>
      </trkpt>
      <trkpt lat="47.69883" lon="-0.96297">
        <ele>67.64</ele>
        <time>2017-09-17T09:02:45Z</time>
      </trkpt>
      <trkpt lat="47.6987" lon="-0.96269">
        <ele>67.76</ele>
        <time>2017-09-17T09:02:49Z</time>
      </trkpt>
      <trkpt lat="47.69857" lon="-0.96244">
        <ele>66.98</ele>
        <time>2017-09-17T09:02:53Z</time>
      </trkpt>
      <trkpt lat="47.69846" lon="-0.96221">
        <ele>66.01</ele>
        <time>2017-09-17T09:02:57Z</time>
      </trkpt>
      <trkpt lat="47.69834" lon="-0.96198">
        <ele>65.9</ele>
        <time>2017-09-17T09:03:02Z</time>
      </trkpt>
      <trkpt lat="47.69821" lon="-0.96175">
        <ele>66.08</ele>
        <time>2017-09-17T09:03:07Z</time>
      </trkpt>
      <trkpt lat="47.69808" lon="-0.9615">
        <ele>66.34</ele>
        <time>2017-09-17T09:03:12Z</time>
      </trkpt>
      <trkpt lat="47.69796" lon="-0.96128">
        <ele>66.48</ele>
        <time>2017-09-17T09:03:16Z</time>
      </trkpt>
      <trkpt lat="47.69784" lon="-0.96105">
        <ele>65.65</ele>
        <time>2017-09-17T09:03:21Z</time>
      </trkpt>
      <trkpt lat="47.69765" lon="-0.96106">
        <ele>64.63</ele>
        <time>2017-09-17T09:03:27Z</time>
      </trkpt>
      <trkpt lat="47.69748" lon="-0.96098">
        <ele>64.02</ele>
        <time>2017-09-17T09:03:33Z</time>
      </trkpt>
      <trkpt lat="47.69732" lon="-0.96079">
        <ele>63.12</ele>
        <time>2017-09-17T09:03:40Z</time>
      </trkpt>
      <trkpt lat="47.69722" lon="-0.96053">
        <ele>62.58</ele>
        <time>2017-09-17T09:03:46Z</time>
      </trkpt>
      <trkpt lat="47.69708" lon="-0.96033">
        <ele>61.83</ele>
        <time>2017-09-17T09:03:51Z</time>
      </trkpt>
      <trkpt lat="47.69694" lon="-0.96013">
        <ele>61.3</ele>
        <time>2017-09-17T09:03:56Z</time>
      </trkpt>
      <trkpt lat="47.69682" lon="-0.95991">
        <ele>61</ele>
        <time>2017-09-17T09:04:01Z</time>
      </trkpt>
      <trkpt lat="47.69673" lon="-0.95965">
        <ele>60.7</ele>
        <time>2017-09-17T09:04:08Z</time>
      </trkpt>
      <trkpt lat="47.69665" lon="-0.9594">
        <ele>60.48</ele>
        <time>2017-09-17T09:04:13Z</time>
      </trkpt>
      <trkpt lat="47.69657" lon="-0.95913">
        <ele>60.58</ele>
        <time>2017-09-17T09:04:18Z</time>
      </trkpt>
      <trkpt lat="47.69648" lon="-0.95885">
        <ele>60.85</ele>
        <time>2017-09-17T09:04:23Z</time>
      </trkpt>
      <trkpt lat="47.69641" lon="-0.95858">
        <ele>61.15</ele>
        <time>2017-09-17T09:04:28Z</time>
      </trkpt>
      <trkpt lat="47.69636" lon="-0.9583">
        <ele>61.26</ele>
        <time>2017-09-17T09:04:33Z</time>
      </trkpt>
      <trkpt lat="47.69626" lon="-0.95804">
        <ele>61.18</ele>
        <time>2017-09-17T09:04:38Z</time>
      </trkpt>
      <trkpt lat="47.69618" lon="-0.95775">
        <ele>61.65</ele>
        <time>2017-09-17T09:04:43Z</time>
      </trkpt>
      <trkpt lat="47.69612" lon="-0.95746">
        <ele>62.05</ele>
        <time>2017-09-17T09:04:48Z</time>
      </trkpt>
      <trkpt lat="47.69605" lon="-0.95716">
        <ele>62.73</ele>
        <time>2017-09-17T09:04:53Z</time>
      </trkpt>
      <trkpt lat="47.69595" lon="-0.95689">
        <ele>63.45</ele>
        <time>2017-09-17T09:04:58Z</time>
      </trkpt>
      <trkpt lat="47.69586" lon="-0.9566">
        <ele>63.85</ele>
        <time>2017-09-17T09:05:03Z</time>
      </trkpt>
      <trkpt lat="47.69577" lon="-0.9563">
        <ele>64.15</ele>
        <time>2017-09-17T09:05:08Z</time>
      </trkpt>
      <trkpt lat="47.6957" lon="-0.95604">
        <ele>64.85</ele>
        <time>2017-09-17T09:05:12Z</time>
      </trkpt>
      <trkpt lat="47.69564" lon="-0.95574">
        <ele>65.15</ele>
        <time>2017-09-17T09:05:17Z</time>
      </trkpt>
      <trkpt lat="47.69555" lon="-0.95544">
        <ele>65.56</ele>
        <time>2017-09-17T09:05:22Z</time>
      </trkpt>
      <trkpt lat="47.69549" lon="-0.95514">
        <ele>65.6</ele>
        <time>2017-09-17T09:05:27Z</time>
      </trkpt>
      <trkpt lat="47.69544" lon="-0.95484">
        <ele>65.86</ele>
        <time>2017-09-17T09:05:32Z</time>
      </trkpt>
      <trkpt lat="47.69538" lon="-0.95455">
        <ele>65.8</ele>
        <time>2017-09-17T09:05:37Z</time>
      </trkpt>
      <trkpt lat="47.69533" lon="-0.95426">
        <ele>65.98</ele>
        <time>2017-09-17T09:05:42Z</time>
      </trkpt>
      <trkpt lat="47.69527" lon="-0.954">
        <ele>66.26</ele>
        <time>2017-09-17T09:05:47Z</time>
      </trkpt>
      <trkpt lat="47.69522" lon="-0.95373">
        <ele>66.75</ele>
        <time>2017-09-17T09:05:52Z</time>
      </trkpt>
      <trkpt lat="47.69518" lon="-0.95346">
        <ele>67.07</ele>
        <time>2017-09-17T09:05:57Z</time>
      </trkpt>
      <trkpt lat="47.69514" lon="-0.95318">
        <ele>67.28</ele>
        <time>2017-09-17T09:06:02Z</time>
      </trkpt>
      <trkpt lat="47.69511" lon="-0.9529">
        <ele>67.65</ele>
        <time>2017-09-17T09:06:07Z</time>
      </trkpt>
      <trkpt lat="47.69509" lon="-0.95264">
        <ele>67.5</ele>
        <time>2017-09-17T09:06:12Z</time>
      </trkpt>
      <trkpt lat="47.69507" lon="-0.95236">
        <ele>67.02</ele>
        <time>2017-09-17T09:06:17Z</time>
      </trkpt>
      <trkpt lat="47.69505" lon="-0.95208">
        <ele>66.13</ele>
        <time>2017-09-17T09:06:22Z</time>
      </trkpt>
      <trkpt lat="47.69501" lon="-0.95178">
        <ele>65.03</ele>
        <time>2017-09-17T09:06:28Z</time>
      </trkpt>
      <trkpt lat="47.69512" lon="-0.95152">
        <ele>64.13</ele>
        <time>2017-09-17T09:06:35Z</time>
      </trkpt>
      <trkpt lat="47.69519" lon="-0.95124">
        <ele>63.8</ele>
        <time>2017-09-17T09:06:41Z</time>
      </trkpt>
      <trkpt lat="47.69538" lon="-0.95116">
        <ele>62</ele>
        <time>2017-09-17T09:06:50Z</time>
      </trkpt>
      <trkpt lat="47.69553" lon="-0.95132">
        <ele>61.68</ele>
        <time>2017-09-17T09:06:55Z</time>
      </trkpt>
      <trkpt lat="47.69571" lon="-0.95147">
        <ele>61.48</ele>
        <time>2017-09-17T09:07:01Z</time>
      </trkpt>
      <trkpt lat="47.69587" lon="-0.95166">
        <ele>61.97</ele>
        <time>2017-09-17T09:07:07Z</time>
      </trkpt>
      <trkpt lat="47.69601" lon="-0.95188">
        <ele>62.75</ele>
        <time>2017-09-17T09:07:13Z</time>
      </trkpt>
      <trkpt lat="47.6962" lon="-0.95187">
        <ele>63.85</ele>
        <time>2017-09-17T09:07:21Z</time>
      </trkpt>
      <trkpt lat="47.69639" lon="-0.95172">
        <ele>64.67</ele>
        <time>2017-09-17T09:07:29Z</time>
      </trkpt>
      <trkpt lat="47.69655" lon="-0.95161">
        <ele>65.06</ele>
        <time>2017-09-17T09:07:35Z</time>
      </trkpt>
      <trkpt lat="47.69673" lon="-0.95149">
        <ele>65.77</ele>
        <time>2017-09-17T09:07:42Z</time>
      </trkpt>
      <trkpt lat="47.69689" lon="-0.95136">
        <ele>66.85</ele>
        <time>2017-09-17T09:07:50Z</time>
      </trkpt>
      <trkpt lat="47.69706" lon="-0.95119">
        <ele>68.13</ele>
        <time>2017-09-17T09:07:59Z</time>
      </trkpt>
      <trkpt lat="47.69722" lon="-0.95102">
        <ele>69.71</ele>
        <time>2017-09-17T09:08:08Z</time>
      </trkpt>
      <trkpt lat="47.69739" lon="-0.95088">
        <ele>70.38</ele>
        <time>2017-09-17T09:08:17Z</time>
      </trkpt>
      <trkpt lat="47.69757" lon="-0.95075">
        <ele>71.33</ele>
        <time>2017-09-17T09:08:26Z</time>
      </trkpt>
      <trkpt lat="47.69775" lon="-0.95065">
        <ele>73.13</ele>
        <time>2017-09-17T09:08:35Z</time>
      </trkpt>
      <trkpt lat="47.69791" lon="-0.95051">
        <ele>75.37</ele>
        <time>2017-09-17T09:08:45Z</time>
      </trkpt>
      <trkpt lat="47.69807" lon="-0.95035">
        <ele>76.45</ele>
        <time>2017-09-17T09:08:56Z</time>
      </trkpt>
      <trkpt lat="47.69823" lon="-0.95021">
        <ele>77.85</ele>
        <time>2017-09-17T09:09:06Z</time>
      </trkpt>
      <trkpt lat="47.69842" lon="-0.95012">
        <ele>79.91</ele>
        <time>2017-09-17T09:09:18Z</time>
      </trkpt>
      <trkpt lat="47.6986" lon="-0.95005">
        <ele>82.4</ele>
        <time>2017-09-17T09:09:27Z</time>
      </trkpt>
      <trkpt lat="47.69877" lon="-0.94993">
        <ele>84.57</ele>
        <time>2017-09-17T09:09:36Z</time>
      </trkpt>
      <trkpt lat="47.69894" lon="-0.94983">
        <ele>86.23</ele>
        <time>2017-09-17T09:09:46Z</time>
      </trkpt>
      <trkpt lat="47.69911" lon="-0.94969">
        <ele>86.18</ele>
        <time>2017-09-17T09:09:54Z</time>
      </trkpt>
      <trkpt lat="47.69928" lon="-0.94957">
        <ele>88.09</ele>
        <time>2017-09-17T09:10:03Z</time>
      </trkpt>
      <trkpt lat="47.69945" lon="-0.94947">
        <ele>89.58</ele>
        <time>2017-09-17T09:10:12Z</time>
      </trkpt>
      <trkpt lat="47.69961" lon="-0.94937">
        <ele>90.82</ele>
        <time>2017-09-17T09:10:20Z</time>
      </trkpt>
      <trkpt lat="47.69979" lon="-0.94926">
        <ele>92.03</ele>
        <time>2017-09-17T09:10:28Z</time>
      </trkpt>
      <trkpt lat="47.69998" lon="-0.94917">
        <ele>91.78</ele>
        <time>2017-09-17T09:10:35Z</time>
      </trkpt>
      <trkpt lat="47.70017" lon="-0.94907">
        <ele>92.75</ele>
        <time>2017-09-17T09:10:43Z</time>
      </trkpt>
      <trkpt lat="47.70036" lon="-0.94902">
        <ele>93.78</ele>
        <time>2017-09-17T09:10:51Z</time>
      </trkpt>
      <trkpt lat="47.70053" lon="-0.94887">
        <ele>94.84</ele>
        <time>2017-09-17T09:10:58Z</time>
      </trkpt>
      <trkpt lat="47.70065" lon="-0.94867">
        <ele>95.47</ele>
        <time>2017-09-17T09:11:03Z</time>
      </trkpt>
      <trkpt lat="47.70072" lon="-0.94842">
        <ele>95.77</ele>
        <time>2017-09-17T09:11:09Z</time>
      </trkpt>
      <trkpt lat="47.7008" lon="-0.94814">
        <ele>96.17</ele>
        <time>2017-09-17T09:11:14Z</time>
      </trkpt>
      <trkpt lat="47.70086" lon="-0.94787">
        <ele>96.45</ele>
        <time>2017-09-17T09:11:18Z</time>
      </trkpt>
      <trkpt lat="47.70094" lon="-0.94757">
        <ele>96.87</ele>
        <time>2017-09-17T09:11:23Z</time>
      </trkpt>
      <trkpt lat="47.70102" lon="-0.94727">
        <ele>97.14</ele>
        <time>2017-09-17T09:11:28Z</time>
      </trkpt>
      <trkpt lat="47.7011" lon="-0.94697">
        <ele>97.65</ele>
        <time>2017-09-17T09:11:33Z</time>
      </trkpt>
      <trkpt lat="47.70116" lon="-0.94668">
        <ele>98.07</ele>
        <time>2017-09-17T09:11:38Z</time>
      </trkpt>
      <trkpt lat="47.70122" lon="-0.94639">
        <ele>98.17</ele>
        <time>2017-09-17T09:11:43Z</time>
      </trkpt>
      <trkpt lat="47.70128" lon="-0.94609">
        <ele>98.1</ele>
        <time>2017-09-17T09:11:48Z</time>
      </trkpt>
      <trkpt lat="47.70133" lon="-0.94582">
        <ele>97.92</ele>
        <time>2017-09-17T09:11:53Z</time>
      </trkpt>
      <trkpt lat="47.70137" lon="-0.94555">
        <ele>97.52</ele>
        <time>2017-09-17T09:11:58Z</time>
      </trkpt>
      <trkpt lat="47.70141" lon="-0.94529">
        <ele>97</ele>
        <time>2017-09-17T09:12:03Z</time>
      </trkpt>
      <trkpt lat="47.7016" lon="-0.94525">
        <ele>96.5</ele>
        <time>2017-09-17T09:12:09Z</time>
      </trkpt>
      <trkpt lat="47.7018" lon="-0.94528">
        <ele>96.78</ele>
        <time>2017-09-17T09:12:15Z</time>
      </trkpt>
      <trkpt lat="47.70199" lon="-0.94533">
        <ele>97.55</ele>
        <time>2017-09-17T09:12:21Z</time>
      </trkpt>
      <trkpt lat="47.70217" lon="-0.94529">
        <ele>97.28</ele>
        <time>2017-09-17T09:12:26Z</time>
      </trkpt>
      <trkpt lat="47.70216" lon="-0.94498">
        <ele>96.99</ele>
        <time>2017-09-17T09:12:32Z</time>
      </trkpt>
      <trkpt lat="47.70212" lon="-0.94472">
        <ele>96.98</ele>
        <time>2017-09-17T09:12:36Z</time>
      </trkpt>
      <trkpt lat="47.70206" lon="-0.94442">
        <ele>96.98</ele>
        <time>2017-09-17T09:12:40Z</time>
      </trkpt>
      <trkpt lat="47.70198" lon="-0.94412">
        <ele>96.62</ele>
        <time>2017-09-17T09:12:44Z</time>
      </trkpt>
      <trkpt lat="47.70185" lon="-0.94383">
        <ele>95.63</ele>
        <time>2017-09-17T09:12:48Z</time>
      </trkpt>
      <trkpt lat="47.70179" lon="-0.94356">
        <ele>95.03</ele>
        <time>2017-09-17T09:12:51Z</time>
      </trkpt>
      <trkpt lat="47.7017" lon="-0.9433">
        <ele>94.33</ele>
        <time>2017-09-17T09:12:54Z</time>
      </trkpt>
      <trkpt lat="47.70155" lon="-0.9431">
        <ele>93.83</ele>
        <time>2017-09-17T09:12:57Z</time>
      </trkpt>
      <trkpt lat="47.70138" lon="-0.94296">
        <ele>93.5</ele>
        <time>2017-09-17T09:13:00Z</time>
      </trkpt>
      <trkpt lat="47.70124" lon="-0.94278">
        <ele>93.4</ele>
        <time>2017-09-17T09:13:03Z</time>
      </trkpt>
      <trkpt lat="47.70118" lon="-0.94244">
        <ele>93.2</ele>
        <time>2017-09-17T09:13:07Z</time>
      </trkpt>
      <trkpt lat="47.70122" lon="-0.94215">
        <ele>93.18</ele>
        <time>2017-09-17T09:13:10Z</time>
      </trkpt>
      <trkpt lat="47.70125" lon="-0.94184">
        <ele>92.73</ele>
        <time>2017-09-17T09:13:13Z</time>
      </trkpt>
      <trkpt lat="47.70126" lon="-0.9415">
        <ele>91.78</ele>
        <time>2017-09-17T09:13:16Z</time>
      </trkpt>
      <trkpt lat="47.70124" lon="-0.94116">
        <ele>90.48</ele>
        <time>2017-09-17T09:13:19Z</time>
      </trkpt>
      <trkpt lat="47.70119" lon="-0.9408">
        <ele>89.2</ele>
        <time>2017-09-17T09:13:22Z</time>
      </trkpt>
      <trkpt lat="47.70113" lon="-0.94045">
        <ele>88.17</ele>
        <time>2017-09-17T09:13:25Z</time>
      </trkpt>
      <trkpt lat="47.70107" lon="-0.94007">
        <ele>86.96</ele>
        <time>2017-09-17T09:13:28Z</time>
      </trkpt>
      <trkpt lat="47.701" lon="-0.93969">
        <ele>86.05</ele>
        <time>2017-09-17T09:13:31Z</time>
      </trkpt>
      <trkpt lat="47.70093" lon="-0.93932">
        <ele>84.88</ele>
        <time>2017-09-17T09:13:34Z</time>
      </trkpt>
      <trkpt lat="47.70085" lon="-0.93894">
        <ele>83.85</ele>
        <time>2017-09-17T09:13:37Z</time>
      </trkpt>
      <trkpt lat="47.70078" lon="-0.93858">
        <ele>83.31</ele>
        <time>2017-09-17T09:13:40Z</time>
      </trkpt>
      <trkpt lat="47.70071" lon="-0.93822">
        <ele>82.9</ele>
        <time>2017-09-17T09:13:43Z</time>
      </trkpt>
      <trkpt lat="47.70065" lon="-0.93788">
        <ele>82.8</ele>
        <time>2017-09-17T09:13:46Z</time>
      </trkpt>
      <trkpt lat="47.70058" lon="-0.93755">
        <ele>82.94</ele>
        <time>2017-09-17T09:13:49Z</time>
      </trkpt>
      <trkpt lat="47.70052" lon="-0.93723">
        <ele>83.08</ele>
        <time>2017-09-17T09:13:52Z</time>
      </trkpt>
      <trkpt lat="47.70046" lon="-0.93694">
        <ele>83.14</ele>
        <time>2017-09-17T09:13:55Z</time>
      </trkpt>
      <trkpt lat="47.7004" lon="-0.93665">
        <ele>83.27</ele>
        <time>2017-09-17T09:13:58Z</time>
      </trkpt>
      <trkpt lat="47.70034" lon="-0.93635">
        <ele>82.85</ele>
        <time>2017-09-17T09:14:01Z</time>
      </trkpt>
      <trkpt lat="47.70028" lon="-0.93606">
        <ele>82.47</ele>
        <time>2017-09-17T09:14:04Z</time>
      </trkpt>
      <trkpt lat="47.70022" lon="-0.93576">
        <ele>82.15</ele>
        <time>2017-09-17T09:14:07Z</time>
      </trkpt>
      <trkpt lat="47.70016" lon="-0.93546">
        <ele>81.23</ele>
        <time>2017-09-17T09:14:10Z</time>
      </trkpt>
      <trkpt lat="47.70009" lon="-0.93515">
        <ele>80.39</ele>
        <time>2017-09-17T09:14:13Z</time>
      </trkpt>
      <trkpt lat="47.70003" lon="-0.93486">
        <ele>79.53</ele>
        <time>2017-09-17T09:14:16Z</time>
      </trkpt>
      <trkpt lat="47.69997" lon="-0.93458">
        <ele>78.72</ele>
        <time>2017-09-17T09:14:19Z</time>
      </trkpt>
      <trkpt lat="47.69992" lon="-0.93429">
        <ele>78.33</ele>
        <time>2017-09-17T09:14:22Z</time>
      </trkpt>
      <trkpt lat="47.69988" lon="-0.934">
        <ele>77.92</ele>
        <time>2017-09-17T09:14:25Z</time>
      </trkpt>
      <trkpt lat="47.69983" lon="-0.9337">
        <ele>77.6</ele>
        <time>2017-09-17T09:14:28Z</time>
      </trkpt>
      <trkpt lat="47.69977" lon="-0.93341">
        <ele>77.68</ele>
        <time>2017-09-17T09:14:31Z</time>
      </trkpt>
      <trkpt lat="47.69972" lon="-0.93314">
        <ele>78.05</ele>
        <time>2017-09-17T09:14:34Z</time>
      </trkpt>
      <trkpt lat="47.69967" lon="-0.93287">
        <ele>78.08</ele>
        <time>2017-09-17T09:14:37Z</time>
      </trkpt>
      <trkpt lat="47.69961" lon="-0.9326">
        <ele>78.16</ele>
        <time>2017-09-17T09:14:40Z</time>
      </trkpt>
      <trkpt lat="47.69955" lon="-0.93231">
        <ele>77.92</ele>
        <time>2017-09-17T09:14:43Z</time>
      </trkpt>
      <trkpt lat="47.69949" lon="-0.93203">
        <ele>77.5</ele>
        <time>2017-09-17T09:14:46Z</time>
      </trkpt>
      <trkpt lat="47.69942" lon="-0.93175">
        <ele>77.67</ele>
        <time>2017-09-17T09:14:49Z</time>
      </trkpt>
      <trkpt lat="47.69936" lon="-0.93147">
        <ele>77.68</ele>
        <time>2017-09-17T09:14:52Z</time>
      </trkpt>
      <trkpt lat="47.6993" lon="-0.93119">
        <ele>77.68</ele>
        <time>2017-09-17T09:14:55Z</time>
      </trkpt>
      <trkpt lat="47.69925" lon="-0.93091">
        <ele>77.5</ele>
        <time>2017-09-17T09:14:58Z</time>
      </trkpt>
      <trkpt lat="47.69919" lon="-0.93063">
        <ele>77.28</ele>
        <time>2017-09-17T09:15:01Z</time>
      </trkpt>
      <trkpt lat="47.69912" lon="-0.93036">
        <ele>77.2</ele>
        <time>2017-09-17T09:15:04Z</time>
      </trkpt>
      <trkpt lat="47.69906" lon="-0.93011">
        <ele>76.92</ele>
        <time>2017-09-17T09:15:07Z</time>
      </trkpt>
      <trkpt lat="47.69899" lon="-0.92978">
        <ele>76.78</ele>
        <time>2017-09-17T09:15:11Z</time>
      </trkpt>
      <trkpt lat="47.6989" lon="-0.92947">
        <ele>76.7</ele>
        <time>2017-09-17T09:15:15Z</time>
      </trkpt>
      <trkpt lat="47.69882" lon="-0.92917">
        <ele>76.48</ele>
        <time>2017-09-17T09:15:19Z</time>
      </trkpt>
      <trkpt lat="47.69873" lon="-0.92888">
        <ele>76.66</ele>
        <time>2017-09-17T09:15:23Z</time>
      </trkpt>
      <trkpt lat="47.69864" lon="-0.9286">
        <ele>77.05</ele>
        <time>2017-09-17T09:15:27Z</time>
      </trkpt>
      <trkpt lat="47.69854" lon="-0.92832">
        <ele>77.18</ele>
        <time>2017-09-17T09:15:31Z</time>
      </trkpt>
      <trkpt lat="47.69843" lon="-0.92805">
        <ele>77.45</ele>
        <time>2017-09-17T09:15:35Z</time>
      </trkpt>
      <trkpt lat="47.69832" lon="-0.9278">
        <ele>77.48</ele>
        <time>2017-09-17T09:15:39Z</time>
      </trkpt>
      <trkpt lat="47.69821" lon="-0.92755">
        <ele>77.76</ele>
        <time>2017-09-17T09:15:43Z</time>
      </trkpt>
      <trkpt lat="47.69809" lon="-0.92732">
        <ele>78.07</ele>
        <time>2017-09-17T09:15:47Z</time>
      </trkpt>
      <trkpt lat="47.69797" lon="-0.92711">
        <ele>78.16</ele>
        <time>2017-09-17T09:15:51Z</time>
      </trkpt>
      <trkpt lat="47.69783" lon="-0.92685">
        <ele>78.18</ele>
        <time>2017-09-17T09:15:56Z</time>
      </trkpt>
      <trkpt lat="47.69776" lon="-0.92656">
        <ele>78.73</ele>
        <time>2017-09-17T09:16:01Z</time>
      </trkpt>
      <trkpt lat="47.69776" lon="-0.92626">
        <ele>79.35</ele>
        <time>2017-09-17T09:16:06Z</time>
      </trkpt>
      <trkpt lat="47.69768" lon="-0.926">
        <ele>79.68</ele>
        <time>2017-09-17T09:16:11Z</time>
      </trkpt>
      <trkpt lat="47.69758" lon="-0.92573">
        <ele>79.56</ele>
        <time>2017-09-17T09:16:16Z</time>
      </trkpt>
      <trkpt lat="47.69765" lon="-0.92546">
        <ele>79.94</ele>
        <time>2017-09-17T09:16:20Z</time>
      </trkpt>
      <trkpt lat="47.69774" lon="-0.92522">
        <ele>80.15</ele>
        <time>2017-09-17T09:16:23Z</time>
      </trkpt>
      <trkpt lat="47.69781" lon="-0.92492">
        <ele>80.28</ele>
        <time>2017-09-17T09:16:26Z</time>
      </trkpt>
      <trkpt lat="47.69785" lon="-0.92458">
        <ele>79.92</ele>
        <time>2017-09-17T09:16:29Z</time>
      </trkpt>
      <trkpt lat="47.69785" lon="-0.92422">
        <ele>78.87</ele>
        <time>2017-09-17T09:16:32Z</time>
      </trkpt>
      <trkpt lat="47.69781" lon="-0.92386">
        <ele>77.5</ele>
        <time>2017-09-17T09:16:35Z</time>
      </trkpt>
      <trkpt lat="47.69775" lon="-0.9235">
        <ele>76.34</ele>
        <time>2017-09-17T09:16:38Z</time>
      </trkpt>
      <trkpt lat="47.69769" lon="-0.92313">
        <ele>75.53</ele>
        <time>2017-09-17T09:16:41Z</time>
      </trkpt>
      <trkpt lat="47.69763" lon="-0.92277">
        <ele>74.47</ele>
        <time>2017-09-17T09:16:44Z</time>
      </trkpt>
      <trkpt lat="47.69757" lon="-0.9224">
        <ele>73.65</ele>
        <time>2017-09-17T09:16:47Z</time>
      </trkpt>
      <trkpt lat="47.69751" lon="-0.92203">
        <ele>72.3</ele>
        <time>2017-09-17T09:16:50Z</time>
      </trkpt>
      <trkpt lat="47.69745" lon="-0.92166">
        <ele>70.9</ele>
        <time>2017-09-17T09:16:53Z</time>
      </trkpt>
      <trkpt lat="47.69739" lon="-0.92128">
        <ele>69.23</ele>
        <time>2017-09-17T09:16:56Z</time>
      </trkpt>
      <trkpt lat="47.69734" lon="-0.92091">
        <ele>67.98</ele>
        <time>2017-09-17T09:16:59Z</time>
      </trkpt>
      <trkpt lat="47.69729" lon="-0.92053">
        <ele>66.68</ele>
        <time>2017-09-17T09:17:02Z</time>
      </trkpt>
      <trkpt lat="47.69723" lon="-0.92016">
        <ele>65.19</ele>
        <time>2017-09-17T09:17:05Z</time>
      </trkpt>
      <trkpt lat="47.69716" lon="-0.91979">
        <ele>63.88</ele>
        <time>2017-09-17T09:17:08Z</time>
      </trkpt>
      <trkpt lat="47.69709" lon="-0.91942">
        <ele>63.03</ele>
        <time>2017-09-17T09:17:11Z</time>
      </trkpt>
      <trkpt lat="47.69702" lon="-0.91906">
        <ele>62.23</ele>
        <time>2017-09-17T09:17:14Z</time>
      </trkpt>
      <trkpt lat="47.69695" lon="-0.91872">
        <ele>61.33</ele>
        <time>2017-09-17T09:17:17Z</time>
      </trkpt>
      <trkpt lat="47.69689" lon="-0.91838">
        <ele>60.75</ele>
        <time>2017-09-17T09:17:20Z</time>
      </trkpt>
      <trkpt lat="47.69683" lon="-0.91805">
        <ele>60.23</ele>
        <time>2017-09-17T09:17:23Z</time>
      </trkpt>
      <trkpt lat="47.69676" lon="-0.91772">
        <ele>59.45</ele>
        <time>2017-09-17T09:17:26Z</time>
      </trkpt>
      <trkpt lat="47.6967" lon="-0.91737">
        <ele>58.65</ele>
        <time>2017-09-17T09:17:29Z</time>
      </trkpt>
      <trkpt lat="47.69664" lon="-0.91704">
        <ele>57.77</ele>
        <time>2017-09-17T09:17:32Z</time>
      </trkpt>
      <trkpt lat="47.69658" lon="-0.9167">
        <ele>56.4</ele>
        <time>2017-09-17T09:17:35Z</time>
      </trkpt>
      <trkpt lat="47.69651" lon="-0.91636">
        <ele>55.1</ele>
        <time>2017-09-17T09:17:38Z</time>
      </trkpt>
      <trkpt lat="47.69646" lon="-0.916">
        <ele>53.7</ele>
        <time>2017-09-17T09:17:41Z</time>
      </trkpt>
      <trkpt lat="47.69639" lon="-0.91564">
        <ele>52.4</ele>
        <time>2017-09-17T09:17:44Z</time>
      </trkpt>
      <trkpt lat="47.69633" lon="-0.91529">
        <ele>51.53</ele>
        <time>2017-09-17T09:17:47Z</time>
      </trkpt>
      <trkpt lat="47.69628" lon="-0.91494">
        <ele>50.99</ele>
        <time>2017-09-17T09:17:50Z</time>
      </trkpt>
      <trkpt lat="47.69622" lon="-0.91459">
        <ele>50.33</ele>
        <time>2017-09-17T09:17:53Z</time>
      </trkpt>
      <trkpt lat="47.69616" lon="-0.91422">
        <ele>49.65</ele>
        <time>2017-09-17T09:17:56Z</time>
      </trkpt>
      <trkpt lat="47.6961" lon="-0.91385">
        <ele>49.13</ele>
        <time>2017-09-17T09:17:59Z</time>
      </trkpt>
      <trkpt lat="47.69604" lon="-0.91349">
        <ele>48.35</ele>
        <time>2017-09-17T09:18:02Z</time>
      </trkpt>
      <trkpt lat="47.69597" lon="-0.9131">
        <ele>47.45</ele>
        <time>2017-09-17T09:18:05Z</time>
      </trkpt>
      <trkpt lat="47.69591" lon="-0.91273">
        <ele>46.83</ele>
        <time>2017-09-17T09:18:08Z</time>
      </trkpt>
      <trkpt lat="47.69584" lon="-0.91236">
        <ele>46.41</ele>
        <time>2017-09-17T09:18:11Z</time>
      </trkpt>
      <trkpt lat="47.69578" lon="-0.912">
        <ele>46.08</ele>
        <time>2017-09-17T09:18:14Z</time>
      </trkpt>
      <trkpt lat="47.69571" lon="-0.91165">
        <ele>45.98</ele>
        <time>2017-09-17T09:18:17Z</time>
      </trkpt>
      <trkpt lat="47.69565" lon="-0.91132">
        <ele>45.88</ele>
        <time>2017-09-17T09:18:20Z</time>
      </trkpt>
      <trkpt lat="47.6956" lon="-0.91098">
        <ele>45.52</ele>
        <time>2017-09-17T09:18:23Z</time>
      </trkpt>
      <trkpt lat="47.69554" lon="-0.91064">
        <ele>45.11</ele>
        <time>2017-09-17T09:18:26Z</time>
      </trkpt>
      <trkpt lat="47.69547" lon="-0.91029">
        <ele>44.33</ele>
        <time>2017-09-17T09:18:29Z</time>
      </trkpt>
      <trkpt lat="47.69541" lon="-0.90993">
        <ele>43.81</ele>
        <time>2017-09-17T09:18:32Z</time>
      </trkpt>
      <trkpt lat="47.69534" lon="-0.90958">
        <ele>43.48</ele>
        <time>2017-09-17T09:18:35Z</time>
      </trkpt>
      <trkpt lat="47.69528" lon="-0.90923">
        <ele>43.36</ele>
        <time>2017-09-17T09:18:38Z</time>
      </trkpt>
      <trkpt lat="47.69521" lon="-0.9089">
        <ele>43</ele>
        <time>2017-09-17T09:18:41Z</time>
      </trkpt>
      <trkpt lat="47.69514" lon="-0.90857">
        <ele>42.6</ele>
        <time>2017-09-17T09:18:44Z</time>
      </trkpt>
      <trkpt lat="47.69508" lon="-0.90825">
        <ele>42.58</ele>
        <time>2017-09-17T09:18:47Z</time>
      </trkpt>
      <trkpt lat="47.69502" lon="-0.90792">
        <ele>42.31</ele>
        <time>2017-09-17T09:18:50Z</time>
      </trkpt>
      <trkpt lat="47.69496" lon="-0.9076">
        <ele>42.1</ele>
        <time>2017-09-17T09:18:53Z</time>
      </trkpt>
      <trkpt lat="47.6949" lon="-0.90728">
        <ele>42.08</ele>
        <time>2017-09-17T09:18:56Z</time>
      </trkpt>
      <trkpt lat="47.69485" lon="-0.90696">
        <ele>41.8</ele>
        <time>2017-09-17T09:18:59Z</time>
      </trkpt>
      <trkpt lat="47.69479" lon="-0.90664">
        <ele>41.68</ele>
        <time>2017-09-17T09:19:02Z</time>
      </trkpt>
      <trkpt lat="47.69472" lon="-0.90634">
        <ele>41.5</ele>
        <time>2017-09-17T09:19:05Z</time>
      </trkpt>
      <trkpt lat="47.69466" lon="-0.90603">
        <ele>41.46</ele>
        <time>2017-09-17T09:19:08Z</time>
      </trkpt>
      <trkpt lat="47.69459" lon="-0.90573">
        <ele>41.48</ele>
        <time>2017-09-17T09:19:11Z</time>
      </trkpt>
      <trkpt lat="47.69451" lon="-0.90542">
        <ele>41.03</ele>
        <time>2017-09-17T09:19:14Z</time>
      </trkpt>
      <trkpt lat="47.69443" lon="-0.9051">
        <ele>40.51</ele>
        <time>2017-09-17T09:19:17Z</time>
      </trkpt>
      <trkpt lat="47.69436" lon="-0.90479">
        <ele>40.18</ele>
        <time>2017-09-17T09:19:20Z</time>
      </trkpt>
      <trkpt lat="47.69428" lon="-0.90448">
        <ele>39.9</ele>
        <time>2017-09-17T09:19:23Z</time>
      </trkpt>
      <trkpt lat="47.69421" lon="-0.90418">
        <ele>39.8</ele>
        <time>2017-09-17T09:19:26Z</time>
      </trkpt>
      <trkpt lat="47.69413" lon="-0.90389">
        <ele>39.78</ele>
        <time>2017-09-17T09:19:29Z</time>
      </trkpt>
      <trkpt lat="47.69406" lon="-0.90362">
        <ele>39.88</ele>
        <time>2017-09-17T09:19:32Z</time>
      </trkpt>
      <trkpt lat="47.69392" lon="-0.9034">
        <ele>39.88</ele>
        <time>2017-09-17T09:19:36Z</time>
      </trkpt>
      <trkpt lat="47.69374" lon="-0.90352">
        <ele>39.8</ele>
        <time>2017-09-17T09:19:40Z</time>
      </trkpt>
      <trkpt lat="47.69357" lon="-0.90377">
        <ele>39.3</ele>
        <time>2017-09-17T09:19:44Z</time>
      </trkpt>
      <trkpt lat="47.69341" lon="-0.90393">
        <ele>39</ele>
        <time>2017-09-17T09:19:47Z</time>
      </trkpt>
      <trkpt lat="47.69323" lon="-0.90396">
        <ele>38.88</ele>
        <time>2017-09-17T09:19:50Z</time>
      </trkpt>
      <trkpt lat="47.69304" lon="-0.9039">
        <ele>38.8</ele>
        <time>2017-09-17T09:19:53Z</time>
      </trkpt>
      <trkpt lat="47.69287" lon="-0.9038">
        <ele>38.68</ele>
        <time>2017-09-17T09:19:56Z</time>
      </trkpt>
      <trkpt lat="47.69271" lon="-0.90365">
        <ele>38.58</ele>
        <time>2017-09-17T09:19:59Z</time>
      </trkpt>
      <trkpt lat="47.69255" lon="-0.90349">
        <ele>38.58</ele>
        <time>2017-09-17T09:20:02Z</time>
      </trkpt>
      <trkpt lat="47.69239" lon="-0.90336">
        <ele>38.87</ele>
        <time>2017-09-17T09:20:05Z</time>
      </trkpt>
      <trkpt lat="47.69221" lon="-0.90328">
        <ele>38.89</ele>
        <time>2017-09-17T09:20:08Z</time>
      </trkpt>
      <trkpt lat="47.69203" lon="-0.90324">
        <ele>38.5</ele>
        <time>2017-09-17T09:20:11Z</time>
      </trkpt>
      <trkpt lat="47.69179" lon="-0.90322">
        <ele>38.56</ele>
        <time>2017-09-17T09:20:15Z</time>
      </trkpt>
      <trkpt lat="47.69156" lon="-0.90324">
        <ele>38.3</ele>
        <time>2017-09-17T09:20:19Z</time>
      </trkpt>
      <trkpt lat="47.69135" lon="-0.90322">
        <ele>38.18</ele>
        <time>2017-09-17T09:20:23Z</time>
      </trkpt>
      <trkpt lat="47.69115" lon="-0.90313">
        <ele>38</ele>
        <time>2017-09-17T09:20:30Z</time>
      </trkpt>
      <trkpt lat="47.691" lon="-0.90298">
        <ele>37.8</ele>
        <time>2017-09-17T09:20:34Z</time>
      </trkpt>
      <trkpt lat="47.69085" lon="-0.90284">
        <ele>37.78</ele>
        <time>2017-09-17T09:20:38Z</time>
      </trkpt>
      <trkpt lat="47.69065" lon="-0.90291">
        <ele>38.25</ele>
        <time>2017-09-17T09:20:43Z</time>
      </trkpt>
      <trkpt lat="47.69044" lon="-0.90282">
        <ele>37.79</ele>
        <time>2017-09-17T09:20:50Z</time>
      </trkpt>
      <trkpt lat="47.69027" lon="-0.90266">
        <ele>37.48</ele>
        <time>2017-09-17T09:20:55Z</time>
      </trkpt>
      <trkpt lat="47.69007" lon="-0.9025">
        <ele>37.38</ele>
        <time>2017-09-17T09:21:00Z</time>
      </trkpt>
      <trkpt lat="47.68991" lon="-0.90235">
        <ele>37.3</ele>
        <time>2017-09-17T09:21:04Z</time>
      </trkpt>
      <trkpt lat="47.68975" lon="-0.90218">
        <ele>37.26</ele>
        <time>2017-09-17T09:21:08Z</time>
      </trkpt>
      <trkpt lat="47.6896" lon="-0.90194">
        <ele>37.28</ele>
        <time>2017-09-17T09:21:13Z</time>
      </trkpt>
      <trkpt lat="47.68947" lon="-0.90167">
        <ele>37.65</ele>
        <time>2017-09-17T09:21:18Z</time>
      </trkpt>
      <trkpt lat="47.68932" lon="-0.90145">
        <ele>37.8</ele>
        <time>2017-09-17T09:21:23Z</time>
      </trkpt>
      <trkpt lat="47.68914" lon="-0.90126">
        <ele>37.97</ele>
        <time>2017-09-17T09:21:28Z</time>
      </trkpt>
      <trkpt lat="47.68895" lon="-0.90118">
        <ele>37.86</ele>
        <time>2017-09-17T09:21:33Z</time>
      </trkpt>
      <trkpt lat="47.68887" lon="-0.90091">
        <ele>37.87</ele>
        <time>2017-09-17T09:21:41Z</time>
      </trkpt>
      <trkpt lat="47.6887" lon="-0.90079">
        <ele>37.13</ele>
        <time>2017-09-17T09:21:47Z</time>
      </trkpt>
      <trkpt lat="47.68852" lon="-0.90065">
        <ele>36.7</ele>
        <time>2017-09-17T09:21:54Z</time>
      </trkpt>
      <trkpt lat="47.68836" lon="-0.90049">
        <ele>36.68</ele>
        <time>2017-09-17T09:22:00Z</time>
      </trkpt>
      <trkpt lat="47.68821" lon="-0.90029">
        <ele>36.4</ele>
        <time>2017-09-17T09:22:08Z</time>
      </trkpt>
      <trkpt lat="47.68811" lon="-0.90004">
        <ele>37.25</ele>
        <time>2017-09-17T09:22:17Z</time>
      </trkpt>
      <trkpt lat="47.68799" lon="-0.89979">
        <ele>38.01</ele>
        <time>2017-09-17T09:22:26Z</time>
      </trkpt>
      <trkpt lat="47.68782" lon="-0.89967">
        <ele>37.8</ele>
        <time>2017-09-17T09:22:31Z</time>
      </trkpt>
      <trkpt lat="47.68763" lon="-0.89954">
        <ele>37.48</ele>
        <time>2017-09-17T09:22:35Z</time>
      </trkpt>
      <trkpt lat="47.68745" lon="-0.8994">
        <ele>37.1</ele>
        <time>2017-09-17T09:22:39Z</time>
      </trkpt>
      <trkpt lat="47.68729" lon="-0.89926">
        <ele>36.6</ele>
        <time>2017-09-17T09:22:43Z</time>
      </trkpt>
      <trkpt lat="47.6871" lon="-0.89912">
        <ele>36.32</ele>
        <time>2017-09-17T09:22:48Z</time>
      </trkpt>
      <trkpt lat="47.68692" lon="-0.89903">
        <ele>35.69</ele>
        <time>2017-09-17T09:22:52Z</time>
      </trkpt>
      <trkpt lat="47.68678" lon="-0.8988">
        <ele>35.58</ele>
        <time>2017-09-17T09:22:57Z</time>
      </trkpt>
      <trkpt lat="47.68669" lon="-0.89856">
        <ele>35.67</ele>
        <time>2017-09-17T09:23:02Z</time>
      </trkpt>
      <trkpt lat="47.68659" lon="-0.8983">
        <ele>35.58</ele>
        <time>2017-09-17T09:23:08Z</time>
      </trkpt>
      <trkpt lat="47.6865" lon="-0.89802">
        <ele>35.85</ele>
        <time>2017-09-17T09:23:14Z</time>
      </trkpt>
      <trkpt lat="47.68641" lon="-0.89774">
        <ele>36.37</ele>
        <time>2017-09-17T09:23:21Z</time>
      </trkpt>
      <trkpt lat="47.68632" lon="-0.89751">
        <ele>36.68</ele>
        <time>2017-09-17T09:23:27Z</time>
      </trkpt>
      <trkpt lat="47.68622" lon="-0.89727">
        <ele>37.07</ele>
        <time>2017-09-17T09:23:33Z</time>
      </trkpt>
      <trkpt lat="47.68613" lon="-0.89702">
        <ele>37.16</ele>
        <time>2017-09-17T09:24:35Z</time>
      </trkpt>
      <trkpt lat="47.68604" lon="-0.89675">
        <ele>37.95</ele>
        <time>2017-09-17T09:24:44Z</time>
      </trkpt>
      <trkpt lat="47.68599" lon="-0.89648">
        <ele>38.93</ele>
        <time>2017-09-17T09:24:52Z</time>
      </trkpt>
      <trkpt lat="47.68594" lon="-0.8962">
        <ele>40.05</ele>
        <time>2017-09-17T09:25:00Z</time>
      </trkpt>
      <trkpt lat="47.6859" lon="-0.89594">
        <ele>40.73</ele>
        <time>2017-09-17T09:25:08Z</time>
      </trkpt>
      <trkpt lat="47.68586" lon="-0.89567">
        <ele>41.36</ele>
        <time>2017-09-17T09:25:18Z</time>
      </trkpt>
      <trkpt lat="47.68582" lon="-0.89538">
        <ele>41.58</ele>
        <time>2017-09-17T09:25:26Z</time>
      </trkpt>
      <trkpt lat="47.6857" lon="-0.89515">
        <ele>41.5</ele>
        <time>2017-09-17T09:25:32Z</time>
      </trkpt>
      <trkpt lat="47.68555" lon="-0.89492">
        <ele>41.48</ele>
        <time>2017-09-17T09:25:37Z</time>
      </trkpt>
      <trkpt lat="47.68542" lon="-0.8947">
        <ele>41.59</ele>
        <time>2017-09-17T09:25:41Z</time>
      </trkpt>
      <trkpt lat="47.68528" lon="-0.89452">
        <ele>41.58</ele>
        <time>2017-09-17T09:25:45Z</time>
      </trkpt>
      <trkpt lat="47.68513" lon="-0.89435">
        <ele>41.4</ele>
        <time>2017-09-17T09:25:49Z</time>
      </trkpt>
      <trkpt lat="47.68499" lon="-0.89413">
        <ele>41.18</ele>
        <time>2017-09-17T09:25:53Z</time>
      </trkpt>
      <trkpt lat="47.68487" lon="-0.89388">
        <ele>41.26</ele>
        <time>2017-09-17T09:25:57Z</time>
      </trkpt>
      <trkpt lat="47.68476" lon="-0.89363">
        <ele>41.85</ele>
        <time>2017-09-17T09:26:01Z</time>
      </trkpt>
      <trkpt lat="47.68467" lon="-0.89338">
        <ele>42.25</ele>
        <time>2017-09-17T09:26:05Z</time>
      </trkpt>
      <trkpt lat="47.68459" lon="-0.89312">
        <ele>42.65</ele>
        <time>2017-09-17T09:26:09Z</time>
      </trkpt>
      <trkpt lat="47.68454" lon="-0.89284">
        <ele>43.15</ele>
        <time>2017-09-17T09:26:13Z</time>
      </trkpt>
      <trkpt lat="47.68447" lon="-0.89257">
        <ele>43.46</ele>
        <time>2017-09-17T09:26:17Z</time>
      </trkpt>
      <trkpt lat="47.68441" lon="-0.8923">
        <ele>43.95</ele>
        <time>2017-09-17T09:26:21Z</time>
      </trkpt>
      <trkpt lat="47.68441" lon="-0.89202">
        <ele>44.99</ele>
        <time>2017-09-17T09:26:30Z</time>
      </trkpt>
      <trkpt lat="47.68459" lon="-0.89191">
        <ele>45.24</ele>
        <time>2017-09-17T09:26:35Z</time>
      </trkpt>
      <trkpt lat="47.68478" lon="-0.89178">
        <ele>45.64</ele>
        <time>2017-09-17T09:26:40Z</time>
      </trkpt>
      <trkpt lat="47.68498" lon="-0.89166">
        <ele>46.35</ele>
        <time>2017-09-17T09:26:45Z</time>
      </trkpt>
      <trkpt lat="47.68519" lon="-0.89159">
        <ele>46.85</ele>
        <time>2017-09-17T09:26:50Z</time>
      </trkpt>
      <trkpt lat="47.6854" lon="-0.89155">
        <ele>47.55</ele>
        <time>2017-09-17T09:26:55Z</time>
      </trkpt>
      <trkpt lat="47.68559" lon="-0.89152">
        <ele>47.58</ele>
        <time>2017-09-17T09:27:00Z</time>
      </trkpt>
      <trkpt lat="47.6858" lon="-0.89154">
        <ele>47.46</ele>
        <time>2017-09-17T09:27:05Z</time>
      </trkpt>
      <trkpt lat="47.68599" lon="-0.89157">
        <ele>47.67</ele>
        <time>2017-09-17T09:27:09Z</time>
      </trkpt>
      <trkpt lat="47.68617" lon="-0.89144">
        <ele>48.15</ele>
        <time>2017-09-17T09:27:14Z</time>
      </trkpt>
      <trkpt lat="47.68622" lon="-0.89116">
        <ele>48.38</ele>
        <time>2017-09-17T09:27:18Z</time>
      </trkpt>
      <trkpt lat="47.68615" lon="-0.8909">
        <ele>48.38</ele>
        <time>2017-09-17T09:27:22Z</time>
      </trkpt>
      <trkpt lat="47.68602" lon="-0.8907">
        <ele>48.48</ele>
        <time>2017-09-17T09:27:26Z</time>
      </trkpt>
      <trkpt lat="47.68584" lon="-0.89051">
        <ele>48.68</ele>
        <time>2017-09-17T09:27:31Z</time>
      </trkpt>
      <trkpt lat="47.68568" lon="-0.89033">
        <ele>48.78</ele>
        <time>2017-09-17T09:27:36Z</time>
      </trkpt>
      <trkpt lat="47.68553" lon="-0.89015">
        <ele>48.96</ele>
        <time>2017-09-17T09:27:41Z</time>
      </trkpt>
      <trkpt lat="47.68543" lon="-0.8899">
        <ele>49.45</ele>
        <time>2017-09-17T09:27:47Z</time>
      </trkpt>
      <trkpt lat="47.68534" lon="-0.88963">
        <ele>49.86</ele>
        <time>2017-09-17T09:27:52Z</time>
      </trkpt>
      <trkpt lat="47.68531" lon="-0.8893">
        <ele>50.27</ele>
        <time>2017-09-17T09:27:57Z</time>
      </trkpt>
      <trkpt lat="47.68533" lon="-0.88903">
        <ele>50.37</ele>
        <time>2017-09-17T09:28:01Z</time>
      </trkpt>
      <trkpt lat="47.68534" lon="-0.88876">
        <ele>50.65</ele>
        <time>2017-09-17T09:28:05Z</time>
      </trkpt>
      <trkpt lat="47.68536" lon="-0.88847">
        <ele>51.25</ele>
        <time>2017-09-17T09:28:09Z</time>
      </trkpt>
      <trkpt lat="47.68538" lon="-0.88819">
        <ele>51.55</ele>
        <time>2017-09-17T09:28:13Z</time>
      </trkpt>
      <trkpt lat="47.68539" lon="-0.8879">
        <ele>51.86</ele>
        <time>2017-09-17T09:28:17Z</time>
      </trkpt>
      <trkpt lat="47.6854" lon="-0.8876">
        <ele>52.15</ele>
        <time>2017-09-17T09:28:21Z</time>
      </trkpt>
      <trkpt lat="47.68542" lon="-0.8873">
        <ele>52.38</ele>
        <time>2017-09-17T09:28:25Z</time>
      </trkpt>
      <trkpt lat="47.68543" lon="-0.887">
        <ele>52.48</ele>
        <time>2017-09-17T09:28:29Z</time>
      </trkpt>
      <trkpt lat="47.68545" lon="-0.8867">
        <ele>52.75</ele>
        <time>2017-09-17T09:28:33Z</time>
      </trkpt>
      <trkpt lat="47.68546" lon="-0.8864">
        <ele>52.88</ele>
        <time>2017-09-17T09:28:37Z</time>
      </trkpt>
      <trkpt lat="47.68547" lon="-0.88612">
        <ele>52.99</ele>
        <time>2017-09-17T09:28:41Z</time>
      </trkpt>
      <trkpt lat="47.68548" lon="-0.88583">
        <ele>52.88</ele>
        <time>2017-09-17T09:28:45Z</time>
      </trkpt>
      <trkpt lat="47.68552" lon="-0.88553">
        <ele>52.98</ele>
        <time>2017-09-17T09:28:49Z</time>
      </trkpt>
      <trkpt lat="47.68561" lon="-0.88525">
        <ele>52.9</ele>
        <time>2017-09-17T09:28:53Z</time>
      </trkpt>
      <trkpt lat="47.68574" lon="-0.88503">
        <ele>52.66</ele>
        <time>2017-09-17T09:28:57Z</time>
      </trkpt>
      <trkpt lat="47.68586" lon="-0.88477">
        <ele>52.88</ele>
        <time>2017-09-17T09:29:02Z</time>
      </trkpt>
      <trkpt lat="47.68605" lon="-0.88485">
        <ele>52.97</ele>
        <time>2017-09-17T09:29:07Z</time>
      </trkpt>
      <trkpt lat="47.68599" lon="-0.88516">
        <ele>53.18</ele>
        <time>2017-09-17T09:29:13Z</time>
      </trkpt>
      <trkpt lat="47.6858" lon="-0.88511">
        <ele>53.08</ele>
        <time>2017-09-17T09:29:18Z</time>
      </trkpt>
      <trkpt lat="47.68581" lon="-0.88484">
        <ele>52.88</ele>
        <time>2017-09-17T09:29:22Z</time>
      </trkpt>
      <trkpt lat="47.68588" lon="-0.88453">
        <ele>52.86</ele>
        <time>2017-09-17T09:29:26Z</time>
      </trkpt>
      <trkpt lat="47.68581" lon="-0.8842">
        <ele>52.98</ele>
        <time>2017-09-17T09:29:30Z</time>
      </trkpt>
      <trkpt lat="47.68568" lon="-0.88392">
        <ele>53.17</ele>
        <time>2017-09-17T09:29:34Z</time>
      </trkpt>
      <trkpt lat="47.68557" lon="-0.8837">
        <ele>53.26</ele>
        <time>2017-09-17T09:29:37Z</time>
      </trkpt>
      <trkpt lat="47.68545" lon="-0.88349">
        <ele>53.45</ele>
        <time>2017-09-17T09:29:40Z</time>
      </trkpt>
      <trkpt lat="47.68534" lon="-0.88327">
        <ele>53.48</ele>
        <time>2017-09-17T09:29:43Z</time>
      </trkpt>
      <trkpt lat="47.68522" lon="-0.88305">
        <ele>53.5</ele>
        <time>2017-09-17T09:29:46Z</time>
      </trkpt>
      <trkpt lat="47.68511" lon="-0.88282">
        <ele>53.28</ele>
        <time>2017-09-17T09:29:49Z</time>
      </trkpt>
      <trkpt lat="47.68499" lon="-0.88259">
        <ele>53.08</ele>
        <time>2017-09-17T09:29:52Z</time>
      </trkpt>
      <trkpt lat="47.68487" lon="-0.88236">
        <ele>53</ele>
        <time>2017-09-17T09:29:55Z</time>
      </trkpt>
      <trkpt lat="47.68475" lon="-0.88213">
        <ele>52.86</ele>
        <time>2017-09-17T09:29:58Z</time>
      </trkpt>
      <trkpt lat="47.68463" lon="-0.8819">
        <ele>52.98</ele>
        <time>2017-09-17T09:30:01Z</time>
      </trkpt>
      <trkpt lat="47.68451" lon="-0.88167">
        <ele>52.78</ele>
        <time>2017-09-17T09:30:04Z</time>
      </trkpt>
      <trkpt lat="47.68438" lon="-0.88145">
        <ele>52.41</ele>
        <time>2017-09-17T09:30:07Z</time>
      </trkpt>
      <trkpt lat="47.68426" lon="-0.88122">
        <ele>52.2</ele>
        <time>2017-09-17T09:30:10Z</time>
      </trkpt>
      <trkpt lat="47.68414" lon="-0.881">
        <ele>52</ele>
        <time>2017-09-17T09:30:13Z</time>
      </trkpt>
      <trkpt lat="47.68402" lon="-0.88077">
        <ele>51.7</ele>
        <time>2017-09-17T09:30:16Z</time>
      </trkpt>
      <trkpt lat="47.6839" lon="-0.88054">
        <ele>51.86</ele>
        <time>2017-09-17T09:30:19Z</time>
      </trkpt>
      <trkpt lat="47.68378" lon="-0.88032">
        <ele>51.88</ele>
        <time>2017-09-17T09:30:22Z</time>
      </trkpt>
      <trkpt lat="47.68366" lon="-0.88009">
        <ele>51.88</ele>
        <time>2017-09-17T09:30:25Z</time>
      </trkpt>
      <trkpt lat="47.68355" lon="-0.87987">
        <ele>51.98</ele>
        <time>2017-09-17T09:30:28Z</time>
      </trkpt>
      <trkpt lat="47.68343" lon="-0.87965">
        <ele>52.07</ele>
        <time>2017-09-17T09:30:31Z</time>
      </trkpt>
      <trkpt lat="47.68332" lon="-0.87943">
        <ele>51.98</ele>
        <time>2017-09-17T09:30:34Z</time>
      </trkpt>
      <trkpt lat="47.68321" lon="-0.8792">
        <ele>51.88</ele>
        <time>2017-09-17T09:30:37Z</time>
      </trkpt>
      <trkpt lat="47.6831" lon="-0.87898">
        <ele>51.98</ele>
        <time>2017-09-17T09:30:40Z</time>
      </trkpt>
      <trkpt lat="47.68301" lon="-0.87874">
        <ele>51.88</ele>
        <time>2017-09-17T09:30:43Z</time>
      </trkpt>
      <trkpt lat="47.68293" lon="-0.8785">
        <ele>51.68</ele>
        <time>2017-09-17T09:30:46Z</time>
      </trkpt>
      <trkpt lat="47.68284" lon="-0.87818">
        <ele>51.5</ele>
        <time>2017-09-17T09:30:50Z</time>
      </trkpt>
      <trkpt lat="47.68276" lon="-0.87786">
        <ele>51.66</ele>
        <time>2017-09-17T09:30:54Z</time>
      </trkpt>
      <trkpt lat="47.68269" lon="-0.87756">
        <ele>51.78</ele>
        <time>2017-09-17T09:30:58Z</time>
      </trkpt>
      <trkpt lat="47.68264" lon="-0.87723">
        <ele>51.01</ele>
        <time>2017-09-17T09:31:02Z</time>
      </trkpt>
      <trkpt lat="47.68265" lon="-0.87695">
        <ele>50.85</ele>
        <time>2017-09-17T09:31:05Z</time>
      </trkpt>
      <trkpt lat="47.68267" lon="-0.87666">
        <ele>51.15</ele>
        <time>2017-09-17T09:31:08Z</time>
      </trkpt>
      <trkpt lat="47.68271" lon="-0.87638">
        <ele>51.57</ele>
        <time>2017-09-17T09:31:11Z</time>
      </trkpt>
      <trkpt lat="47.68274" lon="-0.87604">
        <ele>51.76</ele>
        <time>2017-09-17T09:31:15Z</time>
      </trkpt>
      <trkpt lat="47.68278" lon="-0.87578">
        <ele>51.68</ele>
        <time>2017-09-17T09:31:18Z</time>
      </trkpt>
      <trkpt lat="47.68283" lon="-0.87545">
        <ele>51.68</ele>
        <time>2017-09-17T09:31:22Z</time>
      </trkpt>
      <trkpt lat="47.68288" lon="-0.87518">
        <ele>52.18</ele>
        <time>2017-09-17T09:31:28Z</time>
      </trkpt>
      <trkpt lat="47.68294" lon="-0.87489">
        <ele>52.55</ele>
        <time>2017-09-17T09:31:33Z</time>
      </trkpt>
      <trkpt lat="47.683" lon="-0.87457">
        <ele>52.87</ele>
        <time>2017-09-17T09:31:38Z</time>
      </trkpt>
      <trkpt lat="47.68305" lon="-0.87426">
        <ele>53.45</ele>
        <time>2017-09-17T09:31:43Z</time>
      </trkpt>
      <trkpt lat="47.68309" lon="-0.87394">
        <ele>53.67</ele>
        <time>2017-09-17T09:31:48Z</time>
      </trkpt>
      <trkpt lat="47.68315" lon="-0.87362">
        <ele>53.76</ele>
        <time>2017-09-17T09:31:53Z</time>
      </trkpt>
      <trkpt lat="47.68323" lon="-0.87337">
        <ele>54.05</ele>
        <time>2017-09-17T09:31:57Z</time>
      </trkpt>
      <trkpt lat="47.68332" lon="-0.87312">
        <ele>53.92</ele>
        <time>2017-09-17T09:32:01Z</time>
      </trkpt>
      <trkpt lat="47.6834" lon="-0.87286">
        <ele>53.69</ele>
        <time>2017-09-17T09:32:05Z</time>
      </trkpt>
      <trkpt lat="47.68347" lon="-0.87259">
        <ele>53.23</ele>
        <time>2017-09-17T09:32:09Z</time>
      </trkpt>
      <trkpt lat="47.68329" lon="-0.87247">
        <ele>52.6</ele>
        <time>2017-09-17T09:32:13Z</time>
      </trkpt>
      <trkpt lat="47.6831" lon="-0.87241">
        <ele>52.02</ele>
        <time>2017-09-17T09:32:17Z</time>
      </trkpt>
      <trkpt lat="47.68291" lon="-0.87232">
        <ele>50.66</ele>
        <time>2017-09-17T09:32:21Z</time>
      </trkpt>
      <trkpt lat="47.68272" lon="-0.87226">
        <ele>49.24</ele>
        <time>2017-09-17T09:32:25Z</time>
      </trkpt>
      <trkpt lat="47.68266" lon="-0.87201">
        <ele>49.16</ele>
        <time>2017-09-17T09:32:29Z</time>
      </trkpt>
      <trkpt lat="47.68266" lon="-0.8717">
        <ele>49.57</ele>
        <time>2017-09-17T09:32:34Z</time>
      </trkpt>
      <trkpt lat="47.68275" lon="-0.87143">
        <ele>49.89</ele>
        <time>2017-09-17T09:32:39Z</time>
      </trkpt>
    </trkseg>
  </trk>
</gpx>